Wetterdaten: Sonntag, 16.08.2026
Datum Zeit Temp. I. Temp. A. Feuchte I. Feuchte A. Luftdruck Regen Wind Richtung Richtung Sonnenschein Solar Taupunkt Windchill Windböen
16.08.2026 00:00 23,7 °C 24,2 °C 53 % 59 % 1013,9 hPa 0,0 l/m² 3,2 km/h (1 Bft) N-NW 337 ° 0 min 0 W/m² 15,7 °C 24,2 °C 6,4 km/h (2 Bft)
16.08.2026 00:01 23,7 °C 24,2 °C 53 % 59 % 1013,9 hPa 0,0 l/m² 1,6 km/h (1 Bft) N-NW 337 ° 0 min 0 W/m² 15,7 °C 24,2 °C 4,8 km/h (1 Bft)
16.08.2026 00:02 23,7 °C 24,2 °C 53 % 59 % 1013,8 hPa 0,0 l/m² 4,8 km/h (1 Bft) N-NW 337 ° 0 min 0 W/m² 15,7 °C 24,2 °C 8,0 km/h (2 Bft)
16.08.2026 00:03 23,7 °C 24,2 °C 53 % 59 % 1013,9 hPa 0,0 l/m² 3,2 km/h (1 Bft) N-NW 337 ° 0 min 0 W/m² 15,7 °C 24,2 °C 4,8 km/h (1 Bft)
16.08.2026 00:04 23,7 °C 24,2 °C 53 % 59 % 1013,9 hPa 0,0 l/m² 3,2 km/h (1 Bft) N-NW 337 ° 0 min 0 W/m² 15,7 °C 24,2 °C 4,8 km/h (1 Bft)
16.08.2026 00:05 23,7 °C 24,1 °C 53 % 59 % 1014,0 hPa 0,0 l/m² 4,8 km/h (1 Bft) N 360 ° 0 min 0 W/m² 15,6 °C 24,1 °C 6,4 km/h (2 Bft)
16.08.2026 00:06 23,7 °C 24,1 °C 53 % 60 % 1013,8 hPa 0,0 l/m² 4,8 km/h (1 Bft) N 360 ° 0 min 0 W/m² 15,8 °C 24,1 °C 6,4 km/h (2 Bft)
16.08.2026 00:07 23,7 °C 24,1 °C 53 % 60 % 1013,9 hPa 0,0 l/m² 6,4 km/h (2 Bft) N-NW 337 ° 0 min 0 W/m² 15,8 °C 24,1 °C 8,0 km/h (2 Bft)
16.08.2026 00:08 23,7 °C 24,1 °C 53 % 60 % 1013,8 hPa 0,0 l/m² 4,8 km/h (1 Bft) N-NW 337 ° 0 min 0 W/m² 15,8 °C 24,1 °C 4,8 km/h (1 Bft)
16.08.2026 00:09 23,7 °C 24,0 °C 53 % 60 % 1013,9 hPa 0,0 l/m² 4,8 km/h (1 Bft) N-NW 337 ° 0 min 0 W/m² 15,7 °C 24,0 °C 8,0 km/h (2 Bft)
16.08.2026 00:10 23,7 °C 23,9 °C 53 % 60 % 1013,9 hPa 0,0 l/m² 4,8 km/h (1 Bft) W-NW 292 ° 0 min 0 W/m² 15,7 °C 23,9 °C 6,4 km/h (2 Bft)
16.08.2026 00:11 23,7 °C 23,9 °C 53 % 60 % 1013,8 hPa 0,0 l/m² 3,2 km/h (1 Bft) NW 315 ° 0 min 0 W/m² 15,7 °C 23,9 °C 6,4 km/h (2 Bft)
16.08.2026 00:12 23,7 °C 23,9 °C 53 % 61 % 1013,9 hPa 0,0 l/m² 3,2 km/h (1 Bft) NW 315 ° 0 min 0 W/m² 15,9 °C 23,9 °C 4,8 km/h (1 Bft)
16.08.2026 00:13 23,7 °C 23,8 °C 53 % 61 % 1013,9 hPa 0,0 l/m² 1,6 km/h (1 Bft) NW 315 ° 0 min 0 W/m² 15,8 °C 23,8 °C 3,2 km/h (1 Bft)
16.08.2026 00:14 23,7 °C 23,8 °C 53 % 61 % 1013,9 hPa 0,0 l/m² 3,2 km/h (1 Bft) NW 315 ° 0 min 0 W/m² 15,8 °C 23,8 °C 3,2 km/h (1 Bft)
16.08.2026 00:15 23,7 °C 23,8 °C 53 % 61 % 1013,9 hPa 0,0 l/m² 1,6 km/h (1 Bft) NW 315 ° 0 min 0 W/m² 15,8 °C 23,8 °C 3,2 km/h (1 Bft)
16.08.2026 00:16 23,7 °C 23,7 °C 53 % 61 % 1013,9 hPa 0,0 l/m² 3,2 km/h (1 Bft) NW 315 ° 0 min 0 W/m² 15,7 °C 23,7 °C 4,8 km/h (1 Bft)
16.08.2026 00:17 23,7 °C 23,7 °C 53 % 61 % 1013,9 hPa 0,0 l/m² 4,8 km/h (1 Bft) NW 315 ° 0 min 0 W/m² 15,7 °C 23,7 °C 8,0 km/h (2 Bft)
16.08.2026 00:18 23,7 °C 23,6 °C 53 % 61 % 1013,9 hPa 0,0 l/m² 3,2 km/h (1 Bft) N 360 ° 0 min 0 W/m² 15,6 °C 23,6 °C 6,4 km/h (2 Bft)
16.08.2026 00:19 23,7 °C 23,6 °C 53 % 61 % 1014,0 hPa 0,0 l/m² 1,6 km/h (1 Bft) N 360 ° 0 min 0 W/m² 15,6 °C 23,6 °C 3,2 km/h (1 Bft)
16.08.2026 00:20 23,7 °C 23,6 °C 53 % 61 % 1013,9 hPa 0,0 l/m² 3,2 km/h (1 Bft) N 360 ° 0 min 0 W/m² 15,6 °C 23,6 °C 4,8 km/h (1 Bft)
16.08.2026 00:21 23,7 °C 23,5 °C 53 % 61 % 1013,8 hPa 0,0 l/m² 3,2 km/h (1 Bft) N 360 ° 0 min 0 W/m² 15,5 °C 23,5 °C 3,2 km/h (1 Bft)
16.08.2026 00:22 23,7 °C 23,4 °C 53 % 62 % 1013,9 hPa 0,0 l/m² 1,6 km/h (1 Bft) N 360 ° 0 min 0 W/m² 15,7 °C 23,4 °C 3,2 km/h (1 Bft)
16.08.2026 00:23 23,7 °C 23,3 °C 53 % 62 % 1013,9 hPa 0,0 l/m² 1,6 km/h (1 Bft) N 360 ° 0 min 0 W/m² 15,6 °C 23,3 °C 1,6 km/h (1 Bft)
16.08.2026 00:24 23,7 °C 23,1 °C 53 % 63 % 1013,9 hPa 0,0 l/m² 0,0 km/h (0 Bft) N 360 ° 0 min 0 W/m² 15,7 °C 23,1 °C 1,6 km/h (1 Bft)
16.08.2026 00:25 23,7 °C 22,9 °C 53 % 63 % 1014,0 hPa 0,0 l/m² 0,0 km/h (0 Bft) N 0 ° 0 min 0 W/m² 15,5 °C 22,9 °C 0,0 km/h (0 Bft)
16.08.2026 00:26 23,7 °C 22,8 °C 53 % 64 % 1013,9 hPa 0,0 l/m² 0,0 km/h (0 Bft) N 0 ° 0 min 0 W/m² 15,6 °C 22,8 °C 0,0 km/h (0 Bft)
16.08.2026 00:27 23,7 °C 22,7 °C 53 % 64 % 1013,9 hPa 0,0 l/m² 0,0 km/h (0 Bft) N 360 ° 0 min 0 W/m² 15,5 °C 22,7 °C 1,6 km/h (1 Bft)
16.08.2026 00:28 23,7 °C 22,6 °C 53 % 64 % 1013,9 hPa 0,0 l/m² 0,0 km/h (0 Bft) N 360 ° 0 min 0 W/m² 15,4 °C 22,6 °C 1,6 km/h (1 Bft)
16.08.2026 00:29 23,7 °C 22,3 °C 53 % 64 % 1014,0 hPa 0,0 l/m² 0,0 km/h (0 Bft) N 0 ° 0 min 0 W/m² 15,2 °C 22,3 °C 0,0 km/h (0 Bft)
16.08.2026 00:30 23,7 °C 22,2 °C 53 % 66 % 1014,0 hPa 0,0 l/m² 0,0 km/h (0 Bft) N 0 ° 0 min 0 W/m² 15,5 °C 22,2 °C 0,0 km/h (0 Bft)
16.08.2026 00:31 23,7 °C 22,1 °C 53 % 66 % 1014,0 hPa 0,0 l/m² 0,0 km/h (0 Bft) N 0 ° 0 min 0 W/m² 15,4 °C 22,1 °C 0,0 km/h (0 Bft)
16.08.2026 00:32 23,7 °C 22,1 °C 53 % 66 % 1013,9 hPa 0,0 l/m² 0,0 km/h (0 Bft) N 0 ° 0 min 0 W/m² 15,4 °C 22,1 °C 0,0 km/h (0 Bft)
16.08.2026 00:33 23,7 °C 21,9 °C 53 % 66 % 1013,9 hPa 0,0 l/m² 0,0 km/h (0 Bft) N 0 ° 0 min 0 W/m² 15,3 °C 21,9 °C 0,0 km/h (0 Bft)
16.08.2026 00:34 23,6 °C 21,8 °C 53 % 67 % 1013,9 hPa 0,0 l/m² 0,0 km/h (0 Bft) N 0 ° 0 min 0 W/m² 15,4 °C 21,8 °C 0,0 km/h (0 Bft)
16.08.2026 00:35 23,7 °C 21,8 °C 53 % 68 % 1013,9 hPa 0,0 l/m² 0,0 km/h (0 Bft) N 0 ° 0 min 0 W/m² 15,6 °C 21,8 °C 0,0 km/h (0 Bft)
16.08.2026 00:36 23,7 °C 21,7 °C 53 % 68 % 1014,0 hPa 0,0 l/m² 0,0 km/h (0 Bft) N 0 ° 0 min 0 W/m² 15,5 °C 21,7 °C 0,0 km/h (0 Bft)
16.08.2026 00:37 23,7 °C 21,7 °C 53 % 68 % 1013,9 hPa 0,0 l/m² 0,0 km/h (0 Bft) N 0 ° 0 min 0 W/m² 15,5 °C 21,7 °C 0,0 km/h (0 Bft)
16.08.2026 00:38 23,7 °C 21,6 °C 53 % 68 % 1013,9 hPa 0,0 l/m² 0,0 km/h (0 Bft) N 360 ° 0 min 0 W/m² 15,4 °C 21,6 °C 1,6 km/h (1 Bft)
16.08.2026 00:39 23,6 °C 21,6 °C 53 % 68 % 1014,0 hPa 0,0 l/m² 1,6 km/h (1 Bft) N 360 ° 0 min 0 W/m² 15,4 °C 21,6 °C 3,2 km/h (1 Bft)
16.08.2026 00:40 23,7 °C 21,6 °C 53 % 68 % 1014,0 hPa 0,0 l/m² 1,6 km/h (1 Bft) N 360 ° 0 min 0 W/m² 15,4 °C 21,6 °C 3,2 km/h (1 Bft)
16.08.2026 00:41 23,7 °C 21,4 °C 53 % 69 % 1014,0 hPa 0,0 l/m² 1,6 km/h (1 Bft) N 360 ° 0 min 0 W/m² 15,5 °C 21,4 °C 3,2 km/h (1 Bft)
16.08.2026 00:42 23,7 °C 21,4 °C 53 % 69 % 1014,0 hPa 0,0 l/m² 1,6 km/h (1 Bft) N 360 ° 0 min 0 W/m² 15,5 °C 21,4 °C 1,6 km/h (1 Bft)
16.08.2026 00:43 23,7 °C 21,3 °C 53 % 69 % 1014,0 hPa 0,0 l/m² 0,0 km/h (0 Bft) N 360 ° 0 min 0 W/m² 15,4 °C 21,3 °C 1,6 km/h (1 Bft)
16.08.2026 00:44 23,7 °C 21,2 °C 53 % 69 % 1013,9 hPa 0,0 l/m² 0,0 km/h (0 Bft) N 0 ° 0 min 0 W/m² 15,3 °C 21,2 °C 0,0 km/h (0 Bft)
16.08.2026 00:45 23,7 °C 21,2 °C 53 % 69 % 1014,0 hPa 0,0 l/m² 0,0 km/h (0 Bft) N 0 ° 0 min 0 W/m² 15,3 °C 21,2 °C 0,0 km/h (0 Bft)
16.08.2026 00:46 23,7 °C 21,2 °C 53 % 69 % 1014,0 hPa 0,0 l/m² 0,0 km/h (0 Bft) N 0 ° 0 min 0 W/m² 15,3 °C 21,2 °C 0,0 km/h (0 Bft)
16.08.2026 00:47 23,7 °C 21,2 °C 53 % 69 % 1014,0 hPa 0,0 l/m² 0,0 km/h (0 Bft) N 0 ° 0 min 0 W/m² 15,3 °C 21,2 °C 0,0 km/h (0 Bft)
16.08.2026 00:48 23,7 °C 21,1 °C 53 % 69 % 1014,0 hPa 0,0 l/m² 0,0 km/h (0 Bft) N 0 ° 0 min 0 W/m² 15,2 °C 21,1 °C 0,0 km/h (0 Bft)
16.08.2026 00:49 23,7 °C 21,1 °C 53 % 70 % 1014,0 hPa 0,0 l/m² 1,6 km/h (1 Bft) N 360 ° 0 min 0 W/m² 15,4 °C 21,1 °C 3,2 km/h (1 Bft)
16.08.2026 00:50 23,7 °C 20,9 °C 53 % 71 % 1014,0 hPa 0,0 l/m² 1,6 km/h (1 Bft) N 360 ° 0 min 0 W/m² 15,4 °C 20,9 °C 3,2 km/h (1 Bft)
16.08.2026 00:51 23,7 °C 20,8 °C 53 % 71 % 1014,0 hPa 0,0 l/m² 1,6 km/h (1 Bft) N 360 ° 0 min 0 W/m² 15,3 °C 20,8 °C 3,2 km/h (1 Bft)
16.08.2026 00:52 23,7 °C 20,8 °C 53 % 72 % 1014,0 hPa 0,0 l/m² 0,0 km/h (0 Bft) N 360 ° 0 min 0 W/m² 15,6 °C 20,8 °C 1,6 km/h (1 Bft)
16.08.2026 00:53 23,7 °C 20,8 °C 53 % 74 % 1014,0 hPa 0,0 l/m² 0,0 km/h (0 Bft) N 360 ° 0 min 0 W/m² 16,0 °C 20,8 °C 1,6 km/h (1 Bft)
16.08.2026 00:54 23,6 °C 20,7 °C 53 % 73 % 1014,1 hPa 0,0 l/m² 1,6 km/h (1 Bft) N 360 ° 0 min 0 W/m² 15,7 °C 20,7 °C 3,2 km/h (1 Bft)
16.08.2026 00:55 23,7 °C 20,7 °C 53 % 73 % 1014,1 hPa 0,0 l/m² 1,6 km/h (1 Bft) N 360 ° 0 min 0 W/m² 15,7 °C 20,7 °C 3,2 km/h (1 Bft)
16.08.2026 00:56 23,7 °C 20,7 °C 53 % 73 % 1014,1 hPa 0,0 l/m² 1,6 km/h (1 Bft) N-NW 337 ° 0 min 0 W/m² 15,7 °C 20,7 °C 3,2 km/h (1 Bft)
16.08.2026 00:57 23,7 °C 20,7 °C 53 % 72 % 1014,1 hPa 0,0 l/m² 1,6 km/h (1 Bft) N-NW 337 ° 0 min 0 W/m² 15,5 °C 20,7 °C 3,2 km/h (1 Bft)
16.08.2026 00:58 23,7 °C 20,8 °C 53 % 72 % 1014,1 hPa 0,0 l/m² 1,6 km/h (1 Bft) N-NW 337 ° 0 min 0 W/m² 15,6 °C 20,8 °C 3,2 km/h (1 Bft)
16.08.2026 00:59 23,6 °C 20,8 °C 53 % 71 % 1014,2 hPa 0,0 l/m² 1,6 km/h (1 Bft) N-NW 337 ° 0 min 0 W/m² 15,3 °C 20,8 °C 3,2 km/h (1 Bft)
16.08.2026 01:00 23,7 °C 20,9 °C 53 % 71 % 1014,2 hPa 0,0 l/m² 1,6 km/h (1 Bft) N-NW 337 ° 0 min 0 W/m² 15,4 °C 20,9 °C 1,6 km/h (1 Bft)
16.08.2026 01:01 23,7 °C 20,9 °C 53 % 71 % 1014,1 hPa 0,0 l/m² 0,0 km/h (0 Bft) N 0 ° 0 min 0 W/m² 15,4 °C 20,9 °C 0,0 km/h (0 Bft)
16.08.2026 01:02 23,6 °C 20,9 °C 53 % 71 % 1014,2 hPa 0,0 l/m² 0,0 km/h (0 Bft) N 0 ° 0 min 0 W/m² 15,4 °C 20,9 °C 0,0 km/h (0 Bft)
16.08.2026 01:03 23,7 °C 20,9 °C 53 % 70 % 1014,1 hPa 0,0 l/m² 0,0 km/h (0 Bft) N-NW 337 ° 0 min 0 W/m² 15,2 °C 20,9 °C 1,6 km/h (1 Bft)
16.08.2026 01:04 23,7 °C 20,9 °C 53 % 70 % 1014,1 hPa 0,0 l/m² 1,6 km/h (1 Bft) N-NW 337 ° 0 min 0 W/m² 15,2 °C 20,9 °C 1,6 km/h (1 Bft)
16.08.2026 01:05 23,7 °C 20,9 °C 53 % 70 % 1014,2 hPa 0,0 l/m² 1,6 km/h (1 Bft) N-NW 337 ° 0 min 0 W/m² 15,2 °C 20,9 °C 3,2 km/h (1 Bft)
16.08.2026 01:06 23,7 °C 20,9 °C 53 % 70 % 1014,1 hPa 0,0 l/m² 3,2 km/h (1 Bft) N-NW 337 ° 0 min 0 W/m² 15,2 °C 20,9 °C 3,2 km/h (1 Bft)
16.08.2026 01:07 23,6 °C 20,9 °C 53 % 70 % 1014,2 hPa 0,0 l/m² 1,6 km/h (1 Bft) N-NW 337 ° 0 min 0 W/m² 15,2 °C 20,9 °C 3,2 km/h (1 Bft)
16.08.2026 01:08 23,7 °C 20,9 °C 53 % 70 % 1014,2 hPa 0,0 l/m² 1,6 km/h (1 Bft) N-NW 337 ° 0 min 0 W/m² 15,2 °C 20,9 °C 3,2 km/h (1 Bft)
16.08.2026 01:09 23,6 °C 20,9 °C 53 % 70 % 1014,1 hPa 0,0 l/m² 1,6 km/h (1 Bft) N-NW 337 ° 0 min 0 W/m² 15,2 °C 20,9 °C 1,6 km/h (1 Bft)
16.08.2026 01:10 23,7 °C 20,9 °C 53 % 70 % 1014,1 hPa 0,0 l/m² 1,6 km/h (1 Bft) N-NW 337 ° 0 min 0 W/m² 15,2 °C 20,9 °C 1,6 km/h (1 Bft)
16.08.2026 01:11 23,7 °C 20,9 °C 53 % 70 % 1014,1 hPa 0,0 l/m² 1,6 km/h (1 Bft) N-NW 337 ° 0 min 0 W/m² 15,2 °C 20,9 °C 1,6 km/h (1 Bft)
16.08.2026 01:12 23,6 °C 20,9 °C 53 % 70 % 1014,1 hPa 0,0 l/m² 1,6 km/h (1 Bft) N-NW 337 ° 0 min 0 W/m² 15,2 °C 20,9 °C 3,2 km/h (1 Bft)
16.08.2026 01:13 23,7 °C 20,9 °C 53 % 70 % 1014,2 hPa 0,0 l/m² 3,2 km/h (1 Bft) NW 315 ° 0 min 0 W/m² 15,2 °C 20,9 °C 4,8 km/h (1 Bft)
16.08.2026 01:14 23,7 °C 20,9 °C 53 % 70 % 1014,1 hPa 0,0 l/m² 1,6 km/h (1 Bft) NW 315 ° 0 min 0 W/m² 15,2 °C 20,9 °C 3,2 km/h (1 Bft)
16.08.2026 01:15 23,7 °C 20,9 °C 53 % 70 % 1014,1 hPa 0,0 l/m² 3,2 km/h (1 Bft) NW 315 ° 0 min 0 W/m² 15,2 °C 20,9 °C 3,2 km/h (1 Bft)
16.08.2026 01:16 23,7 °C 21,0 °C 53 % 70 % 1014,1 hPa 0,0 l/m² 3,2 km/h (1 Bft) NW 315 ° 0 min 0 W/m² 15,3 °C 21,0 °C 3,2 km/h (1 Bft)
16.08.2026 01:17 23,7 °C 21,0 °C 53 % 70 % 1014,1 hPa 0,0 l/m² 3,2 km/h (1 Bft) NW 315 ° 0 min 0 W/m² 15,3 °C 21,0 °C 3,2 km/h (1 Bft)
16.08.2026 01:18 23,6 °C 21,0 °C 53 % 70 % 1014,1 hPa 0,0 l/m² 1,6 km/h (1 Bft) NW 315 ° 0 min 0 W/m² 15,3 °C 21,0 °C 3,2 km/h (1 Bft)
16.08.2026 01:19 23,6 °C 21,0 °C 53 % 70 % 1014,2 hPa 0,0 l/m² 3,2 km/h (1 Bft) NW 315 ° 0 min 0 W/m² 15,3 °C 21,0 °C 4,8 km/h (1 Bft)
16.08.2026 01:20 23,6 °C 21,1 °C 53 % 70 % 1014,1 hPa 0,0 l/m² 3,2 km/h (1 Bft) NW 315 ° 0 min 0 W/m² 15,4 °C 21,1 °C 3,2 km/h (1 Bft)
16.08.2026 01:21 23,7 °C 21,0 °C 53 % 70 % 1014,1 hPa 0,0 l/m² 1,6 km/h (1 Bft) NW 315 ° 0 min 0 W/m² 15,3 °C 21,0 °C 3,2 km/h (1 Bft)
16.08.2026 01:22 23,6 °C 20,9 °C 53 % 70 % 1014,1 hPa 0,0 l/m² 3,2 km/h (1 Bft) NW 315 ° 0 min 0 W/m² 15,2 °C 20,9 °C 4,8 km/h (1 Bft)
16.08.2026 01:23 23,6 °C 20,9 °C 53 % 70 % 1014,1 hPa 0,0 l/m² 3,2 km/h (1 Bft) NW 315 ° 0 min 0 W/m² 15,2 °C 20,9 °C 4,8 km/h (1 Bft)
16.08.2026 01:24 23,6 °C 20,9 °C 53 % 70 % 1014,1 hPa 0,0 l/m² 3,2 km/h (1 Bft) NW 315 ° 0 min 0 W/m² 15,2 °C 20,9 °C 3,2 km/h (1 Bft)
16.08.2026 01:25 23,7 °C 20,8 °C 53 % 71 % 1014,1 hPa 0,0 l/m² 3,2 km/h (1 Bft) NW 315 ° 0 min 0 W/m² 15,3 °C 20,8 °C 4,8 km/h (1 Bft)
16.08.2026 01:26 23,6 °C 20,7 °C 53 % 71 % 1014,1 hPa 0,0 l/m² 3,2 km/h (1 Bft) NW 315 ° 0 min 0 W/m² 15,2 °C 20,7 °C 4,8 km/h (1 Bft)
16.08.2026 01:27 23,6 °C 20,7 °C 53 % 71 % 1014,1 hPa 0,0 l/m² 1,6 km/h (1 Bft) NW 315 ° 0 min 0 W/m² 15,2 °C 20,7 °C 3,2 km/h (1 Bft)
16.08.2026 01:28 23,6 °C 20,6 °C 53 % 71 % 1014,1 hPa 0,0 l/m² 0,0 km/h (0 Bft) N 0 ° 0 min 0 W/m² 15,2 °C 20,6 °C 0,0 km/h (0 Bft)
16.08.2026 01:29 23,7 °C 20,4 °C 53 % 72 % 1014,1 hPa 0,0 l/m² 0,0 km/h (0 Bft) N 0 ° 0 min 0 W/m² 15,2 °C 20,4 °C 0,0 km/h (0 Bft)
16.08.2026 01:30 23,6 °C 20,3 °C 53 % 72 % 1014,1 hPa 0,0 l/m² 1,6 km/h (1 Bft) NW 315 ° 0 min 0 W/m² 15,1 °C 20,3 °C 3,2 km/h (1 Bft)
16.08.2026 01:31 23,6 °C 20,2 °C 53 % 73 % 1014,0 hPa 0,0 l/m² 3,2 km/h (1 Bft) NW 315 ° 0 min 0 W/m² 15,2 °C 20,2 °C 4,8 km/h (1 Bft)
16.08.2026 01:32 23,7 °C 20,1 °C 53 % 74 % 1014,0 hPa 0,0 l/m² 3,2 km/h (1 Bft) S 180 ° 0 min 0 W/m² 15,3 °C 20,1 °C 4,8 km/h (1 Bft)
16.08.2026 01:33 23,6 °C 19,9 °C 53 % 75 % 1014,1 hPa 0,0 l/m² 3,2 km/h (1 Bft) S 180 ° 0 min 0 W/m² 15,3 °C 19,9 °C 3,2 km/h (1 Bft)
16.08.2026 01:34 23,6 °C 19,8 °C 53 % 76 % 1014,1 hPa 0,0 l/m² 3,2 km/h (1 Bft) S 180 ° 0 min 0 W/m² 15,4 °C 19,8 °C 3,2 km/h (1 Bft)
16.08.2026 01:35 23,7 °C 19,8 °C 53 % 76 % 1014,1 hPa 0,0 l/m² 1,6 km/h (1 Bft) S 180 ° 0 min 0 W/m² 15,4 °C 19,8 °C 3,2 km/h (1 Bft)
16.08.2026 01:36 23,7 °C 19,8 °C 53 % 77 % 1014,1 hPa 0,0 l/m² 1,6 km/h (1 Bft) S 180 ° 0 min 0 W/m² 15,6 °C 19,8 °C 3,2 km/h (1 Bft)
16.08.2026 01:37 23,7 °C 19,7 °C 53 % 77 % 1014,1 hPa 0,0 l/m² 1,6 km/h (1 Bft) S 180 ° 0 min 0 W/m² 15,5 °C 19,7 °C 3,2 km/h (1 Bft)
16.08.2026 01:38 23,7 °C 19,7 °C 53 % 77 % 1014,2 hPa 0,0 l/m² 1,6 km/h (1 Bft) S 180 ° 0 min 0 W/m² 15,5 °C 19,7 °C 3,2 km/h (1 Bft)
16.08.2026 01:39 23,7 °C 19,7 °C 53 % 77 % 1014,2 hPa 0,0 l/m² 1,6 km/h (1 Bft) S 180 ° 0 min 0 W/m² 15,5 °C 19,7 °C 3,2 km/h (1 Bft)
16.08.2026 01:40 23,6 °C 19,8 °C 53 % 77 % 1014,2 hPa 0,0 l/m² 1,6 km/h (1 Bft) S 180 ° 0 min 0 W/m² 15,6 °C 19,8 °C 1,6 km/h (1 Bft)
16.08.2026 01:41 23,7 °C 19,7 °C 53 % 77 % 1014,2 hPa 0,0 l/m² 0,0 km/h (0 Bft) S 180 ° 0 min 0 W/m² 15,5 °C 19,7 °C 1,6 km/h (1 Bft)
16.08.2026 01:42 23,6 °C 19,7 °C 53 % 77 % 1014,2 hPa 0,0 l/m² 0,0 km/h (0 Bft) S 180 ° 0 min 0 W/m² 15,5 °C 19,7 °C 1,6 km/h (1 Bft)
16.08.2026 01:43 23,7 °C 19,7 °C 53 % 77 % 1014,2 hPa 0,0 l/m² 1,6 km/h (1 Bft) S 180 ° 0 min 0 W/m² 15,5 °C 19,7 °C 1,6 km/h (1 Bft)
16.08.2026 01:44 23,7 °C 19,7 °C 53 % 77 % 1014,2 hPa 0,0 l/m² 1,6 km/h (1 Bft) S 180 ° 0 min 0 W/m² 15,5 °C 19,7 °C 3,2 km/h (1 Bft)
16.08.2026 01:45 23,7 °C 19,7 °C 53 % 77 % 1014,3 hPa 0,0 l/m² 3,2 km/h (1 Bft) S 180 ° 0 min 0 W/m² 15,5 °C 19,7 °C 3,2 km/h (1 Bft)
16.08.2026 01:46 23,6 °C 19,8 °C 53 % 76 % 1014,3 hPa 0,0 l/m² 3,2 km/h (1 Bft) S 180 ° 0 min 0 W/m² 15,4 °C 19,8 °C 4,8 km/h (1 Bft)
16.08.2026 01:47 23,6 °C 19,9 °C 53 % 76 % 1014,3 hPa 0,0 l/m² 3,2 km/h (1 Bft) S 180 ° 0 min 0 W/m² 15,5 °C 19,9 °C 3,2 km/h (1 Bft)
16.08.2026 01:48 23,7 °C 19,9 °C 53 % 75 % 1014,3 hPa 0,0 l/m² 1,6 km/h (1 Bft) S 180 ° 0 min 0 W/m² 15,3 °C 19,9 °C 1,6 km/h (1 Bft)
16.08.2026 01:49 23,7 °C 20,0 °C 53 % 75 % 1014,3 hPa 0,0 l/m² 0,0 km/h (0 Bft) S 180 ° 0 min 0 W/m² 15,4 °C 20,0 °C 1,6 km/h (1 Bft)
16.08.2026 01:50 23,7 °C 20,1 °C 53 % 75 % 1014,3 hPa 0,0 l/m² 1,6 km/h (1 Bft) S 180 ° 0 min 0 W/m² 15,5 °C 20,1 °C 3,2 km/h (1 Bft)
16.08.2026 01:51 23,6 °C 20,1 °C 53 % 75 % 1014,3 hPa 0,0 l/m² 3,2 km/h (1 Bft) S-SW 202 ° 0 min 0 W/m² 15,5 °C 20,1 °C 4,8 km/h (1 Bft)
16.08.2026 01:52 23,6 °C 20,1 °C 53 % 74 % 1014,3 hPa 0,0 l/m² 3,2 km/h (1 Bft) S-SW 202 ° 0 min 0 W/m² 15,3 °C 20,1 °C 3,2 km/h (1 Bft)
16.08.2026 01:53 23,7 °C 20,1 °C 53 % 73 % 1014,2 hPa 0,0 l/m² 3,2 km/h (1 Bft) S-SW 202 ° 0 min 0 W/m² 15,1 °C 20,1 °C 4,8 km/h (1 Bft)
16.08.2026 01:54 23,6 °C 20,2 °C 53 % 73 % 1014,2 hPa 0,0 l/m² 3,2 km/h (1 Bft) S-SW 202 ° 0 min 0 W/m² 15,2 °C 20,2 °C 3,2 km/h (1 Bft)
16.08.2026 01:55 23,6 °C 20,1 °C 53 % 73 % 1014,2 hPa 0,0 l/m² 1,6 km/h (1 Bft) S-SW 202 ° 0 min 0 W/m² 15,1 °C 20,1 °C 3,2 km/h (1 Bft)
16.08.2026 01:56 23,7 °C 20,1 °C 53 % 73 % 1014,2 hPa 0,0 l/m² 3,2 km/h (1 Bft) S-SW 202 ° 0 min 0 W/m² 15,1 °C 20,1 °C 3,2 km/h (1 Bft)
16.08.2026 01:57 23,7 °C 20,1 °C 53 % 73 % 1014,1 hPa 0,0 l/m² 3,2 km/h (1 Bft) S-SW 202 ° 0 min 0 W/m² 15,1 °C 20,1 °C 4,8 km/h (1 Bft)
16.08.2026 01:58 23,6 °C 20,1 °C 53 % 73 % 1014,2 hPa 0,0 l/m² 3,2 km/h (1 Bft) W-NW 292 ° 0 min 0 W/m² 15,1 °C 20,1 °C 4,8 km/h (1 Bft)
16.08.2026 01:59 23,7 °C 20,1 °C 53 % 73 % 1014,2 hPa 0,0 l/m² 3,2 km/h (1 Bft) W-NW 292 ° 0 min 0 W/m² 15,1 °C 20,1 °C 3,2 km/h (1 Bft)
16.08.2026 02:00 23,7 °C 20,1 °C 53 % 73 % 1014,2 hPa 0,0 l/m² 3,2 km/h (1 Bft) NW 315 ° 0 min 0 W/m² 15,1 °C 20,1 °C 6,4 km/h (2 Bft)
16.08.2026 02:01 23,6 °C 20,1 °C 53 % 73 % 1014,1 hPa 0,0 l/m² 3,2 km/h (1 Bft) NW 315 ° 0 min 0 W/m² 15,1 °C 20,1 °C 4,8 km/h (1 Bft)
16.08.2026 02:02 23,7 °C 20,1 °C 53 % 73 % 1014,2 hPa 0,0 l/m² 3,2 km/h (1 Bft) NW 315 ° 0 min 0 W/m² 15,1 °C 20,1 °C 6,4 km/h (2 Bft)
16.08.2026 02:03 23,6 °C 20,1 °C 53 % 73 % 1014,2 hPa 0,0 l/m² 1,6 km/h (1 Bft) NW 315 ° 0 min 0 W/m² 15,1 °C 20,1 °C 3,2 km/h (1 Bft)
16.08.2026 02:04 23,7 °C 20,1 °C 53 % 74 % 1014,2 hPa 0,0 l/m² 1,6 km/h (1 Bft) NW 315 ° 0 min 0 W/m² 15,3 °C 20,1 °C 3,2 km/h (1 Bft)
16.08.2026 02:05 23,7 °C 20,1 °C 53 % 74 % 1014,2 hPa 0,0 l/m² 0,0 km/h (0 Bft) NW 315 ° 0 min 0 W/m² 15,3 °C 20,1 °C 1,6 km/h (1 Bft)
16.08.2026 02:06 23,7 °C 20,1 °C 53 % 74 % 1014,2 hPa 0,0 l/m² 1,6 km/h (1 Bft) NW 315 ° 0 min 0 W/m² 15,3 °C 20,1 °C 1,6 km/h (1 Bft)
16.08.2026 02:07 23,6 °C 20,0 °C 53 % 74 % 1014,1 hPa 0,0 l/m² 1,6 km/h (1 Bft) NW 315 ° 0 min 0 W/m² 15,2 °C 20,0 °C 3,2 km/h (1 Bft)
16.08.2026 02:08 23,7 °C 19,9 °C 53 % 74 % 1014,2 hPa 0,0 l/m² 1,6 km/h (1 Bft) NW 315 ° 0 min 0 W/m² 15,1 °C 19,9 °C 1,6 km/h (1 Bft)
16.08.2026 02:09 23,6 °C 19,9 °C 53 % 75 % 1014,1 hPa 0,0 l/m² 3,2 km/h (1 Bft) W 270 ° 0 min 0 W/m² 15,3 °C 19,9 °C 3,2 km/h (1 Bft)
16.08.2026 02:10 23,6 °C 19,8 °C 53 % 75 % 1014,1 hPa 0,0 l/m² 3,2 km/h (1 Bft) W-SW 247 ° 0 min 0 W/m² 15,2 °C 19,8 °C 4,8 km/h (1 Bft)
16.08.2026 02:11 23,6 °C 19,7 °C 53 % 75 % 1014,1 hPa 0,0 l/m² 3,2 km/h (1 Bft) W-SW 247 ° 0 min 0 W/m² 15,1 °C 19,7 °C 4,8 km/h (1 Bft)
16.08.2026 02:12 23,6 °C 19,6 °C 53 % 76 % 1014,1 hPa 0,0 l/m² 4,8 km/h (1 Bft) SW 225 ° 0 min 0 W/m² 15,2 °C 19,6 °C 4,8 km/h (1 Bft)
16.08.2026 02:13 23,6 °C 19,5 °C 53 % 76 % 1014,1 hPa 0,0 l/m² 3,2 km/h (1 Bft) SW 225 ° 0 min 0 W/m² 15,2 °C 19,5 °C 4,8 km/h (1 Bft)
16.08.2026 02:14 23,6 °C 19,3 °C 53 % 76 % 1014,1 hPa 0,0 l/m² 1,6 km/h (1 Bft) SW 225 ° 0 min 0 W/m² 15,0 °C 19,3 °C 3,2 km/h (1 Bft)
16.08.2026 02:15 23,7 °C 19,3 °C 53 % 77 % 1014,1 hPa 0,0 l/m² 1,6 km/h (1 Bft) SW 225 ° 0 min 0 W/m² 15,2 °C 19,3 °C 3,2 km/h (1 Bft)
16.08.2026 02:16 23,6 °C 19,2 °C 53 % 78 % 1014,1 hPa 0,0 l/m² 1,6 km/h (1 Bft) SW 225 ° 0 min 0 W/m² 15,3 °C 19,2 °C 1,6 km/h (1 Bft)
16.08.2026 02:17 23,6 °C 19,2 °C 53 % 78 % 1014,1 hPa 0,0 l/m² 1,6 km/h (1 Bft) SW 225 ° 0 min 0 W/m² 15,3 °C 19,2 °C 3,2 km/h (1 Bft)
16.08.2026 02:18 23,6 °C 19,2 °C 53 % 78 % 1014,2 hPa 0,0 l/m² 1,6 km/h (1 Bft) SW 225 ° 0 min 0 W/m² 15,3 °C 19,2 °C 3,2 km/h (1 Bft)
16.08.2026 02:19 23,6 °C 19,2 °C 53 % 78 % 1014,1 hPa 0,0 l/m² 1,6 km/h (1 Bft) SW 225 ° 0 min 0 W/m² 15,3 °C 19,2 °C 3,2 km/h (1 Bft)
16.08.2026 02:20 23,6 °C 19,1 °C 53 % 78 % 1014,2 hPa 0,0 l/m² 1,6 km/h (1 Bft) SW 225 ° 0 min 0 W/m² 15,2 °C 19,1 °C 3,2 km/h (1 Bft)
16.08.2026 02:21 23,6 °C 19,1 °C 53 % 78 % 1014,2 hPa 0,0 l/m² 1,6 km/h (1 Bft) SW 225 ° 0 min 0 W/m² 15,2 °C 19,1 °C 1,6 km/h (1 Bft)
16.08.2026 02:22 23,6 °C 19,1 °C 53 % 78 % 1014,1 hPa 0,0 l/m² 1,6 km/h (1 Bft) SW 225 ° 0 min 0 W/m² 15,2 °C 19,1 °C 1,6 km/h (1 Bft)
16.08.2026 02:23 23,7 °C 19,1 °C 53 % 78 % 1014,2 hPa 0,0 l/m² 0,0 km/h (0 Bft) SW 225 ° 0 min 0 W/m² 15,2 °C 19,1 °C 1,6 km/h (1 Bft)
16.08.2026 02:24 23,6 °C 19,1 °C 53 % 78 % 1014,2 hPa 0,0 l/m² 0,0 km/h (0 Bft) N 0 ° 0 min 0 W/m² 15,2 °C 19,1 °C 0,0 km/h (0 Bft)
16.08.2026 02:25 23,6 °C 19,1 °C 53 % 78 % 1014,2 hPa 0,0 l/m² 1,6 km/h (1 Bft) SW 225 ° 0 min 0 W/m² 15,2 °C 19,1 °C 3,2 km/h (1 Bft)
16.08.2026 02:26 23,6 °C 19,1 °C 53 % 78 % 1014,1 hPa 0,0 l/m² 1,6 km/h (1 Bft) SW 225 ° 0 min 0 W/m² 15,2 °C 19,1 °C 3,2 km/h (1 Bft)
16.08.2026 02:27 23,6 °C 19,1 °C 53 % 78 % 1014,1 hPa 0,0 l/m² 1,6 km/h (1 Bft) SW 225 ° 0 min 0 W/m² 15,2 °C 19,1 °C 3,2 km/h (1 Bft)
16.08.2026 02:28 23,6 °C 19,1 °C 53 % 78 % 1014,2 hPa 0,0 l/m² 4,8 km/h (1 Bft) W-NW 292 ° 0 min 0 W/m² 15,2 °C 19,1 °C 6,4 km/h (2 Bft)
16.08.2026 02:29 23,6 °C 19,1 °C 53 % 78 % 1014,2 hPa 0,0 l/m² 4,8 km/h (1 Bft) W-NW 292 ° 0 min 0 W/m² 15,2 °C 19,1 °C 6,4 km/h (2 Bft)
16.08.2026 02:30 23,6 °C 19,2 °C 53 % 78 % 1014,1 hPa 0,0 l/m² 6,4 km/h (2 Bft) N-NW 337 ° 0 min 0 W/m² 15,3 °C 19,2 °C 8,0 km/h (2 Bft)
16.08.2026 02:31 23,6 °C 19,2 °C 53 % 77 % 1014,2 hPa 0,0 l/m² 4,8 km/h (1 Bft) NW 315 ° 0 min 0 W/m² 15,1 °C 19,2 °C 6,4 km/h (2 Bft)
16.08.2026 02:32 23,6 °C 19,2 °C 53 % 77 % 1014,2 hPa 0,0 l/m² 3,2 km/h (1 Bft) NW 315 ° 0 min 0 W/m² 15,1 °C 19,2 °C 6,4 km/h (2 Bft)
16.08.2026 02:33 23,6 °C 19,3 °C 53 % 77 % 1014,2 hPa 0,0 l/m² 3,2 km/h (1 Bft) NW 315 ° 0 min 0 W/m² 15,2 °C 19,3 °C 4,8 km/h (1 Bft)
16.08.2026 02:34 23,6 °C 19,3 °C 53 % 76 % 1014,2 hPa 0,0 l/m² 3,2 km/h (1 Bft) W-NW 292 ° 0 min 0 W/m² 15,0 °C 19,3 °C 6,4 km/h (2 Bft)
16.08.2026 02:35 23,6 °C 19,4 °C 53 % 76 % 1014,1 hPa 0,0 l/m² 1,6 km/h (1 Bft) W 270 ° 0 min 0 W/m² 15,1 °C 19,4 °C 3,2 km/h (1 Bft)
16.08.2026 02:36 23,6 °C 19,4 °C 53 % 76 % 1014,2 hPa 0,0 l/m² 1,6 km/h (1 Bft) W 270 ° 0 min 0 W/m² 15,1 °C 19,4 °C 3,2 km/h (1 Bft)
16.08.2026 02:37 23,6 °C 19,4 °C 53 % 76 % 1014,2 hPa 0,0 l/m² 3,2 km/h (1 Bft) W 270 ° 0 min 0 W/m² 15,1 °C 19,4 °C 4,8 km/h (1 Bft)
16.08.2026 02:38 23,6 °C 19,5 °C 53 % 76 % 1014,2 hPa 0,0 l/m² 3,2 km/h (1 Bft) W-NW 292 ° 0 min 0 W/m² 15,2 °C 19,5 °C 4,8 km/h (1 Bft)
16.08.2026 02:39 23,6 °C 19,5 °C 53 % 76 % 1014,3 hPa 0,0 l/m² 4,8 km/h (1 Bft) W-NW 292 ° 0 min 0 W/m² 15,2 °C 19,5 °C 8,0 km/h (2 Bft)
16.08.2026 02:40 23,6 °C 19,6 °C 53 % 76 % 1014,3 hPa 0,0 l/m² 3,2 km/h (1 Bft) W-NW 292 ° 0 min 0 W/m² 15,2 °C 19,6 °C 8,0 km/h (2 Bft)
16.08.2026 02:41 23,6 °C 19,6 °C 53 % 76 % 1014,2 hPa 0,0 l/m² 3,2 km/h (1 Bft) NW 315 ° 0 min 0 W/m² 15,2 °C 19,6 °C 6,4 km/h (2 Bft)
16.08.2026 02:42 23,6 °C 19,7 °C 53 % 76 % 1014,1 hPa 0,0 l/m² 1,6 km/h (1 Bft) NW 315 ° 0 min 0 W/m² 15,3 °C 19,7 °C 3,2 km/h (1 Bft)
16.08.2026 02:43 23,6 °C 19,8 °C 53 % 76 % 1014,1 hPa 0,0 l/m² 1,6 km/h (1 Bft) NW 315 ° 0 min 0 W/m² 15,4 °C 19,8 °C 3,2 km/h (1 Bft)
16.08.2026 02:44 23,6 °C 19,8 °C 53 % 75 % 1014,1 hPa 0,0 l/m² 1,6 km/h (1 Bft) NW 315 ° 0 min 0 W/m² 15,2 °C 19,8 °C 3,2 km/h (1 Bft)
16.08.2026 02:45 23,6 °C 19,8 °C 53 % 75 % 1014,1 hPa 0,0 l/m² 3,2 km/h (1 Bft) NW 315 ° 0 min 0 W/m² 15,2 °C 19,8 °C 4,8 km/h (1 Bft)
16.08.2026 02:46 23,6 °C 19,9 °C 53 % 75 % 1014,1 hPa 0,0 l/m² 4,8 km/h (1 Bft) NW 315 ° 0 min 0 W/m² 15,3 °C 19,9 °C 4,8 km/h (1 Bft)
16.08.2026 02:47 23,6 °C 19,9 °C 54 % 75 % 1014,1 hPa 0,0 l/m² 4,8 km/h (1 Bft) NW 315 ° 0 min 0 W/m² 15,3 °C 19,9 °C 9,7 km/h (2 Bft)
16.08.2026 02:48 23,6 °C 19,9 °C 53 % 75 % 1014,2 hPa 0,0 l/m² 3,2 km/h (1 Bft) W-NW 292 ° 0 min 0 W/m² 15,3 °C 19,9 °C 9,7 km/h (2 Bft)
16.08.2026 02:49 23,6 °C 19,9 °C 53 % 75 % 1014,2 hPa 0,0 l/m² 6,4 km/h (2 Bft) NW 315 ° 0 min 0 W/m² 15,3 °C 19,9 °C 8,0 km/h (2 Bft)
16.08.2026 02:50 23,6 °C 19,9 °C 53 % 75 % 1014,1 hPa 0,0 l/m² 4,8 km/h (1 Bft) W-NW 292 ° 0 min 0 W/m² 15,3 °C 19,9 °C 6,4 km/h (2 Bft)
16.08.2026 02:51 23,6 °C 19,9 °C 53 % 75 % 1014,1 hPa 0,0 l/m² 1,6 km/h (1 Bft) W 270 ° 0 min 0 W/m² 15,3 °C 19,9 °C 6,4 km/h (2 Bft)
16.08.2026 02:52 23,6 °C 19,9 °C 53 % 75 % 1014,1 hPa 0,0 l/m² 3,2 km/h (1 Bft) W 270 ° 0 min 0 W/m² 15,3 °C 19,9 °C 6,4 km/h (2 Bft)
16.08.2026 02:53 23,6 °C 19,9 °C 53 % 75 % 1014,0 hPa 0,0 l/m² 3,2 km/h (1 Bft) W 270 ° 0 min 0 W/m² 15,3 °C 19,9 °C 4,8 km/h (1 Bft)
16.08.2026 02:54 23,6 °C 19,9 °C 54 % 75 % 1014,1 hPa 0,0 l/m² 4,8 km/h (1 Bft) W 270 ° 0 min 0 W/m² 15,3 °C 19,9 °C 6,4 km/h (2 Bft)
16.08.2026 02:55 23,6 °C 19,9 °C 53 % 75 % 1014,1 hPa 0,0 l/m² 4,8 km/h (1 Bft) W-NW 292 ° 0 min 0 W/m² 15,3 °C 19,9 °C 6,4 km/h (2 Bft)
16.08.2026 02:56 23,6 °C 19,9 °C 53 % 75 % 1014,1 hPa 0,0 l/m² 4,8 km/h (1 Bft) NW 315 ° 0 min 0 W/m² 15,3 °C 19,9 °C 9,7 km/h (2 Bft)
16.08.2026 02:57 23,6 °C 20,0 °C 53 % 75 % 1014,1 hPa 0,0 l/m² 3,2 km/h (1 Bft) W-NW 292 ° 0 min 0 W/m² 15,4 °C 20,0 °C 9,7 km/h (2 Bft)
16.08.2026 02:58 23,6 °C 19,9 °C 54 % 75 % 1014,1 hPa 0,0 l/m² 3,2 km/h (1 Bft) W-NW 292 ° 0 min 0 W/m² 15,3 °C 19,9 °C 4,8 km/h (1 Bft)
16.08.2026 02:59 23,6 °C 19,9 °C 53 % 74 % 1014,1 hPa 0,0 l/m² 4,8 km/h (1 Bft) NW 315 ° 0 min 0 W/m² 15,1 °C 19,9 °C 8,0 km/h (2 Bft)
16.08.2026 03:00 23,6 °C 19,9 °C 53 % 74 % 1014,1 hPa 0,0 l/m² 4,8 km/h (1 Bft) NW 315 ° 0 min 0 W/m² 15,1 °C 19,9 °C 6,4 km/h (2 Bft)
16.08.2026 03:01 23,6 °C 19,9 °C 54 % 74 % 1014,1 hPa 0,0 l/m² 4,8 km/h (1 Bft) W-NW 292 ° 0 min 0 W/m² 15,1 °C 19,9 °C 6,4 km/h (2 Bft)
16.08.2026 03:02 23,6 °C 19,9 °C 54 % 74 % 1014,0 hPa 0,0 l/m² 4,8 km/h (1 Bft) NW 315 ° 0 min 0 W/m² 15,1 °C 19,9 °C 6,4 km/h (2 Bft)
16.08.2026 03:03 23,6 °C 19,9 °C 54 % 74 % 1014,1 hPa 0,0 l/m² 4,8 km/h (1 Bft) NW 315 ° 0 min 0 W/m² 15,1 °C 19,9 °C 4,8 km/h (1 Bft)
16.08.2026 03:04 23,6 °C 19,9 °C 54 % 74 % 1014,0 hPa 0,0 l/m² 4,8 km/h (1 Bft) NW 315 ° 0 min 0 W/m² 15,1 °C 19,9 °C 8,0 km/h (2 Bft)
16.08.2026 03:05 23,6 °C 19,9 °C 54 % 75 % 1014,1 hPa 0,0 l/m² 6,4 km/h (2 Bft) NW 315 ° 0 min 0 W/m² 15,3 °C 19,9 °C 9,7 km/h (2 Bft)
16.08.2026 03:06 23,6 °C 19,9 °C 54 % 75 % 1014,1 hPa 0,0 l/m² 6,4 km/h (2 Bft) NW 315 ° 0 min 0 W/m² 15,3 °C 19,9 °C 12,9 km/h (3 Bft)
16.08.2026 03:07 23,6 °C 19,9 °C 54 % 75 % 1014,1 hPa 0,0 l/m² 6,4 km/h (2 Bft) N-NW 337 ° 0 min 0 W/m² 15,3 °C 19,9 °C 8,0 km/h (2 Bft)
16.08.2026 03:08 23,6 °C 19,9 °C 54 % 75 % 1014,0 hPa 0,0 l/m² 4,8 km/h (1 Bft) NW 315 ° 0 min 0 W/m² 15,3 °C 19,9 °C 6,4 km/h (2 Bft)
16.08.2026 03:09 23,6 °C 19,9 °C 54 % 75 % 1014,1 hPa 0,0 l/m² 6,4 km/h (2 Bft) W-NW 292 ° 0 min 0 W/m² 15,3 °C 19,9 °C 8,0 km/h (2 Bft)
16.08.2026 03:10 23,6 °C 19,9 °C 54 % 75 % 1014,0 hPa 0,0 l/m² 6,4 km/h (2 Bft) NW 315 ° 0 min 0 W/m² 15,3 °C 19,9 °C 8,0 km/h (2 Bft)
16.08.2026 03:11 23,6 °C 19,9 °C 54 % 75 % 1014,0 hPa 0,0 l/m² 6,4 km/h (2 Bft) NW 315 ° 0 min 0 W/m² 15,3 °C 19,9 °C 8,0 km/h (2 Bft)
16.08.2026 03:12 23,6 °C 19,9 °C 54 % 74 % 1014,0 hPa 0,0 l/m² 4,8 km/h (1 Bft) NW 315 ° 0 min 0 W/m² 15,1 °C 19,9 °C 6,4 km/h (2 Bft)
16.08.2026 03:13 23,6 °C 19,9 °C 54 % 74 % 1014,0 hPa 0,0 l/m² 4,8 km/h (1 Bft) NW 315 ° 0 min 0 W/m² 15,1 °C 19,9 °C 6,4 km/h (2 Bft)
16.08.2026 03:14 23,6 °C 19,9 °C 54 % 75 % 1014,0 hPa 0,0 l/m² 6,4 km/h (2 Bft) N-NW 337 ° 0 min 0 W/m² 15,3 °C 19,9 °C 8,0 km/h (2 Bft)
16.08.2026 03:15 23,6 °C 19,9 °C 54 % 75 % 1014,1 hPa 0,0 l/m² 6,4 km/h (2 Bft) NW 315 ° 0 min 0 W/m² 15,3 °C 19,9 °C 9,7 km/h (2 Bft)
16.08.2026 03:16 23,6 °C 19,9 °C 54 % 75 % 1014,1 hPa 0,0 l/m² 3,2 km/h (1 Bft) NW 315 ° 0 min 0 W/m² 15,3 °C 19,9 °C 6,4 km/h (2 Bft)
16.08.2026 03:17 23,6 °C 19,9 °C 54 % 75 % 1014,0 hPa 0,0 l/m² 3,2 km/h (1 Bft) W-NW 292 ° 0 min 0 W/m² 15,3 °C 19,9 °C 4,8 km/h (1 Bft)
16.08.2026 03:18 23,6 °C 19,8 °C 54 % 75 % 1014,0 hPa 0,0 l/m² 1,6 km/h (1 Bft) W-NW 292 ° 0 min 0 W/m² 15,2 °C 19,8 °C 3,2 km/h (1 Bft)
16.08.2026 03:19 23,6 °C 19,8 °C 54 % 75 % 1014,0 hPa 0,0 l/m² 1,6 km/h (1 Bft) NW 315 ° 0 min 0 W/m² 15,2 °C 19,8 °C 4,8 km/h (1 Bft)
16.08.2026 03:20 23,6 °C 19,8 °C 54 % 75 % 1014,0 hPa 0,0 l/m² 4,8 km/h (1 Bft) NW 315 ° 0 min 0 W/m² 15,2 °C 19,8 °C 6,4 km/h (2 Bft)
16.08.2026 03:21 23,6 °C 19,8 °C 54 % 75 % 1014,0 hPa 0,0 l/m² 4,8 km/h (1 Bft) NW 315 ° 0 min 0 W/m² 15,2 °C 19,8 °C 8,0 km/h (2 Bft)
16.08.2026 03:22 23,6 °C 19,9 °C 54 % 75 % 1014,0 hPa 0,0 l/m² 3,2 km/h (1 Bft) NW 315 ° 0 min 0 W/m² 15,3 °C 19,9 °C 6,4 km/h (2 Bft)
16.08.2026 03:23 23,6 °C 19,8 °C 54 % 75 % 1014,0 hPa 0,0 l/m² 4,8 km/h (1 Bft) NW 315 ° 0 min 0 W/m² 15,2 °C 19,8 °C 6,4 km/h (2 Bft)
16.08.2026 03:24 23,6 °C 19,8 °C 54 % 75 % 1014,0 hPa 0,0 l/m² 4,8 km/h (1 Bft) W-NW 292 ° 0 min 0 W/m² 15,2 °C 19,8 °C 8,0 km/h (2 Bft)
16.08.2026 03:25 23,6 °C 19,9 °C 54 % 75 % 1014,0 hPa 0,0 l/m² 4,8 km/h (1 Bft) W-NW 292 ° 0 min 0 W/m² 15,3 °C 19,9 °C 6,4 km/h (2 Bft)
16.08.2026 03:26 23,6 °C 19,8 °C 54 % 75 % 1014,0 hPa 0,0 l/m² 6,4 km/h (2 Bft) N-NW 337 ° 0 min 0 W/m² 15,2 °C 19,8 °C 11,3 km/h (2 Bft)
16.08.2026 03:27 23,6 °C 19,8 °C 54 % 75 % 1013,9 hPa 0,0 l/m² 4,8 km/h (1 Bft) NW 315 ° 0 min 0 W/m² 15,2 °C 19,8 °C 8,0 km/h (2 Bft)
16.08.2026 03:28 23,6 °C 19,8 °C 54 % 75 % 1014,0 hPa 0,0 l/m² 4,8 km/h (1 Bft) W-NW 292 ° 0 min 0 W/m² 15,2 °C 19,8 °C 8,0 km/h (2 Bft)
16.08.2026 03:29 23,6 °C 19,8 °C 54 % 75 % 1014,0 hPa 0,0 l/m² 4,8 km/h (1 Bft) N-NW 337 ° 0 min 0 W/m² 15,2 °C 19,8 °C 6,4 km/h (2 Bft)
16.08.2026 03:30 23,6 °C 19,8 °C 54 % 75 % 1013,9 hPa 0,0 l/m² 4,8 km/h (1 Bft) NW 315 ° 0 min 0 W/m² 15,2 °C 19,8 °C 8,0 km/h (2 Bft)
16.08.2026 03:31 23,6 °C 19,8 °C 54 % 75 % 1013,9 hPa 0,0 l/m² 4,8 km/h (1 Bft) NW 315 ° 0 min 0 W/m² 15,2 °C 19,8 °C 6,4 km/h (2 Bft)
16.08.2026 03:32 23,6 °C 19,8 °C 54 % 75 % 1013,9 hPa 0,0 l/m² 6,4 km/h (2 Bft) NW 315 ° 0 min 0 W/m² 15,2 °C 19,8 °C 9,7 km/h (2 Bft)
16.08.2026 03:33 23,6 °C 19,8 °C 54 % 75 % 1013,9 hPa 0,0 l/m² 4,8 km/h (1 Bft) W-NW 292 ° 0 min 0 W/m² 15,2 °C 19,8 °C 6,4 km/h (2 Bft)
16.08.2026 03:34 23,6 °C 19,8 °C 54 % 75 % 1014,0 hPa 0,0 l/m² 6,4 km/h (2 Bft) NW 315 ° 0 min 0 W/m² 15,2 °C 19,8 °C 11,3 km/h (2 Bft)
16.08.2026 03:35 23,6 °C 19,8 °C 54 % 75 % 1013,9 hPa 0,0 l/m² 4,8 km/h (1 Bft) N-NW 337 ° 0 min 0 W/m² 15,2 °C 19,8 °C 8,0 km/h (2 Bft)
16.08.2026 03:36 23,6 °C 19,8 °C 54 % 75 % 1013,9 hPa 0,0 l/m² 4,8 km/h (1 Bft) NW 315 ° 0 min 0 W/m² 15,2 °C 19,8 °C 6,4 km/h (2 Bft)
16.08.2026 03:37 23,6 °C 19,8 °C 54 % 75 % 1013,9 hPa 0,0 l/m² 4,8 km/h (1 Bft) N-NW 337 ° 0 min 0 W/m² 15,2 °C 19,8 °C 8,0 km/h (2 Bft)
16.08.2026 03:38 23,6 °C 19,8 °C 54 % 76 % 1013,9 hPa 0,0 l/m² 3,2 km/h (1 Bft) W-NW 292 ° 0 min 0 W/m² 15,4 °C 19,8 °C 6,4 km/h (2 Bft)
16.08.2026 03:39 23,6 °C 19,7 °C 54 % 76 % 1013,9 hPa 0,0 l/m² 4,8 km/h (1 Bft) NW 315 ° 0 min 0 W/m² 15,3 °C 19,7 °C 9,7 km/h (2 Bft)
16.08.2026 03:40 23,6 °C 19,7 °C 54 % 76 % 1013,8 hPa 0,0 l/m² 3,2 km/h (1 Bft) NW 315 ° 0 min 0 W/m² 15,3 °C 19,7 °C 6,4 km/h (2 Bft)
16.08.2026 03:41 23,6 °C 19,7 °C 54 % 76 % 1013,9 hPa 0,0 l/m² 3,2 km/h (1 Bft) NW 315 ° 0 min 0 W/m² 15,3 °C 19,7 °C 4,8 km/h (1 Bft)
16.08.2026 03:42 23,6 °C 19,7 °C 54 % 76 % 1013,9 hPa 0,0 l/m² 6,4 km/h (2 Bft) NW 315 ° 0 min 0 W/m² 15,3 °C 19,7 °C 11,3 km/h (2 Bft)
16.08.2026 03:43 23,6 °C 19,7 °C 54 % 76 % 1013,9 hPa 0,0 l/m² 3,2 km/h (1 Bft) W-NW 292 ° 0 min 0 W/m² 15,3 °C 19,7 °C 4,8 km/h (1 Bft)
16.08.2026 03:44 23,6 °C 19,7 °C 54 % 76 % 1013,9 hPa 0,0 l/m² 4,8 km/h (1 Bft) W-NW 292 ° 0 min 0 W/m² 15,3 °C 19,7 °C 9,7 km/h (2 Bft)
16.08.2026 03:45 23,6 °C 19,7 °C 54 % 77 % 1013,9 hPa 0,0 l/m² 3,2 km/h (1 Bft) W 270 ° 0 min 0 W/m² 15,5 °C 19,7 °C 4,8 km/h (1 Bft)
16.08.2026 03:46 23,6 °C 19,7 °C 54 % 77 % 1014,0 hPa 0,0 l/m² 4,8 km/h (1 Bft) NW 315 ° 0 min 0 W/m² 15,5 °C 19,7 °C 8,0 km/h (2 Bft)
16.08.2026 03:47 23,6 °C 19,7 °C 54 % 77 % 1014,0 hPa 0,0 l/m² 4,8 km/h (1 Bft) NW 315 ° 0 min 0 W/m² 15,5 °C 19,7 °C 8,0 km/h (2 Bft)
16.08.2026 03:48 23,6 °C 19,8 °C 54 % 77 % 1014,0 hPa 0,0 l/m² 6,4 km/h (2 Bft) W 270 ° 0 min 0 W/m² 15,6 °C 19,8 °C 12,9 km/h (3 Bft)
16.08.2026 03:49 23,6 °C 19,8 °C 54 % 77 % 1014,0 hPa 0,0 l/m² 6,4 km/h (2 Bft) N-NW 337 ° 0 min 0 W/m² 15,6 °C 19,8 °C 12,9 km/h (3 Bft)
16.08.2026 03:50 23,6 °C 19,8 °C 54 % 77 % 1014,0 hPa 0,0 l/m² 6,4 km/h (2 Bft) W-NW 292 ° 0 min 0 W/m² 15,6 °C 19,8 °C 9,7 km/h (2 Bft)
16.08.2026 03:51 23,6 °C 19,8 °C 54 % 77 % 1014,0 hPa 0,0 l/m² 8,0 km/h (2 Bft) W 270 ° 0 min 0 W/m² 15,6 °C 19,1 °C 16,1 km/h (3 Bft)
16.08.2026 03:52 23,6 °C 19,8 °C 54 % 77 % 1014,1 hPa 0,0 l/m² 8,0 km/h (2 Bft) W-NW 292 ° 0 min 0 W/m² 15,6 °C 19,1 °C 14,5 km/h (3 Bft)
16.08.2026 03:53 23,6 °C 19,8 °C 54 % 77 % 1014,1 hPa 0,0 l/m² 6,4 km/h (2 Bft) W-NW 292 ° 0 min 0 W/m² 15,6 °C 19,8 °C 16,1 km/h (3 Bft)
16.08.2026 03:54 23,6 °C 19,9 °C 54 % 77 % 1014,1 hPa 0,0 l/m² 6,4 km/h (2 Bft) W-NW 292 ° 0 min 0 W/m² 15,7 °C 19,9 °C 9,7 km/h (2 Bft)
16.08.2026 03:55 23,6 °C 19,9 °C 54 % 77 % 1014,1 hPa 0,0 l/m² 6,4 km/h (2 Bft) NW 315 ° 0 min 0 W/m² 15,7 °C 19,9 °C 14,5 km/h (3 Bft)
16.08.2026 03:56 23,6 °C 19,9 °C 54 % 77 % 1014,0 hPa 0,0 l/m² 4,8 km/h (1 Bft) W 270 ° 0 min 0 W/m² 15,7 °C 19,9 °C 11,3 km/h (2 Bft)
16.08.2026 03:57 23,6 °C 19,9 °C 54 % 76 % 1014,0 hPa 0,0 l/m² 6,4 km/h (2 Bft) NW 315 ° 0 min 0 W/m² 15,5 °C 19,9 °C 8,0 km/h (2 Bft)
16.08.2026 03:58 23,6 °C 19,9 °C 54 % 76 % 1014,0 hPa 0,0 l/m² 6,4 km/h (2 Bft) W-NW 292 ° 0 min 0 W/m² 15,5 °C 19,9 °C 9,7 km/h (2 Bft)
16.08.2026 03:59 23,6 °C 19,9 °C 54 % 77 % 1014,0 hPa 0,0 l/m² 8,0 km/h (2 Bft) NW 315 ° 0 min 0 W/m² 15,7 °C 19,2 °C 14,5 km/h (3 Bft)
16.08.2026 04:00 23,6 °C 19,9 °C 54 % 77 % 1014,1 hPa 0,0 l/m² 6,4 km/h (2 Bft) W 270 ° 0 min 0 W/m² 15,7 °C 19,9 °C 14,5 km/h (3 Bft)
16.08.2026 04:01 23,6 °C 19,9 °C 54 % 77 % 1014,1 hPa 0,0 l/m² 3,2 km/h (1 Bft) W 270 ° 0 min 0 W/m² 15,7 °C 19,9 °C 9,7 km/h (2 Bft)
16.08.2026 04:02 23,6 °C 19,9 °C 54 % 77 % 1014,1 hPa 0,0 l/m² 8,0 km/h (2 Bft) NW 315 ° 0 min 0 W/m² 15,7 °C 19,2 °C 14,5 km/h (3 Bft)
16.08.2026 04:03 23,6 °C 19,9 °C 54 % 77 % 1014,1 hPa 0,0 l/m² 4,8 km/h (1 Bft) W-NW 292 ° 0 min 0 W/m² 15,7 °C 19,9 °C 12,9 km/h (3 Bft)
16.08.2026 04:04 23,6 °C 19,9 °C 54 % 77 % 1014,1 hPa 0,0 l/m² 8,0 km/h (2 Bft) W-NW 292 ° 0 min 0 W/m² 15,7 °C 19,2 °C 14,5 km/h (3 Bft)
16.08.2026 04:05 23,6 °C 19,9 °C 54 % 77 % 1014,1 hPa 0,0 l/m² 4,8 km/h (1 Bft) W 270 ° 0 min 0 W/m² 15,7 °C 19,9 °C 9,7 km/h (2 Bft)
16.08.2026 04:06 23,6 °C 19,9 °C 54 % 77 % 1014,1 hPa 0,0 l/m² 6,4 km/h (2 Bft) W 270 ° 0 min 0 W/m² 15,7 °C 19,9 °C 8,0 km/h (2 Bft)
16.08.2026 04:07 23,6 °C 19,9 °C 54 % 77 % 1014,1 hPa 0,0 l/m² 6,4 km/h (2 Bft) W-NW 292 ° 0 min 0 W/m² 15,7 °C 19,9 °C 11,3 km/h (2 Bft)
16.08.2026 04:08 23,6 °C 19,9 °C 54 % 77 % 1014,1 hPa 0,0 l/m² 6,4 km/h (2 Bft) W-NW 292 ° 0 min 0 W/m² 15,7 °C 19,9 °C 14,5 km/h (3 Bft)
16.08.2026 04:09 23,6 °C 19,9 °C 54 % 77 % 1014,1 hPa 0,0 l/m² 8,0 km/h (2 Bft) W-NW 292 ° 0 min 0 W/m² 15,7 °C 19,2 °C 12,9 km/h (3 Bft)
16.08.2026 04:10 23,6 °C 19,9 °C 54 % 77 % 1014,1 hPa 0,0 l/m² 4,8 km/h (1 Bft) N-NW 337 ° 0 min 0 W/m² 15,7 °C 19,9 °C 9,7 km/h (2 Bft)
16.08.2026 04:11 23,6 °C 19,9 °C 54 % 77 % 1014,1 hPa 0,0 l/m² 6,4 km/h (2 Bft) W 270 ° 0 min 0 W/m² 15,7 °C 19,9 °C 12,9 km/h (3 Bft)
16.08.2026 04:12 23,6 °C 19,9 °C 54 % 77 % 1014,2 hPa 0,0 l/m² 8,0 km/h (2 Bft) W-NW 292 ° 0 min 0 W/m² 15,7 °C 19,2 °C 14,5 km/h (3 Bft)
16.08.2026 04:13 23,6 °C 19,9 °C 54 % 77 % 1014,1 hPa 0,0 l/m² 4,8 km/h (1 Bft) NW 315 ° 0 min 0 W/m² 15,7 °C 19,9 °C 9,7 km/h (2 Bft)
16.08.2026 04:14 23,6 °C 19,9 °C 54 % 77 % 1014,2 hPa 0,0 l/m² 6,4 km/h (2 Bft) W-NW 292 ° 0 min 0 W/m² 15,7 °C 19,9 °C 11,3 km/h (2 Bft)
16.08.2026 04:15 23,6 °C 19,9 °C 54 % 77 % 1014,2 hPa 0,0 l/m² 6,4 km/h (2 Bft) W 270 ° 0 min 0 W/m² 15,7 °C 19,9 °C 9,7 km/h (2 Bft)
16.08.2026 04:16 23,6 °C 19,9 °C 54 % 77 % 1014,2 hPa 0,0 l/m² 4,8 km/h (1 Bft) W 270 ° 0 min 0 W/m² 15,7 °C 19,9 °C 17,7 km/h (3 Bft)
16.08.2026 04:17 23,6 °C 19,9 °C 54 % 78 % 1014,2 hPa 0,0 l/m² 9,7 km/h (2 Bft) NW 315 ° 0 min 0 W/m² 15,9 °C 18,6 °C 17,7 km/h (3 Bft)
16.08.2026 04:18 23,6 °C 19,9 °C 54 % 78 % 1014,2 hPa 0,0 l/m² 8,0 km/h (2 Bft) NW 315 ° 0 min 0 W/m² 15,9 °C 19,2 °C 12,9 km/h (3 Bft)
16.08.2026 04:19 23,6 °C 19,9 °C 54 % 78 % 1014,2 hPa 0,0 l/m² 4,8 km/h (1 Bft) W-NW 292 ° 0 min 0 W/m² 15,9 °C 19,9 °C 12,9 km/h (3 Bft)
16.08.2026 04:20 23,6 °C 20,0 °C 54 % 78 % 1014,2 hPa 0,0 l/m² 8,0 km/h (2 Bft) NW 315 ° 0 min 0 W/m² 16,0 °C 19,4 °C 16,1 km/h (3 Bft)
16.08.2026 04:21 23,6 °C 20,0 °C 54 % 78 % 1014,2 hPa 0,0 l/m² 11,3 km/h (2 Bft) W-NW 292 ° 0 min 0 W/m² 16,0 °C 18,2 °C 19,3 km/h (3 Bft)
16.08.2026 04:22 23,6 °C 20,1 °C 54 % 78 % 1014,2 hPa 0,0 l/m² 6,4 km/h (2 Bft) W-NW 292 ° 0 min 0 W/m² 16,1 °C 20,1 °C 19,3 km/h (3 Bft)
16.08.2026 04:23 23,6 °C 20,1 °C 54 % 78 % 1014,3 hPa 0,0 l/m² 8,0 km/h (2 Bft) W-NW 292 ° 0 min 0 W/m² 16,1 °C 19,5 °C 14,5 km/h (3 Bft)
16.08.2026 04:24 23,6 °C 20,1 °C 54 % 78 % 1014,3 hPa 0,0 l/m² 4,8 km/h (1 Bft) W 270 ° 0 min 0 W/m² 16,1 °C 20,1 °C 9,7 km/h (2 Bft)
16.08.2026 04:25 23,6 °C 20,1 °C 54 % 78 % 1014,3 hPa 0,0 l/m² 4,8 km/h (1 Bft) W 270 ° 0 min 0 W/m² 16,1 °C 20,1 °C 9,7 km/h (2 Bft)
16.08.2026 04:26 23,6 °C 20,1 °C 54 % 78 % 1014,3 hPa 0,0 l/m² 9,7 km/h (2 Bft) NW 315 ° 0 min 0 W/m² 16,1 °C 18,8 °C 17,7 km/h (3 Bft)
16.08.2026 04:27 23,6 °C 20,1 °C 54 % 78 % 1014,3 hPa 0,0 l/m² 8,0 km/h (2 Bft) NW 315 ° 0 min 0 W/m² 16,1 °C 19,5 °C 14,5 km/h (3 Bft)
16.08.2026 04:28 23,6 °C 20,1 °C 54 % 78 % 1014,3 hPa 0,0 l/m² 6,4 km/h (2 Bft) NW 315 ° 0 min 0 W/m² 16,1 °C 20,1 °C 11,3 km/h (2 Bft)
16.08.2026 04:29 23,6 °C 20,1 °C 54 % 78 % 1014,2 hPa 0,0 l/m² 8,0 km/h (2 Bft) NW 315 ° 0 min 0 W/m² 16,1 °C 19,5 °C 12,9 km/h (3 Bft)
16.08.2026 04:30 23,6 °C 20,1 °C 54 % 78 % 1014,3 hPa 0,0 l/m² 9,7 km/h (2 Bft) NW 315 ° 0 min 0 W/m² 16,1 °C 18,8 °C 14,5 km/h (3 Bft)
16.08.2026 04:31 23,6 °C 20,2 °C 54 % 78 % 1014,3 hPa 0,0 l/m² 6,4 km/h (2 Bft) NW 315 ° 0 min 0 W/m² 16,2 °C 20,2 °C 11,3 km/h (2 Bft)
16.08.2026 04:32 23,6 °C 20,2 °C 54 % 78 % 1014,3 hPa 0,0 l/m² 9,7 km/h (2 Bft) W-NW 292 ° 0 min 0 W/m² 16,2 °C 19,0 °C 12,9 km/h (3 Bft)
16.08.2026 04:33 23,6 °C 20,2 °C 54 % 78 % 1014,3 hPa 0,0 l/m² 6,4 km/h (2 Bft) W-NW 292 ° 0 min 0 W/m² 16,2 °C 20,2 °C 11,3 km/h (2 Bft)
16.08.2026 04:34 23,6 °C 20,2 °C 54 % 79 % 1014,4 hPa 0,0 l/m² 6,4 km/h (2 Bft) NW 315 ° 0 min 0 W/m² 16,4 °C 20,2 °C 11,3 km/h (2 Bft)
16.08.2026 04:35 23,6 °C 20,2 °C 54 % 79 % 1014,4 hPa 0,0 l/m² 4,8 km/h (1 Bft) W-NW 292 ° 0 min 0 W/m² 16,4 °C 20,2 °C 9,7 km/h (2 Bft)
16.08.2026 04:36 23,6 °C 20,2 °C 54 % 79 % 1014,4 hPa 0,0 l/m² 4,8 km/h (1 Bft) W-NW 292 ° 0 min 0 W/m² 16,4 °C 20,2 °C 8,0 km/h (2 Bft)
16.08.2026 04:37 23,6 °C 20,2 °C 54 % 79 % 1014,4 hPa 0,0 l/m² 6,4 km/h (2 Bft) W-NW 292 ° 0 min 0 W/m² 16,4 °C 20,2 °C 9,7 km/h (2 Bft)
16.08.2026 04:38 23,6 °C 20,2 °C 54 % 79 % 1014,4 hPa 0,0 l/m² 6,4 km/h (2 Bft) W-NW 292 ° 0 min 0 W/m² 16,4 °C 20,2 °C 11,3 km/h (2 Bft)
16.08.2026 04:39 23,6 °C 20,2 °C 54 % 79 % 1014,3 hPa 0,0 l/m² 6,4 km/h (2 Bft) W-NW 292 ° 0 min 0 W/m² 16,4 °C 20,2 °C 9,7 km/h (2 Bft)
16.08.2026 04:40 23,6 °C 20,2 °C 54 % 79 % 1014,3 hPa 0,0 l/m² 8,0 km/h (2 Bft) W-NW 292 ° 0 min 0 W/m² 16,4 °C 19,6 °C 14,5 km/h (3 Bft)
16.08.2026 04:41 23,6 °C 20,2 °C 54 % 79 % 1014,3 hPa 0,0 l/m² 8,0 km/h (2 Bft) NW 315 ° 0 min 0 W/m² 16,4 °C 19,6 °C 12,9 km/h (3 Bft)
16.08.2026 04:42 23,6 °C 20,2 °C 54 % 79 % 1014,2 hPa 0,0 l/m² 6,4 km/h (2 Bft) W-NW 292 ° 0 min 0 W/m² 16,4 °C 20,2 °C 9,7 km/h (2 Bft)
16.08.2026 04:43 23,6 °C 20,2 °C 54 % 79 % 1014,3 hPa 0,0 l/m² 8,0 km/h (2 Bft) NW 315 ° 0 min 0 W/m² 16,4 °C 19,6 °C 11,3 km/h (2 Bft)
16.08.2026 04:44 23,6 °C 20,1 °C 54 % 79 % 1014,3 hPa 0,0 l/m² 6,4 km/h (2 Bft) W-NW 292 ° 0 min 0 W/m² 16,3 °C 20,1 °C 11,3 km/h (2 Bft)
16.08.2026 04:45 23,6 °C 20,1 °C 54 % 79 % 1014,3 hPa 0,0 l/m² 3,2 km/h (1 Bft) W-NW 292 ° 0 min 0 W/m² 16,3 °C 20,1 °C 8,0 km/h (2 Bft)
16.08.2026 04:46 23,6 °C 20,1 °C 54 % 79 % 1014,4 hPa 0,0 l/m² 3,2 km/h (1 Bft) W 270 ° 0 min 0 W/m² 16,3 °C 20,1 °C 6,4 km/h (2 Bft)
16.08.2026 04:47 23,6 °C 20,1 °C 54 % 80 % 1014,3 hPa 0,0 l/m² 4,8 km/h (1 Bft) W 270 ° 0 min 0 W/m² 16,5 °C 20,1 °C 9,7 km/h (2 Bft)
16.08.2026 04:48 23,6 °C 20,1 °C 54 % 80 % 1014,4 hPa 0,0 l/m² 3,2 km/h (1 Bft) W-SW 247 ° 0 min 0 W/m² 16,5 °C 20,1 °C 6,4 km/h (2 Bft)
16.08.2026 04:49 23,6 °C 20,1 °C 54 % 80 % 1014,3 hPa 0,0 l/m² 3,2 km/h (1 Bft) W-NW 292 ° 0 min 0 W/m² 16,5 °C 20,1 °C 8,0 km/h (2 Bft)
16.08.2026 04:50 23,6 °C 20,1 °C 54 % 80 % 1014,3 hPa 0,0 l/m² 1,6 km/h (1 Bft) W-NW 292 ° 0 min 0 W/m² 16,5 °C 20,1 °C 4,8 km/h (1 Bft)
16.08.2026 04:51 23,6 °C 20,0 °C 54 % 80 % 1014,3 hPa 0,0 l/m² 3,2 km/h (1 Bft) W 270 ° 0 min 0 W/m² 16,4 °C 20,0 °C 6,4 km/h (2 Bft)
16.08.2026 04:52 23,6 °C 19,9 °C 54 % 80 % 1014,3 hPa 0,0 l/m² 3,2 km/h (1 Bft) W-NW 292 ° 0 min 0 W/m² 16,3 °C 19,9 °C 11,3 km/h (2 Bft)
16.08.2026 04:53 23,6 °C 19,9 °C 54 % 80 % 1014,4 hPa 0,0 l/m² 4,8 km/h (1 Bft) W 270 ° 0 min 0 W/m² 16,3 °C 19,9 °C 16,1 km/h (3 Bft)
16.08.2026 04:54 23,6 °C 19,9 °C 54 % 80 % 1014,4 hPa 0,0 l/m² 4,8 km/h (1 Bft) W-NW 292 ° 0 min 0 W/m² 16,3 °C 19,9 °C 8,0 km/h (2 Bft)
16.08.2026 04:55 23,6 °C 19,9 °C 54 % 80 % 1014,4 hPa 0,0 l/m² 4,8 km/h (1 Bft) W-NW 292 ° 0 min 0 W/m² 16,3 °C 19,9 °C 9,7 km/h (2 Bft)
16.08.2026 04:56 23,6 °C 19,9 °C 54 % 80 % 1014,4 hPa 0,0 l/m² 1,6 km/h (1 Bft) W-NW 292 ° 0 min 0 W/m² 16,3 °C 19,9 °C 3,2 km/h (1 Bft)
16.08.2026 04:57 23,6 °C 19,8 °C 54 % 80 % 1014,4 hPa 0,0 l/m² 6,4 km/h (2 Bft) NW 315 ° 0 min 0 W/m² 16,2 °C 19,8 °C 12,9 km/h (3 Bft)
16.08.2026 04:58 23,6 °C 19,9 °C 54 % 80 % 1014,3 hPa 0,0 l/m² 8,0 km/h (2 Bft) W-NW 292 ° 0 min 0 W/m² 16,3 °C 19,2 °C 14,5 km/h (3 Bft)
16.08.2026 04:59 23,6 °C 19,9 °C 54 % 81 % 1014,4 hPa 0,0 l/m² 6,4 km/h (2 Bft) W-NW 292 ° 0 min 0 W/m² 16,5 °C 19,9 °C 14,5 km/h (3 Bft)
16.08.2026 05:00 23,6 °C 19,9 °C 54 % 81 % 1014,3 hPa 0,0 l/m² 11,3 km/h (2 Bft) NW 315 ° 0 min 0 W/m² 16,5 °C 18,1 °C 17,7 km/h (3 Bft)
16.08.2026 05:01 23,6 °C 19,9 °C 54 % 81 % 1014,3 hPa 0,0 l/m² 4,8 km/h (1 Bft) W-SW 247 ° 0 min 0 W/m² 16,5 °C 19,9 °C 8,0 km/h (2 Bft)
16.08.2026 05:02 23,6 °C 19,9 °C 54 % 81 % 1014,3 hPa 0,0 l/m² 8,0 km/h (2 Bft) NW 315 ° 0 min 0 W/m² 16,5 °C 19,2 °C 14,5 km/h (3 Bft)
16.08.2026 05:03 23,6 °C 19,9 °C 54 % 81 % 1014,4 hPa 0,0 l/m² 14,5 km/h (3 Bft) W-NW 292 ° 0 min 0 W/m² 16,5 °C 17,3 °C 19,3 km/h (3 Bft)
16.08.2026 05:04 23,6 °C 19,9 °C 54 % 81 % 1014,4 hPa 0,0 l/m² 6,4 km/h (2 Bft) NW 315 ° 0 min 0 W/m² 16,5 °C 19,9 °C 8,0 km/h (2 Bft)
16.08.2026 05:05 23,6 °C 19,9 °C 54 % 81 % 1014,3 hPa 0,0 l/m² 6,4 km/h (2 Bft) W 270 ° 0 min 0 W/m² 16,5 °C 19,9 °C 12,9 km/h (3 Bft)
16.08.2026 05:06 23,6 °C 19,9 °C 54 % 81 % 1014,2 hPa 0,0 l/m² 9,7 km/h (2 Bft) W-NW 292 ° 0 min 0 W/m² 16,5 °C 18,6 °C 19,3 km/h (3 Bft)
16.08.2026 05:07 23,6 °C 19,9 °C 54 % 81 % 1014,3 hPa 0,0 l/m² 11,3 km/h (2 Bft) W-NW 292 ° 0 min 0 W/m² 16,5 °C 18,1 °C 17,7 km/h (3 Bft)
16.08.2026 05:08 23,6 °C 19,9 °C 54 % 81 % 1014,3 hPa 0,0 l/m² 11,3 km/h (2 Bft) NW 315 ° 0 min 0 W/m² 16,5 °C 18,1 °C 17,7 km/h (3 Bft)
16.08.2026 05:09 23,6 °C 19,9 °C 55 % 81 % 1014,3 hPa 0,0 l/m² 8,0 km/h (2 Bft) W-NW 292 ° 0 min 0 W/m² 16,5 °C 19,2 °C 16,1 km/h (3 Bft)
16.08.2026 05:10 23,6 °C 19,9 °C 55 % 81 % 1014,4 hPa 0,0 l/m² 8,0 km/h (2 Bft) W-NW 292 ° 0 min 0 W/m² 16,5 °C 19,2 °C 14,5 km/h (3 Bft)
16.08.2026 05:11 23,6 °C 19,9 °C 55 % 81 % 1014,4 hPa 0,0 l/m² 8,0 km/h (2 Bft) W 270 ° 0 min 0 W/m² 16,5 °C 19,2 °C 14,5 km/h (3 Bft)
16.08.2026 05:12 23,6 °C 19,9 °C 55 % 81 % 1014,3 hPa 0,0 l/m² 6,4 km/h (2 Bft) W-NW 292 ° 0 min 0 W/m² 16,5 °C 19,9 °C 14,5 km/h (3 Bft)
16.08.2026 05:13 23,6 °C 19,9 °C 55 % 82 % 1014,4 hPa 0,0 l/m² 6,4 km/h (2 Bft) W 270 ° 0 min 0 W/m² 16,7 °C 19,9 °C 12,9 km/h (3 Bft)
16.08.2026 05:14 23,6 °C 19,9 °C 55 % 82 % 1014,4 hPa 0,0 l/m² 6,4 km/h (2 Bft) W 270 ° 0 min 0 W/m² 16,7 °C 19,9 °C 9,7 km/h (2 Bft)
16.08.2026 05:15 23,6 °C 19,9 °C 55 % 82 % 1014,4 hPa 0,0 l/m² 4,8 km/h (1 Bft) NW 315 ° 0 min 0 W/m² 16,7 °C 19,9 °C 9,7 km/h (2 Bft)
16.08.2026 05:16 23,6 °C 19,9 °C 55 % 82 % 1014,5 hPa 0,0 l/m² 8,0 km/h (2 Bft) W-NW 292 ° 0 min 0 W/m² 16,7 °C 19,2 °C 12,9 km/h (3 Bft)
16.08.2026 05:17 23,6 °C 19,9 °C 55 % 82 % 1014,5 hPa 0,0 l/m² 6,4 km/h (2 Bft) W-NW 292 ° 0 min 0 W/m² 16,7 °C 19,9 °C 11,3 km/h (2 Bft)
16.08.2026 05:18 23,6 °C 19,9 °C 55 % 82 % 1014,6 hPa 0,0 l/m² 4,8 km/h (1 Bft) W-SW 247 ° 0 min 0 W/m² 16,7 °C 19,9 °C 9,7 km/h (2 Bft)
16.08.2026 05:19 23,6 °C 19,9 °C 55 % 82 % 1014,6 hPa 0,0 l/m² 4,8 km/h (1 Bft) W 270 ° 0 min 0 W/m² 16,7 °C 19,9 °C 11,3 km/h (2 Bft)
16.08.2026 05:20 23,6 °C 19,9 °C 55 % 82 % 1014,6 hPa 0,0 l/m² 11,3 km/h (2 Bft) W-NW 292 ° 0 min 0 W/m² 16,7 °C 18,1 °C 16,1 km/h (3 Bft)
16.08.2026 05:21 23,6 °C 19,9 °C 55 % 82 % 1014,6 hPa 0,0 l/m² 4,8 km/h (1 Bft) W-NW 292 ° 0 min 0 W/m² 16,7 °C 19,9 °C 12,9 km/h (3 Bft)
16.08.2026 05:22 23,6 °C 19,9 °C 55 % 82 % 1014,6 hPa 0,0 l/m² 8,0 km/h (2 Bft) W-NW 292 ° 0 min 0 W/m² 16,7 °C 19,2 °C 16,1 km/h (3 Bft)
16.08.2026 05:23 23,6 °C 19,9 °C 55 % 83 % 1014,6 hPa 0,0 l/m² 6,4 km/h (2 Bft) W 270 ° 0 min 0 W/m² 16,9 °C 19,9 °C 9,7 km/h (2 Bft)
16.08.2026 05:24 23,6 °C 19,9 °C 55 % 83 % 1014,5 hPa 0,0 l/m² 6,4 km/h (2 Bft) W 270 ° 0 min 0 W/m² 16,9 °C 19,9 °C 11,3 km/h (2 Bft)
16.08.2026 05:25 23,6 °C 19,9 °C 55 % 83 % 1014,6 hPa 0,0 l/m² 4,8 km/h (1 Bft) W-NW 292 ° 0 min 0 W/m² 16,9 °C 19,9 °C 9,7 km/h (2 Bft)
16.08.2026 05:26 23,6 °C 19,9 °C 55 % 83 % 1014,5 hPa 0,0 l/m² 6,4 km/h (2 Bft) W-NW 292 ° 0 min 0 W/m² 16,9 °C 19,9 °C 11,3 km/h (2 Bft)
16.08.2026 05:27 23,6 °C 19,8 °C 55 % 83 % 1014,6 hPa 0,0 l/m² 6,4 km/h (2 Bft) W-NW 292 ° 0 min 0 W/m² 16,8 °C 19,8 °C 11,3 km/h (2 Bft)
16.08.2026 05:28 23,6 °C 19,8 °C 55 % 83 % 1014,6 hPa 0,0 l/m² 3,2 km/h (1 Bft) NW 315 ° 0 min 0 W/m² 16,8 °C 19,8 °C 6,4 km/h (2 Bft)
16.08.2026 05:29 23,5 °C 19,9 °C 55 % 83 % 1014,6 hPa 0,0 l/m² 4,8 km/h (1 Bft) W-NW 292 ° 0 min 0 W/m² 16,9 °C 19,9 °C 8,0 km/h (2 Bft)
16.08.2026 05:30 23,6 °C 19,8 °C 55 % 83 % 1014,6 hPa 0,0 l/m² 8,0 km/h (2 Bft) W-NW 292 ° 0 min 0 W/m² 16,8 °C 19,1 °C 16,1 km/h (3 Bft)
16.08.2026 05:31 23,6 °C 19,8 °C 55 % 84 % 1014,6 hPa 0,0 l/m² 9,7 km/h (2 Bft) W 270 ° 0 min 0 W/m² 17,0 °C 18,5 °C 14,5 km/h (3 Bft)
16.08.2026 05:32 23,6 °C 19,8 °C 55 % 84 % 1014,7 hPa 0,0 l/m² 8,0 km/h (2 Bft) W 270 ° 0 min 0 W/m² 17,0 °C 19,1 °C 17,7 km/h (3 Bft)
16.08.2026 05:33 23,6 °C 19,8 °C 55 % 84 % 1014,7 hPa 0,0 l/m² 6,4 km/h (2 Bft) N-NW 337 ° 0 min 0 W/m² 17,0 °C 19,8 °C 9,7 km/h (2 Bft)
16.08.2026 05:34 23,6 °C 19,8 °C 55 % 84 % 1014,8 hPa 0,0 l/m² 11,3 km/h (2 Bft) W 270 ° 0 min 0 W/m² 17,0 °C 18,0 °C 16,1 km/h (3 Bft)
16.08.2026 05:35 23,6 °C 19,8 °C 55 % 84 % 1014,7 hPa 0,0 l/m² 6,4 km/h (2 Bft) W 270 ° 0 min 0 W/m² 17,0 °C 19,8 °C 16,1 km/h (3 Bft)
16.08.2026 05:36 23,6 °C 19,8 °C 55 % 84 % 1014,8 hPa 0,0 l/m² 9,7 km/h (2 Bft) W-NW 292 ° 0 min 0 W/m² 17,0 °C 18,5 °C 19,3 km/h (3 Bft)
16.08.2026 05:37 23,6 °C 19,8 °C 55 % 84 % 1014,9 hPa 0,0 l/m² 11,3 km/h (2 Bft) W-NW 292 ° 0 min 0 W/m² 17,0 °C 18,0 °C 19,3 km/h (3 Bft)
16.08.2026 05:38 23,6 °C 19,8 °C 55 % 84 % 1014,8 hPa 0,0 l/m² 8,0 km/h (2 Bft) W 270 ° 0 min 0 W/m² 17,0 °C 19,1 °C 14,5 km/h (3 Bft)
16.08.2026 05:39 23,6 °C 19,8 °C 55 % 84 % 1014,8 hPa 0,0 l/m² 9,7 km/h (2 Bft) W 270 ° 0 min 0 W/m² 17,0 °C 18,5 °C 17,7 km/h (3 Bft)
16.08.2026 05:40 23,6 °C 19,8 °C 55 % 84 % 1014,7 hPa 0,0 l/m² 6,4 km/h (2 Bft) W-SW 247 ° 0 min 0 W/m² 17,0 °C 19,8 °C 11,3 km/h (2 Bft)
16.08.2026 05:41 23,6 °C 19,8 °C 55 % 84 % 1014,7 hPa 0,0 l/m² 9,7 km/h (2 Bft) W-NW 292 ° 0 min 0 W/m² 17,0 °C 18,5 °C 14,5 km/h (3 Bft)
16.08.2026 05:42 23,6 °C 19,8 °C 55 % 84 % 1014,8 hPa 0,0 l/m² 8,0 km/h (2 Bft) NW 315 ° 0 min 0 W/m² 17,0 °C 19,1 °C 12,9 km/h (3 Bft)
16.08.2026 05:43 23,6 °C 19,7 °C 55 % 84 % 1014,8 hPa 0,0 l/m² 8,0 km/h (2 Bft) W-SW 247 ° 0 min 0 W/m² 16,9 °C 19,0 °C 16,1 km/h (3 Bft)
16.08.2026 05:44 23,6 °C 19,8 °C 55 % 84 % 1014,7 hPa 0,0 l/m² 9,7 km/h (2 Bft) NW 315 ° 0 min 0 W/m² 17,0 °C 18,5 °C 17,7 km/h (3 Bft)
16.08.2026 05:45 23,6 °C 19,8 °C 55 % 84 % 1014,8 hPa 0,0 l/m² 6,4 km/h (2 Bft) W-NW 292 ° 0 min 0 W/m² 17,0 °C 19,8 °C 11,3 km/h (2 Bft)
16.08.2026 05:46 23,6 °C 19,7 °C 55 % 84 % 1014,8 hPa 0,0 l/m² 8,0 km/h (2 Bft) W 270 ° 0 min 0 W/m² 16,9 °C 19,0 °C 17,7 km/h (3 Bft)
16.08.2026 05:47 23,6 °C 19,7 °C 55 % 84 % 1014,8 hPa 0,0 l/m² 11,3 km/h (2 Bft) NW 315 ° 0 min 0 W/m² 16,9 °C 17,9 °C 16,1 km/h (3 Bft)
16.08.2026 05:48 23,6 °C 19,7 °C 55 % 84 % 1014,8 hPa 0,0 l/m² 6,4 km/h (2 Bft) W-NW 292 ° 0 min 0 W/m² 16,9 °C 19,7 °C 12,9 km/h (3 Bft)
16.08.2026 05:49 23,6 °C 19,7 °C 55 % 84 % 1014,8 hPa 0,0 l/m² 9,7 km/h (2 Bft) NW 315 ° 0 min 0 W/m² 16,9 °C 18,4 °C 16,1 km/h (3 Bft)
16.08.2026 05:50 23,6 °C 19,7 °C 55 % 84 % 1014,8 hPa 0,0 l/m² 6,4 km/h (2 Bft) W-NW 292 ° 0 min 0 W/m² 16,9 °C 19,7 °C 12,9 km/h (3 Bft)
16.08.2026 05:51 23,6 °C 19,7 °C 55 % 85 % 1014,9 hPa 0,0 l/m² 8,0 km/h (2 Bft) W-NW 292 ° 0 min 0 W/m² 17,1 °C 19,0 °C 17,7 km/h (3 Bft)
16.08.2026 05:52 23,6 °C 19,7 °C 55 % 85 % 1014,9 hPa 0,0 l/m² 6,4 km/h (2 Bft) W 270 ° 0 min 0 W/m² 17,1 °C 19,7 °C 12,9 km/h (3 Bft)
16.08.2026 05:53 23,6 °C 19,7 °C 55 % 85 % 1014,9 hPa 0,0 l/m² 9,7 km/h (2 Bft) W-NW 292 ° 0 min 0 W/m² 17,1 °C 18,4 °C 12,9 km/h (3 Bft)
16.08.2026 05:54 23,6 °C 19,7 °C 55 % 85 % 1014,9 hPa 0,0 l/m² 8,0 km/h (2 Bft) SW 225 ° 0 min 0 W/m² 17,1 °C 19,0 °C 16,1 km/h (3 Bft)
16.08.2026 05:55 23,6 °C 19,7 °C 55 % 85 % 1014,9 hPa 0,0 l/m² 11,3 km/h (2 Bft) W-NW 292 ° 0 min 0 W/m² 17,1 °C 17,9 °C 16,1 km/h (3 Bft)
16.08.2026 05:56 23,6 °C 19,6 °C 55 % 85 % 1014,9 hPa 0,0 l/m² 11,3 km/h (2 Bft) NW 315 ° 0 min 0 W/m² 17,0 °C 17,8 °C 17,7 km/h (3 Bft)
16.08.2026 05:57 23,6 °C 19,6 °C 55 % 85 % 1014,8 hPa 0,0 l/m² 9,7 km/h (2 Bft) W-NW 292 ° 0 min 0 W/m² 17,0 °C 18,3 °C 16,1 km/h (3 Bft)
16.08.2026 05:58 23,6 °C 19,6 °C 55 % 85 % 1014,9 hPa 0,0 l/m² 11,3 km/h (2 Bft) NW 315 ° 0 min 0 W/m² 17,0 °C 17,8 °C 20,9 km/h (4 Bft)
16.08.2026 05:59 23,6 °C 19,6 °C 55 % 85 % 1014,9 hPa 0,0 l/m² 9,7 km/h (2 Bft) NW 315 ° 0 min 0 W/m² 17,0 °C 18,3 °C 20,9 km/h (4 Bft)
16.08.2026 06:00 23,6 °C 19,6 °C 55 % 85 % 1014,9 hPa 0,0 l/m² 8,0 km/h (2 Bft) W-NW 292 ° 0 min 0 W/m² 17,0 °C 18,9 °C 16,1 km/h (3 Bft)
16.08.2026 06:01 23,6 °C 19,6 °C 55 % 85 % 1014,9 hPa 0,0 l/m² 8,0 km/h (2 Bft) W-NW 292 ° 0 min 0 W/m² 17,0 °C 18,9 °C 14,5 km/h (3 Bft)
16.08.2026 06:02 23,6 °C 19,6 °C 55 % 85 % 1015,0 hPa 0,0 l/m² 4,8 km/h (1 Bft) W-NW 292 ° 0 min 0 W/m² 17,0 °C 19,6 °C 11,3 km/h (2 Bft)
16.08.2026 06:03 23,6 °C 19,6 °C 55 % 86 % 1015,0 hPa 0,0 l/m² 3,2 km/h (1 Bft) W-SW 247 ° 0 min 0 W/m² 17,2 °C 19,6 °C 8,0 km/h (2 Bft)
16.08.2026 06:04 23,6 °C 19,6 °C 55 % 86 % 1015,0 hPa 0,0 l/m² 6,4 km/h (2 Bft) W 270 ° 0 min 0 W/m² 17,2 °C 19,6 °C 12,9 km/h (3 Bft)
16.08.2026 06:05 23,6 °C 19,5 °C 55 % 86 % 1015,0 hPa 0,0 l/m² 6,4 km/h (2 Bft) W 270 ° 0 min 0 W/m² 17,1 °C 19,5 °C 12,9 km/h (3 Bft)
16.08.2026 06:06 23,6 °C 19,4 °C 55 % 86 % 1015,1 hPa 0,0 l/m² 4,8 km/h (1 Bft) W-NW 292 ° 0 min 5 W/m² 17,0 °C 19,4 °C 6,4 km/h (2 Bft)
16.08.2026 06:07 23,5 °C 19,4 °C 55 % 86 % 1015,1 hPa 0,0 l/m² 8,0 km/h (2 Bft) W-NW 292 ° 0 min 5 W/m² 17,0 °C 18,7 °C 14,5 km/h (3 Bft)
16.08.2026 06:08 23,5 °C 19,4 °C 55 % 86 % 1015,1 hPa 0,0 l/m² 3,2 km/h (1 Bft) W-NW 292 ° 0 min 7 W/m² 17,0 °C 19,4 °C 9,7 km/h (2 Bft)
16.08.2026 06:09 23,6 °C 19,4 °C 55 % 86 % 1015,1 hPa 0,0 l/m² 8,0 km/h (2 Bft) NW 315 ° 0 min 7 W/m² 17,0 °C 18,7 °C 17,7 km/h (3 Bft)
16.08.2026 06:10 23,6 °C 19,3 °C 56 % 86 % 1015,0 hPa 0,0 l/m² 8,0 km/h (2 Bft) W-NW 292 ° 0 min 9 W/m² 16,9 °C 18,6 °C 12,9 km/h (3 Bft)
16.08.2026 06:11 23,6 °C 19,3 °C 56 % 86 % 1015,0 hPa 0,0 l/m² 6,4 km/h (2 Bft) W-NW 292 ° 0 min 9 W/m² 16,9 °C 19,3 °C 11,3 km/h (2 Bft)
16.08.2026 06:12 23,6 °C 19,3 °C 56 % 86 % 1015,0 hPa 0,0 l/m² 4,8 km/h (1 Bft) W-NW 292 ° 0 min 12 W/m² 16,9 °C 19,3 °C 6,4 km/h (2 Bft)
16.08.2026 06:13 23,6 °C 19,3 °C 56 % 86 % 1014,9 hPa 0,0 l/m² 6,4 km/h (2 Bft) N-NW 337 ° 0 min 14 W/m² 16,9 °C 19,3 °C 12,9 km/h (3 Bft)
16.08.2026 06:14 23,6 °C 19,3 °C 56 % 86 % 1015,0 hPa 0,0 l/m² 4,8 km/h (1 Bft) W-NW 292 ° 0 min 14 W/m² 16,9 °C 19,3 °C 9,7 km/h (2 Bft)
16.08.2026 06:15 23,6 °C 19,3 °C 56 % 86 % 1015,0 hPa 0,0 l/m² 6,4 km/h (2 Bft) N-NW 337 ° 0 min 16 W/m² 16,9 °C 19,3 °C 9,7 km/h (2 Bft)
16.08.2026 06:16 23,5 °C 19,3 °C 56 % 86 % 1015,0 hPa 0,0 l/m² 6,4 km/h (2 Bft) W-NW 292 ° 0 min 18 W/m² 16,9 °C 19,3 °C 9,7 km/h (2 Bft)
16.08.2026 06:17 23,5 °C 19,2 °C 56 % 86 % 1015,0 hPa 0,0 l/m² 4,8 km/h (1 Bft) NW 315 ° 0 min 19 W/m² 16,8 °C 19,2 °C 12,9 km/h (3 Bft)
16.08.2026 06:18 23,6 °C 19,2 °C 56 % 86 % 1015,0 hPa 0,0 l/m² 3,2 km/h (1 Bft) W-NW 292 ° 0 min 23 W/m² 16,8 °C 19,2 °C 6,4 km/h (2 Bft)
16.08.2026 06:19 23,6 °C 19,2 °C 56 % 86 % 1015,1 hPa 0,0 l/m² 4,8 km/h (1 Bft) NW 315 ° 0 min 25 W/m² 16,8 °C 19,2 °C 8,0 km/h (2 Bft)
16.08.2026 06:20 23,6 °C 19,2 °C 56 % 86 % 1015,0 hPa 0,0 l/m² 6,4 km/h (2 Bft) NW 315 ° 0 min 26 W/m² 16,8 °C 19,2 °C 14,5 km/h (3 Bft)
16.08.2026 06:21 23,6 °C 19,2 °C 56 % 86 % 1015,0 hPa 0,0 l/m² 6,4 km/h (2 Bft) W-NW 292 ° 0 min 28 W/m² 16,8 °C 19,2 °C 14,5 km/h (3 Bft)
16.08.2026 06:22 23,6 °C 19,2 °C 56 % 87 % 1015,0 hPa 0,0 l/m² 6,4 km/h (2 Bft) W-NW 292 ° 0 min 30 W/m² 17,0 °C 19,2 °C 14,5 km/h (3 Bft)
16.08.2026 06:23 23,5 °C 19,2 °C 56 % 86 % 1015,1 hPa 0,0 l/m² 6,4 km/h (2 Bft) NW 315 ° 0 min 33 W/m² 16,8 °C 19,2 °C 12,9 km/h (3 Bft)
16.08.2026 06:24 23,5 °C 19,2 °C 56 % 87 % 1015,1 hPa 0,0 l/m² 4,8 km/h (1 Bft) NW 315 ° 0 min 35 W/m² 17,0 °C 19,2 °C 9,7 km/h (2 Bft)
16.08.2026 06:25 23,5 °C 19,2 °C 56 % 87 % 1015,1 hPa 0,0 l/m² 6,4 km/h (2 Bft) W-NW 292 ° 0 min 39 W/m² 17,0 °C 19,2 °C 11,3 km/h (2 Bft)
16.08.2026 06:26 23,5 °C 19,2 °C 56 % 87 % 1015,0 hPa 0,0 l/m² 8,0 km/h (2 Bft) W-NW 292 ° 0 min 40 W/m² 17,0 °C 18,5 °C 14,5 km/h (3 Bft)
16.08.2026 06:27 23,5 °C 19,2 °C 56 % 86 % 1015,0 hPa 0,0 l/m² 3,2 km/h (1 Bft) W-NW 292 ° 0 min 40 W/m² 16,8 °C 19,2 °C 9,7 km/h (2 Bft)
16.08.2026 06:28 23,5 °C 19,2 °C 56 % 86 % 1015,0 hPa 0,0 l/m² 3,2 km/h (1 Bft) W 270 ° 0 min 40 W/m² 16,8 °C 19,2 °C 4,8 km/h (1 Bft)
16.08.2026 06:29 23,6 °C 19,2 °C 56 % 86 % 1015,0 hPa 0,0 l/m² 6,4 km/h (2 Bft) NW 315 ° 0 min 40 W/m² 16,8 °C 19,2 °C 14,5 km/h (3 Bft)
16.08.2026 06:30 23,5 °C 19,2 °C 56 % 86 % 1015,1 hPa 0,0 l/m² 6,4 km/h (2 Bft) NW 315 ° 0 min 39 W/m² 16,8 °C 19,2 °C 14,5 km/h (3 Bft)
16.08.2026 06:31 23,5 °C 19,2 °C 56 % 86 % 1015,0 hPa 0,0 l/m² 8,0 km/h (2 Bft) NW 315 ° 0 min 35 W/m² 16,8 °C 18,5 °C 14,5 km/h (3 Bft)
16.08.2026 06:32 23,5 °C 19,2 °C 56 % 86 % 1015,0 hPa 0,0 l/m² 6,4 km/h (2 Bft) W-NW 292 ° 0 min 33 W/m² 16,8 °C 19,2 °C 12,9 km/h (3 Bft)
16.08.2026 06:33 23,5 °C 19,2 °C 56 % 86 % 1015,1 hPa 0,0 l/m² 4,8 km/h (1 Bft) N 360 ° 0 min 30 W/m² 16,8 °C 19,2 °C 8,0 km/h (2 Bft)
16.08.2026 06:34 23,5 °C 19,2 °C 56 % 86 % 1015,0 hPa 0,0 l/m² 3,2 km/h (1 Bft) N 360 ° 0 min 28 W/m² 16,8 °C 19,2 °C 12,9 km/h (3 Bft)
16.08.2026 06:35 23,6 °C 19,2 °C 56 % 86 % 1015,1 hPa 0,0 l/m² 9,7 km/h (2 Bft) W-NW 292 ° 0 min 26 W/m² 16,8 °C 17,9 °C 14,5 km/h (3 Bft)
16.08.2026 06:36 23,5 °C 19,2 °C 56 % 86 % 1015,1 hPa 0,0 l/m² 6,4 km/h (2 Bft) NW 315 ° 0 min 21 W/m² 16,8 °C 19,2 °C 9,7 km/h (2 Bft)
16.08.2026 06:37 23,6 °C 19,2 °C 56 % 86 % 1015,1 hPa 0,0 l/m² 8,0 km/h (2 Bft) NW 315 ° 0 min 19 W/m² 16,8 °C 18,5 °C 14,5 km/h (3 Bft)
16.08.2026 06:38 23,6 °C 19,2 °C 56 % 86 % 1015,0 hPa 0,0 l/m² 6,4 km/h (2 Bft) W-NW 292 ° 0 min 18 W/m² 16,8 °C 19,2 °C 14,5 km/h (3 Bft)
16.08.2026 06:39 23,6 °C 19,2 °C 56 % 86 % 1014,9 hPa 0,0 l/m² 3,2 km/h (1 Bft) W-NW 292 ° 0 min 16 W/m² 16,8 °C 19,2 °C 8,0 km/h (2 Bft)
16.08.2026 06:40 23,6 °C 19,2 °C 56 % 86 % 1014,9 hPa 0,0 l/m² 4,8 km/h (1 Bft) NW 315 ° 0 min 14 W/m² 16,8 °C 19,2 °C 9,7 km/h (2 Bft)
16.08.2026 06:41 23,6 °C 19,2 °C 56 % 86 % 1015,0 hPa 0,0 l/m² 11,3 km/h (2 Bft) N-NW 337 ° 0 min 14 W/m² 16,8 °C 17,3 °C 16,1 km/h (3 Bft)
16.08.2026 06:42 23,5 °C 19,2 °C 56 % 86 % 1014,9 hPa 0,0 l/m² 6,4 km/h (2 Bft) N 360 ° 0 min 12 W/m² 16,8 °C 19,2 °C 14,5 km/h (3 Bft)
16.08.2026 06:43 23,6 °C 19,2 °C 56 % 86 % 1014,8 hPa 0,0 l/m² 8,0 km/h (2 Bft) N 360 ° 0 min 12 W/m² 16,8 °C 18,5 °C 14,5 km/h (3 Bft)
16.08.2026 06:44 23,6 °C 19,2 °C 56 % 86 % 1014,8 hPa 0,0 l/m² 8,0 km/h (2 Bft) N-NW 337 ° 0 min 11 W/m² 16,8 °C 18,5 °C 12,9 km/h (3 Bft)
16.08.2026 06:45 23,5 °C 19,1 °C 56 % 86 % 1014,8 hPa 0,0 l/m² 8,0 km/h (2 Bft) N-NW 337 ° 0 min 11 W/m² 16,7 °C 18,4 °C 16,1 km/h (3 Bft)
16.08.2026 06:46 23,5 °C 19,1 °C 56 % 86 % 1014,8 hPa 0,0 l/m² 8,0 km/h (2 Bft) N-NW 337 ° 0 min 11 W/m² 16,7 °C 18,4 °C 14,5 km/h (3 Bft)
16.08.2026 06:47 23,5 °C 19,2 °C 56 % 86 % 1014,9 hPa 0,0 l/m² 8,0 km/h (2 Bft) NW 315 ° 0 min 9 W/m² 16,8 °C 18,5 °C 12,9 km/h (3 Bft)
16.08.2026 06:48 23,5 °C 19,2 °C 56 % 86 % 1014,8 hPa 0,0 l/m² 6,4 km/h (2 Bft) N-NW 337 ° 0 min 9 W/m² 16,8 °C 19,2 °C 12,9 km/h (3 Bft)
16.08.2026 06:49 23,5 °C 19,2 °C 56 % 86 % 1014,9 hPa 0,0 l/m² 4,8 km/h (1 Bft) N-NW 337 ° 0 min 9 W/m² 16,8 °C 19,2 °C 8,0 km/h (2 Bft)
16.08.2026 06:50 23,6 °C 19,2 °C 56 % 86 % 1014,9 hPa 0,0 l/m² 3,2 km/h (1 Bft) N 360 ° 0 min 7 W/m² 16,8 °C 19,2 °C 6,4 km/h (2 Bft)
16.08.2026 06:51 23,6 °C 19,2 °C 56 % 86 % 1014,9 hPa 0,0 l/m² 4,8 km/h (1 Bft) W-SW 247 ° 0 min 7 W/m² 16,8 °C 19,2 °C 9,7 km/h (2 Bft)
16.08.2026 06:52 23,6 °C 19,2 °C 56 % 86 % 1014,8 hPa 0,0 l/m² 4,8 km/h (1 Bft) W 270 ° 0 min 7 W/m² 16,8 °C 19,2 °C 9,7 km/h (2 Bft)
16.08.2026 06:53 23,5 °C 19,1 °C 56 % 86 % 1014,8 hPa 0,0 l/m² 4,8 km/h (1 Bft) W-NW 292 ° 0 min 7 W/m² 16,7 °C 19,1 °C 12,9 km/h (3 Bft)
16.08.2026 06:54 23,5 °C 19,1 °C 56 % 86 % 1014,8 hPa 0,0 l/m² 8,0 km/h (2 Bft) W-NW 292 ° 0 min 7 W/m² 16,7 °C 18,4 °C 14,5 km/h (3 Bft)
16.08.2026 06:55 23,5 °C 19,1 °C 56 % 86 % 1014,8 hPa 0,0 l/m² 14,5 km/h (3 Bft) N-NW 337 ° 0 min 7 W/m² 16,7 °C 16,3 °C 19,3 km/h (3 Bft)
16.08.2026 06:56 23,5 °C 19,1 °C 56 % 86 % 1014,9 hPa 0,0 l/m² 11,3 km/h (2 Bft) N-NW 337 ° 0 min 7 W/m² 16,7 °C 17,2 °C 14,5 km/h (3 Bft)
16.08.2026 06:57 23,5 °C 19,1 °C 56 % 86 % 1014,9 hPa 0,0 l/m² 8,0 km/h (2 Bft) NW 315 ° 0 min 7 W/m² 16,7 °C 18,4 °C 14,5 km/h (3 Bft)
16.08.2026 06:58 23,5 °C 19,1 °C 56 % 86 % 1014,9 hPa 0,0 l/m² 6,4 km/h (2 Bft) W-NW 292 ° 0 min 7 W/m² 16,7 °C 19,1 °C 8,0 km/h (2 Bft)
16.08.2026 06:59 23,5 °C 19,1 °C 56 % 86 % 1014,9 hPa 0,0 l/m² 4,8 km/h (1 Bft) N 360 ° 0 min 7 W/m² 16,7 °C 19,1 °C 6,4 km/h (2 Bft)
16.08.2026 07:00 23,5 °C 19,1 °C 56 % 86 % 1014,9 hPa 0,0 l/m² 3,2 km/h (1 Bft) W 270 ° 0 min 7 W/m² 16,7 °C 19,1 °C 6,4 km/h (2 Bft)
16.08.2026 07:01 23,5 °C 19,0 °C 56 % 86 % 1014,9 hPa 0,0 l/m² 1,6 km/h (1 Bft) N 360 ° 0 min 7 W/m² 16,6 °C 19,0 °C 6,4 km/h (2 Bft)
16.08.2026 07:02 23,5 °C 19,0 °C 56 % 86 % 1014,9 hPa 0,0 l/m² 6,4 km/h (2 Bft) W-NW 292 ° 0 min 7 W/m² 16,6 °C 19,0 °C 16,1 km/h (3 Bft)
16.08.2026 07:03 23,5 °C 19,0 °C 56 % 86 % 1014,8 hPa 0,0 l/m² 9,7 km/h (2 Bft) W-NW 292 ° 0 min 7 W/m² 16,6 °C 17,6 °C 16,1 km/h (3 Bft)
16.08.2026 07:04 23,5 °C 18,9 °C 56 % 85 % 1014,8 hPa 0,0 l/m² 6,4 km/h (2 Bft) W 270 ° 0 min 7 W/m² 16,3 °C 18,9 °C 9,7 km/h (2 Bft)
16.08.2026 07:05 23,5 °C 18,9 °C 56 % 85 % 1014,8 hPa 0,0 l/m² 4,8 km/h (1 Bft) N-NW 337 ° 0 min 7 W/m² 16,3 °C 18,9 °C 9,7 km/h (2 Bft)
16.08.2026 07:06 23,5 °C 18,9 °C 56 % 85 % 1014,8 hPa 0,0 l/m² 9,7 km/h (2 Bft) N-NW 337 ° 0 min 7 W/m² 16,3 °C 17,5 °C 16,1 km/h (3 Bft)
16.08.2026 07:07 23,5 °C 18,9 °C 56 % 85 % 1014,9 hPa 0,0 l/m² 6,4 km/h (2 Bft) W-NW 292 ° 0 min 7 W/m² 16,3 °C 18,9 °C 11,3 km/h (2 Bft)
16.08.2026 07:08 23,5 °C 18,9 °C 56 % 85 % 1014,8 hPa 0,0 l/m² 6,4 km/h (2 Bft) NW 315 ° 0 min 7 W/m² 16,3 °C 18,9 °C 11,3 km/h (2 Bft)
16.08.2026 07:09 23,5 °C 18,9 °C 56 % 85 % 1014,8 hPa 0,0 l/m² 6,4 km/h (2 Bft) NW 315 ° 0 min 9 W/m² 16,3 °C 18,9 °C 8,0 km/h (2 Bft)
16.08.2026 07:10 23,5 °C 18,9 °C 56 % 85 % 1014,8 hPa 0,0 l/m² 3,2 km/h (1 Bft) NW 315 ° 0 min 9 W/m² 16,3 °C 18,9 °C 12,9 km/h (3 Bft)
16.08.2026 07:11 23,5 °C 18,8 °C 56 % 85 % 1014,9 hPa 0,0 l/m² 6,4 km/h (2 Bft) NW 315 ° 0 min 9 W/m² 16,2 °C 18,8 °C 9,7 km/h (2 Bft)
16.08.2026 07:12 23,5 °C 18,9 °C 56 % 85 % 1014,9 hPa 0,0 l/m² 9,7 km/h (2 Bft) N-NW 337 ° 0 min 9 W/m² 16,3 °C 17,5 °C 14,5 km/h (3 Bft)
16.08.2026 07:13 23,5 °C 18,8 °C 56 % 85 % 1014,9 hPa 0,0 l/m² 6,4 km/h (2 Bft) W 270 ° 0 min 9 W/m² 16,2 °C 18,8 °C 14,5 km/h (3 Bft)
16.08.2026 07:14 23,5 °C 18,8 °C 56 % 85 % 1014,8 hPa 0,0 l/m² 4,8 km/h (1 Bft) W 270 ° 0 min 9 W/m² 16,2 °C 18,8 °C 12,9 km/h (3 Bft)
16.08.2026 07:15 23,5 °C 18,8 °C 56 % 85 % 1014,9 hPa 0,0 l/m² 8,0 km/h (2 Bft) NW 315 ° 0 min 11 W/m² 16,2 °C 18,1 °C 14,5 km/h (3 Bft)
16.08.2026 07:16 23,5 °C 18,8 °C 56 % 85 % 1014,9 hPa 0,0 l/m² 6,4 km/h (2 Bft) NW 315 ° 0 min 11 W/m² 16,2 °C 18,8 °C 12,9 km/h (3 Bft)
16.08.2026 07:17 23,5 °C 18,8 °C 56 % 85 % 1014,8 hPa 0,0 l/m² 6,4 km/h (2 Bft) N-NW 337 ° 0 min 11 W/m² 16,2 °C 18,8 °C 12,9 km/h (3 Bft)
16.08.2026 07:18 23,5 °C 18,7 °C 56 % 85 % 1014,8 hPa 0,0 l/m² 8,0 km/h (2 Bft) W-NW 292 ° 0 min 11 W/m² 16,1 °C 18,0 °C 14,5 km/h (3 Bft)
16.08.2026 07:19 23,5 °C 18,7 °C 56 % 85 % 1014,9 hPa 0,0 l/m² 3,2 km/h (1 Bft) W-NW 292 ° 0 min 11 W/m² 16,1 °C 18,7 °C 6,4 km/h (2 Bft)
16.08.2026 07:20 23,5 °C 18,7 °C 56 % 85 % 1014,8 hPa 0,0 l/m² 3,2 km/h (1 Bft) W-NW 292 ° 0 min 11 W/m² 16,1 °C 18,7 °C 6,4 km/h (2 Bft)
16.08.2026 07:21 23,5 °C 18,7 °C 56 % 85 % 1015,0 hPa 0,0 l/m² 4,8 km/h (1 Bft) W-NW 292 ° 0 min 11 W/m² 16,1 °C 18,7 °C 9,7 km/h (2 Bft)
16.08.2026 07:22 23,5 °C 18,7 °C 56 % 85 % 1014,9 hPa 0,0 l/m² 4,8 km/h (1 Bft) W-NW 292 ° 0 min 12 W/m² 16,1 °C 18,7 °C 8,0 km/h (2 Bft)
16.08.2026 07:23 23,5 °C 18,7 °C 56 % 85 % 1015,0 hPa 0,0 l/m² 3,2 km/h (1 Bft) W-NW 292 ° 0 min 12 W/m² 16,1 °C 18,7 °C 9,7 km/h (2 Bft)
16.08.2026 07:24 23,5 °C 18,7 °C 56 % 85 % 1015,0 hPa 0,0 l/m² 4,8 km/h (1 Bft) W 270 ° 0 min 12 W/m² 16,1 °C 18,7 °C 9,7 km/h (2 Bft)
16.08.2026 07:25 23,5 °C 18,6 °C 56 % 85 % 1015,0 hPa 0,0 l/m² 6,4 km/h (2 Bft) W-NW 292 ° 0 min 12 W/m² 16,0 °C 18,6 °C 11,3 km/h (2 Bft)
16.08.2026 07:26 23,5 °C 18,6 °C 56 % 85 % 1015,0 hPa 0,0 l/m² 3,2 km/h (1 Bft) NW 315 ° 0 min 14 W/m² 16,0 °C 18,6 °C 4,8 km/h (1 Bft)
16.08.2026 07:27 23,5 °C 18,6 °C 56 % 85 % 1015,0 hPa 0,0 l/m² 1,6 km/h (1 Bft) W-SW 247 ° 0 min 14 W/m² 16,0 °C 18,6 °C 4,8 km/h (1 Bft)
16.08.2026 07:28 23,4 °C 18,6 °C 56 % 85 % 1015,0 hPa 0,0 l/m² 4,8 km/h (1 Bft) W-SW 247 ° 0 min 14 W/m² 16,0 °C 18,6 °C 6,4 km/h (2 Bft)
16.08.2026 07:29 23,5 °C 18,6 °C 56 % 85 % 1015,0 hPa 0,0 l/m² 3,2 km/h (1 Bft) W 270 ° 0 min 14 W/m² 16,0 °C 18,6 °C 3,2 km/h (1 Bft)
16.08.2026 07:30 23,5 °C 18,6 °C 56 % 86 % 1015,1 hPa 0,0 l/m² 0,0 km/h (0 Bft) W 270 ° 0 min 14 W/m² 16,2 °C 18,6 °C 3,2 km/h (1 Bft)
16.08.2026 07:31 23,5 °C 18,6 °C 56 % 85 % 1015,0 hPa 0,0 l/m² 4,8 km/h (1 Bft) W 270 ° 0 min 14 W/m² 16,0 °C 18,6 °C 6,4 km/h (2 Bft)
16.08.2026 07:32 23,5 °C 18,6 °C 56 % 85 % 1015,1 hPa 0,0 l/m² 3,2 km/h (1 Bft) W 270 ° 0 min 16 W/m² 16,0 °C 18,6 °C 4,8 km/h (1 Bft)
16.08.2026 07:33 23,5 °C 18,6 °C 56 % 85 % 1015,1 hPa 0,0 l/m² 3,2 km/h (1 Bft) W 270 ° 0 min 16 W/m² 16,0 °C 18,6 °C 4,8 km/h (1 Bft)
16.08.2026 07:34 23,5 °C 18,5 °C 56 % 86 % 1015,1 hPa 0,0 l/m² 1,6 km/h (1 Bft) W 270 ° 0 min 16 W/m² 16,1 °C 18,5 °C 4,8 km/h (1 Bft)
16.08.2026 07:35 23,5 °C 18,5 °C 56 % 86 % 1015,0 hPa 0,0 l/m² 6,4 km/h (2 Bft) W-NW 292 ° 0 min 16 W/m² 16,1 °C 18,5 °C 9,7 km/h (2 Bft)
16.08.2026 07:36 23,5 °C 18,5 °C 56 % 86 % 1015,1 hPa 0,0 l/m² 3,2 km/h (1 Bft) W-SW 247 ° 0 min 18 W/m² 16,1 °C 18,5 °C 8,0 km/h (2 Bft)
16.08.2026 07:37 23,5 °C 18,4 °C 56 % 86 % 1015,1 hPa 0,0 l/m² 3,2 km/h (1 Bft) W-SW 247 ° 0 min 18 W/m² 16,0 °C 18,4 °C 6,4 km/h (2 Bft)
16.08.2026 07:38 23,4 °C 18,4 °C 56 % 86 % 1015,1 hPa 0,0 l/m² 1,6 km/h (1 Bft) W-SW 247 ° 0 min 18 W/m² 16,0 °C 18,4 °C 4,8 km/h (1 Bft)
16.08.2026 07:39 23,5 °C 18,4 °C 56 % 86 % 1015,1 hPa 0,0 l/m² 1,6 km/h (1 Bft) W-SW 247 ° 0 min 19 W/m² 16,0 °C 18,4 °C 3,2 km/h (1 Bft)
16.08.2026 07:40 23,4 °C 18,5 °C 56 % 86 % 1015,1 hPa 0,0 l/m² 3,2 km/h (1 Bft) W-SW 247 ° 0 min 19 W/m² 16,1 °C 18,5 °C 4,8 km/h (1 Bft)
16.08.2026 07:41 23,5 °C 18,5 °C 56 % 86 % 1015,1 hPa 0,0 l/m² 4,8 km/h (1 Bft) W 270 ° 0 min 21 W/m² 16,1 °C 18,5 °C 9,7 km/h (2 Bft)
16.08.2026 07:42 23,5 °C 18,4 °C 56 % 86 % 1015,0 hPa 0,0 l/m² 1,6 km/h (1 Bft) W 270 ° 0 min 21 W/m² 16,0 °C 18,4 °C 3,2 km/h (1 Bft)
16.08.2026 07:43 23,5 °C 18,4 °C 56 % 86 % 1015,1 hPa 0,0 l/m² 0,0 km/h (0 Bft) W 270 ° 0 min 21 W/m² 16,0 °C 18,4 °C 1,6 km/h (1 Bft)
16.08.2026 07:44 23,5 °C 18,4 °C 56 % 86 % 1015,1 hPa 0,0 l/m² 4,8 km/h (1 Bft) W 270 ° 0 min 23 W/m² 16,0 °C 18,4 °C 6,4 km/h (2 Bft)
16.08.2026 07:45 23,4 °C 18,4 °C 56 % 86 % 1015,1 hPa 0,0 l/m² 3,2 km/h (1 Bft) W 270 ° 0 min 25 W/m² 16,0 °C 18,4 °C 6,4 km/h (2 Bft)
16.08.2026 07:46 23,5 °C 18,4 °C 56 % 86 % 1015,1 hPa 0,0 l/m² 1,6 km/h (1 Bft) W 270 ° 0 min 26 W/m² 16,0 °C 18,4 °C 3,2 km/h (1 Bft)
16.08.2026 07:47 23,4 °C 18,4 °C 56 % 86 % 1015,1 hPa 0,0 l/m² 3,2 km/h (1 Bft) W 270 ° 0 min 28 W/m² 16,0 °C 18,4 °C 4,8 km/h (1 Bft)
16.08.2026 07:48 23,5 °C 18,4 °C 56 % 86 % 1015,1 hPa 0,0 l/m² 1,6 km/h (1 Bft) W 270 ° 0 min 30 W/m² 16,0 °C 18,4 °C 4,8 km/h (1 Bft)
16.08.2026 07:49 23,5 °C 18,4 °C 56 % 86 % 1015,2 hPa 0,0 l/m² 3,2 km/h (1 Bft) W 270 ° 0 min 30 W/m² 16,0 °C 18,4 °C 4,8 km/h (1 Bft)
16.08.2026 07:50 23,5 °C 18,4 °C 56 % 86 % 1015,1 hPa 0,0 l/m² 3,2 km/h (1 Bft) W 270 ° 0 min 32 W/m² 16,0 °C 18,4 °C 6,4 km/h (2 Bft)
16.08.2026 07:51 23,5 °C 18,4 °C 56 % 86 % 1015,1 hPa 0,0 l/m² 3,2 km/h (1 Bft) W 270 ° 0 min 33 W/m² 16,0 °C 18,4 °C 4,8 km/h (1 Bft)
16.08.2026 07:52 23,5 °C 18,4 °C 56 % 86 % 1015,1 hPa 0,0 l/m² 3,2 km/h (1 Bft) W 270 ° 0 min 35 W/m² 16,0 °C 18,4 °C 6,4 km/h (2 Bft)
16.08.2026 07:53 23,4 °C 18,4 °C 56 % 86 % 1015,1 hPa 0,0 l/m² 4,8 km/h (1 Bft) W 270 ° 0 min 35 W/m² 16,0 °C 18,4 °C 11,3 km/h (2 Bft)
16.08.2026 07:54 23,4 °C 18,4 °C 56 % 86 % 1015,1 hPa 0,0 l/m² 4,8 km/h (1 Bft) NW 315 ° 0 min 35 W/m² 16,0 °C 18,4 °C 8,0 km/h (2 Bft)
16.08.2026 07:55 23,4 °C 18,4 °C 56 % 86 % 1015,0 hPa 0,0 l/m² 4,8 km/h (1 Bft) NW 315 ° 0 min 35 W/m² 16,0 °C 18,4 °C 6,4 km/h (2 Bft)
16.08.2026 07:56 23,5 °C 18,4 °C 56 % 86 % 1015,0 hPa 0,0 l/m² 3,2 km/h (1 Bft) NW 315 ° 0 min 35 W/m² 16,0 °C 18,4 °C 4,8 km/h (1 Bft)
16.08.2026 07:57 23,4 °C 18,4 °C 56 % 86 % 1015,0 hPa 0,0 l/m² 3,2 km/h (1 Bft) NW 315 ° 0 min 37 W/m² 16,0 °C 18,4 °C 4,8 km/h (1 Bft)
16.08.2026 07:58 23,4 °C 18,4 °C 56 % 86 % 1015,0 hPa 0,0 l/m² 3,2 km/h (1 Bft) NW 315 ° 0 min 37 W/m² 16,0 °C 18,4 °C 4,8 km/h (1 Bft)
16.08.2026 07:59 23,4 °C 18,4 °C 56 % 86 % 1015,1 hPa 0,0 l/m² 4,8 km/h (1 Bft) NW 315 ° 0 min 37 W/m² 16,0 °C 18,4 °C 6,4 km/h (2 Bft)
16.08.2026 08:00 23,5 °C 18,4 °C 56 % 86 % 1015,1 hPa 0,0 l/m² 4,8 km/h (1 Bft) NW 315 ° 0 min 37 W/m² 16,0 °C 18,4 °C 6,4 km/h (2 Bft)
16.08.2026 08:01 23,5 °C 18,4 °C 56 % 86 % 1015,0 hPa 0,0 l/m² 3,2 km/h (1 Bft) NW 315 ° 0 min 39 W/m² 16,0 °C 18,4 °C 4,8 km/h (1 Bft)
16.08.2026 08:02 23,5 °C 18,4 °C 56 % 86 % 1015,1 hPa 0,0 l/m² 4,8 km/h (1 Bft) N-NW 337 ° 0 min 39 W/m² 16,0 °C 18,4 °C 6,4 km/h (2 Bft)
16.08.2026 08:03 23,5 °C 18,4 °C 56 % 86 % 1015,1 hPa 0,0 l/m² 3,2 km/h (1 Bft) NW 315 ° 0 min 42 W/m² 16,0 °C 18,4 °C 4,8 km/h (1 Bft)
16.08.2026 08:04 23,4 °C 18,4 °C 56 % 86 % 1015,1 hPa 0,0 l/m² 6,4 km/h (2 Bft) N-NW 337 ° 0 min 42 W/m² 16,0 °C 18,4 °C 8,0 km/h (2 Bft)
16.08.2026 08:05 23,4 °C 18,4 °C 56 % 86 % 1015,1 hPa 0,0 l/m² 9,7 km/h (2 Bft) N-NW 337 ° 0 min 44 W/m² 16,0 °C 17,0 °C 16,1 km/h (3 Bft)
16.08.2026 08:06 23,5 °C 18,4 °C 56 % 85 % 1015,1 hPa 0,0 l/m² 8,0 km/h (2 Bft) N-NW 337 ° 0 min 46 W/m² 15,8 °C 17,7 °C 12,9 km/h (3 Bft)
16.08.2026 08:07 23,4 °C 18,4 °C 56 % 85 % 1015,1 hPa 0,0 l/m² 8,0 km/h (2 Bft) N-NW 337 ° 0 min 47 W/m² 15,8 °C 17,7 °C 12,9 km/h (3 Bft)
16.08.2026 08:08 23,5 °C 18,4 °C 56 % 85 % 1015,1 hPa 0,0 l/m² 8,0 km/h (2 Bft) N-NW 337 ° 0 min 49 W/m² 15,8 °C 17,7 °C 12,9 km/h (3 Bft)
16.08.2026 08:09 23,5 °C 18,4 °C 56 % 85 % 1015,1 hPa 0,0 l/m² 8,0 km/h (2 Bft) N 360 ° 1 min 53 W/m² 15,8 °C 17,7 °C 9,7 km/h (2 Bft)
16.08.2026 08:10 23,5 °C 18,4 °C 56 % 85 % 1015,1 hPa 0,0 l/m² 6,4 km/h (2 Bft) N-NW 337 ° 1 min 54 W/m² 15,8 °C 18,4 °C 9,7 km/h (2 Bft)
16.08.2026 08:11 23,5 °C 18,4 °C 56 % 85 % 1015,1 hPa 0,0 l/m² 3,2 km/h (1 Bft) N 360 ° 1 min 56 W/m² 15,8 °C 18,4 °C 6,4 km/h (2 Bft)
16.08.2026 08:12 23,5 °C 18,4 °C 56 % 85 % 1015,0 hPa 0,0 l/m² 3,2 km/h (1 Bft) N 360 ° 1 min 58 W/m² 15,8 °C 18,4 °C 6,4 km/h (2 Bft)
16.08.2026 08:13 23,5 °C 18,4 °C 56 % 85 % 1015,1 hPa 0,0 l/m² 8,0 km/h (2 Bft) N 360 ° 1 min 60 W/m² 15,8 °C 17,7 °C 12,9 km/h (3 Bft)
16.08.2026 08:14 23,5 °C 18,4 °C 56 % 84 % 1015,1 hPa 0,0 l/m² 8,0 km/h (2 Bft) N 360 ° 1 min 62 W/m² 15,6 °C 17,7 °C 12,9 km/h (3 Bft)
16.08.2026 08:15 23,6 °C 18,4 °C 56 % 84 % 1015,1 hPa 0,0 l/m² 6,4 km/h (2 Bft) NW 315 ° 1 min 63 W/m² 15,6 °C 18,4 °C 12,9 km/h (3 Bft)
16.08.2026 08:16 23,5 °C 18,3 °C 56 % 84 % 1015,0 hPa 0,0 l/m² 6,4 km/h (2 Bft) N 360 ° 1 min 63 W/m² 15,5 °C 18,3 °C 8,0 km/h (2 Bft)
16.08.2026 08:17 23,5 °C 18,4 °C 56 % 84 % 1015,1 hPa 0,0 l/m² 9,7 km/h (2 Bft) N-NW 337 ° 1 min 63 W/m² 15,6 °C 17,0 °C 14,5 km/h (3 Bft)
16.08.2026 08:18 23,5 °C 18,4 °C 56 % 84 % 1015,1 hPa 0,0 l/m² 9,7 km/h (2 Bft) N-NW 337 ° 1 min 63 W/m² 15,6 °C 17,0 °C 12,9 km/h (3 Bft)
16.08.2026 08:19 23,5 °C 18,4 °C 56 % 84 % 1015,1 hPa 0,0 l/m² 11,3 km/h (2 Bft) N-NW 337 ° 1 min 63 W/m² 15,6 °C 16,4 °C 16,1 km/h (3 Bft)
16.08.2026 08:20 23,5 °C 18,4 °C 57 % 84 % 1015,1 hPa 0,0 l/m² 8,0 km/h (2 Bft) N-NW 337 ° 1 min 63 W/m² 15,6 °C 17,7 °C 11,3 km/h (2 Bft)
16.08.2026 08:21 23,5 °C 18,3 °C 56 % 84 % 1015,1 hPa 0,0 l/m² 8,0 km/h (2 Bft) N-NW 337 ° 1 min 65 W/m² 15,5 °C 17,6 °C 9,7 km/h (2 Bft)
16.08.2026 08:22 23,5 °C 18,4 °C 57 % 84 % 1015,2 hPa 0,0 l/m² 6,4 km/h (2 Bft) N-NW 337 ° 1 min 67 W/m² 15,6 °C 18,4 °C 9,7 km/h (2 Bft)
16.08.2026 08:23 23,5 °C 18,4 °C 57 % 84 % 1015,2 hPa 0,0 l/m² 11,3 km/h (2 Bft) N-NW 337 ° 1 min 67 W/m² 15,6 °C 16,4 °C 14,5 km/h (3 Bft)
16.08.2026 08:24 23,5 °C 18,4 °C 57 % 84 % 1015,2 hPa 0,0 l/m² 8,0 km/h (2 Bft) N-NW 337 ° 1 min 69 W/m² 15,6 °C 17,7 °C 9,7 km/h (2 Bft)
16.08.2026 08:25 23,6 °C 18,4 °C 57 % 84 % 1015,1 hPa 0,0 l/m² 8,0 km/h (2 Bft) N-NW 337 ° 1 min 69 W/m² 15,6 °C 17,7 °C 9,7 km/h (2 Bft)
16.08.2026 08:26 23,5 °C 18,4 °C 57 % 84 % 1015,2 hPa 0,0 l/m² 8,0 km/h (2 Bft) N-NW 337 ° 1 min 70 W/m² 15,6 °C 17,7 °C 9,7 km/h (2 Bft)
16.08.2026 08:27 23,6 °C 18,4 °C 57 % 84 % 1015,2 hPa 0,0 l/m² 4,8 km/h (1 Bft) NW 315 ° 1 min 72 W/m² 15,6 °C 18,4 °C 8,0 km/h (2 Bft)
16.08.2026 08:28 23,5 °C 18,5 °C 56 % 84 % 1015,3 hPa 0,0 l/m² 6,4 km/h (2 Bft) W-NW 292 ° 1 min 72 W/m² 15,7 °C 18,5 °C 12,9 km/h (3 Bft)
16.08.2026 08:29 23,6 °C 18,5 °C 56 % 85 % 1015,3 hPa 0,0 l/m² 11,3 km/h (2 Bft) N-NW 337 ° 1 min 74 W/m² 15,9 °C 16,5 °C 16,1 km/h (3 Bft)
16.08.2026 08:30 23,6 °C 18,5 °C 57 % 84 % 1015,3 hPa 0,0 l/m² 9,7 km/h (2 Bft) N-NW 337 ° 1 min 76 W/m² 15,7 °C 17,1 °C 16,1 km/h (3 Bft)
16.08.2026 08:31 23,6 °C 18,5 °C 56 % 84 % 1015,3 hPa 0,0 l/m² 6,4 km/h (2 Bft) NW 315 ° 1 min 77 W/m² 15,7 °C 18,5 °C 12,9 km/h (3 Bft)
16.08.2026 08:32 23,6 °C 18,6 °C 56 % 84 % 1015,3 hPa 0,0 l/m² 9,7 km/h (2 Bft) N-NW 337 ° 1 min 79 W/m² 15,8 °C 17,2 °C 12,9 km/h (3 Bft)
16.08.2026 08:33 23,5 °C 18,6 °C 57 % 84 % 1015,3 hPa 0,0 l/m² 8,0 km/h (2 Bft) N-NW 337 ° 1 min 83 W/m² 15,8 °C 17,9 °C 14,5 km/h (3 Bft)
16.08.2026 08:34 23,6 °C 18,5 °C 57 % 84 % 1015,4 hPa 0,0 l/m² 9,7 km/h (2 Bft) N-NW 337 ° 1 min 84 W/m² 15,7 °C 17,1 °C 14,5 km/h (3 Bft)
16.08.2026 08:35 23,5 °C 18,6 °C 57 % 84 % 1015,2 hPa 0,0 l/m² 4,8 km/h (1 Bft) W 270 ° 1 min 86 W/m² 15,8 °C 18,6 °C 9,7 km/h (2 Bft)
16.08.2026 08:36 23,6 °C 18,6 °C 57 % 85 % 1015,3 hPa 0,0 l/m² 4,8 km/h (1 Bft) W 270 ° 1 min 90 W/m² 16,0 °C 18,6 °C 11,3 km/h (2 Bft)
16.08.2026 08:37 23,6 °C 18,6 °C 57 % 85 % 1015,4 hPa 0,0 l/m² 4,8 km/h (1 Bft) W-NW 292 ° 1 min 91 W/m² 16,0 °C 18,6 °C 6,4 km/h (2 Bft)
16.08.2026 08:38 23,6 °C 18,6 °C 57 % 85 % 1015,3 hPa 0,0 l/m² 6,4 km/h (2 Bft) W-NW 292 ° 1 min 98 W/m² 16,0 °C 18,6 °C 9,7 km/h (2 Bft)
16.08.2026 08:39 23,6 °C 18,7 °C 57 % 85 % 1015,3 hPa 0,0 l/m² 6,4 km/h (2 Bft) W-NW 292 ° 1 min 100 W/m² 16,1 °C 18,7 °C 12,9 km/h (3 Bft)
16.08.2026 08:40 23,6 °C 18,6 °C 57 % 84 % 1015,3 hPa 0,0 l/m² 4,8 km/h (1 Bft) NW 315 ° 1 min 102 W/m² 15,8 °C 18,6 °C 8,0 km/h (2 Bft)
16.08.2026 08:41 23,6 °C 18,6 °C 57 % 84 % 1015,3 hPa 0,0 l/m² 4,8 km/h (1 Bft) N-NW 337 ° 1 min 102 W/m² 15,8 °C 18,6 °C 6,4 km/h (2 Bft)
16.08.2026 08:42 23,6 °C 18,7 °C 57 % 84 % 1015,3 hPa 0,0 l/m² 4,8 km/h (1 Bft) N-NW 337 ° 1 min 104 W/m² 15,9 °C 18,7 °C 6,4 km/h (2 Bft)
16.08.2026 08:43 23,6 °C 18,7 °C 57 % 84 % 1015,3 hPa 0,0 l/m² 8,0 km/h (2 Bft) W-NW 292 ° 1 min 102 W/m² 15,9 °C 18,0 °C 12,9 km/h (3 Bft)
16.08.2026 08:44 23,6 °C 18,7 °C 57 % 84 % 1015,3 hPa 0,0 l/m² 6,4 km/h (2 Bft) NW 315 ° 1 min 102 W/m² 15,9 °C 18,7 °C 8,0 km/h (2 Bft)
16.08.2026 08:45 23,6 °C 18,7 °C 57 % 84 % 1015,4 hPa 0,0 l/m² 8,0 km/h (2 Bft) N-NW 337 ° 1 min 97 W/m² 15,9 °C 18,0 °C 16,1 km/h (3 Bft)
16.08.2026 08:46 23,6 °C 18,7 °C 57 % 84 % 1015,4 hPa 0,0 l/m² 6,4 km/h (2 Bft) W 270 ° 1 min 95 W/m² 15,9 °C 18,7 °C 11,3 km/h (2 Bft)
16.08.2026 08:47 23,6 °C 18,7 °C 57 % 84 % 1015,3 hPa 0,0 l/m² 8,0 km/h (2 Bft) NW 315 ° 1 min 93 W/m² 15,9 °C 18,0 °C 11,3 km/h (2 Bft)
16.08.2026 08:48 23,6 °C 18,7 °C 57 % 84 % 1015,4 hPa 0,0 l/m² 8,0 km/h (2 Bft) N-NW 337 ° 1 min 93 W/m² 15,9 °C 18,0 °C 14,5 km/h (3 Bft)
16.08.2026 08:49 23,6 °C 18,7 °C 57 % 84 % 1015,3 hPa 0,0 l/m² 8,0 km/h (2 Bft) NW 315 ° 1 min 91 W/m² 15,9 °C 18,0 °C 12,9 km/h (3 Bft)
16.08.2026 08:50 23,6 °C 18,7 °C 57 % 84 % 1015,3 hPa 0,0 l/m² 6,4 km/h (2 Bft) NW 315 ° 1 min 90 W/m² 15,9 °C 18,7 °C 9,7 km/h (2 Bft)
16.08.2026 08:51 23,6 °C 18,7 °C 57 % 84 % 1015,2 hPa 0,0 l/m² 4,8 km/h (1 Bft) NW 315 ° 1 min 88 W/m² 15,9 °C 18,7 °C 9,7 km/h (2 Bft)
16.08.2026 08:52 23,6 °C 18,8 °C 57 % 84 % 1015,2 hPa 0,0 l/m² 8,0 km/h (2 Bft) N 360 ° 1 min 86 W/m² 16,0 °C 18,1 °C 14,5 km/h (3 Bft)
16.08.2026 08:53 23,6 °C 18,8 °C 57 % 84 % 1015,2 hPa 0,0 l/m² 8,0 km/h (2 Bft) N-NW 337 ° 1 min 84 W/m² 16,0 °C 18,1 °C 9,7 km/h (2 Bft)
16.08.2026 08:54 23,6 °C 18,7 °C 57 % 83 % 1015,1 hPa 0,0 l/m² 4,8 km/h (1 Bft) N-NW 337 ° 1 min 83 W/m² 15,8 °C 18,7 °C 8,0 km/h (2 Bft)
16.08.2026 08:55 23,6 °C 18,8 °C 57 % 83 % 1015,2 hPa 0,0 l/m² 8,0 km/h (2 Bft) N-NW 337 ° 1 min 83 W/m² 15,8 °C 18,1 °C 9,7 km/h (2 Bft)
16.08.2026 08:56 23,6 °C 18,7 °C 57 % 84 % 1015,2 hPa 0,0 l/m² 6,4 km/h (2 Bft) NW 315 ° 1 min 81 W/m² 15,9 °C 18,7 °C 9,7 km/h (2 Bft)
16.08.2026 08:57 23,6 °C 18,7 °C 57 % 84 % 1015,2 hPa 0,0 l/m² 8,0 km/h (2 Bft) N-NW 337 ° 1 min 77 W/m² 15,9 °C 18,0 °C 9,7 km/h (2 Bft)
16.08.2026 08:58 23,7 °C 18,8 °C 57 % 84 % 1015,2 hPa 0,0 l/m² 3,2 km/h (1 Bft) W-NW 292 ° 1 min 76 W/m² 16,0 °C 18,8 °C 6,4 km/h (2 Bft)
16.08.2026 08:59 23,6 °C 18,8 °C 57 % 84 % 1015,2 hPa 0,0 l/m² 3,2 km/h (1 Bft) N-NW 337 ° 1 min 74 W/m² 16,0 °C 18,8 °C 6,4 km/h (2 Bft)
16.08.2026 09:00 23,7 °C 18,8 °C 57 % 84 % 1015,2 hPa 0,0 l/m² 3,2 km/h (1 Bft) N-NW 337 ° 1 min 72 W/m² 16,0 °C 18,8 °C 8,0 km/h (2 Bft)
16.08.2026 09:01 23,6 °C 18,8 °C 57 % 84 % 1015,1 hPa 0,0 l/m² 9,7 km/h (2 Bft) NW 315 ° 1 min 70 W/m² 16,0 °C 17,4 °C 14,5 km/h (3 Bft)
16.08.2026 09:02 23,7 °C 18,8 °C 58 % 83 % 1015,2 hPa 0,0 l/m² 8,0 km/h (2 Bft) W-NW 292 ° 1 min 70 W/m² 15,8 °C 18,1 °C 12,9 km/h (3 Bft)
16.08.2026 09:03 23,7 °C 18,8 °C 58 % 83 % 1015,2 hPa 0,0 l/m² 3,2 km/h (1 Bft) W-NW 292 ° 1 min 72 W/m² 15,8 °C 18,8 °C 6,4 km/h (2 Bft)
16.08.2026 09:04 23,7 °C 18,8 °C 57 % 83 % 1015,1 hPa 0,0 l/m² 4,8 km/h (1 Bft) N-NW 337 ° 1 min 76 W/m² 15,8 °C 18,8 °C 6,4 km/h (2 Bft)
16.08.2026 09:05 23,7 °C 18,8 °C 58 % 83 % 1015,1 hPa 0,0 l/m² 4,8 km/h (1 Bft) N 360 ° 1 min 83 W/m² 15,8 °C 18,8 °C 6,4 km/h (2 Bft)
16.08.2026 09:06 23,6 °C 18,8 °C 58 % 83 % 1015,1 hPa 0,0 l/m² 4,8 km/h (1 Bft) NW 315 ° 1 min 90 W/m² 15,8 °C 18,8 °C 8,0 km/h (2 Bft)
16.08.2026 09:07 23,7 °C 18,8 °C 58 % 83 % 1015,2 hPa 0,0 l/m² 4,8 km/h (1 Bft) N-NW 337 ° 1 min 113 W/m² 15,8 °C 18,8 °C 8,0 km/h (2 Bft)
16.08.2026 09:08 23,7 °C 18,8 °C 58 % 83 % 1015,2 hPa 0,0 l/m² 4,8 km/h (1 Bft) W-NW 292 ° 1 min 111 W/m² 15,8 °C 18,8 °C 8,0 km/h (2 Bft)
16.08.2026 09:09 23,7 °C 18,9 °C 58 % 83 % 1015,2 hPa 0,0 l/m² 6,4 km/h (2 Bft) NW 315 ° 1 min 121 W/m² 15,9 °C 18,9 °C 9,7 km/h (2 Bft)
16.08.2026 09:10 23,7 °C 18,9 °C 58 % 83 % 1015,1 hPa 0,0 l/m² 6,4 km/h (2 Bft) N-NW 337 ° 1 min 118 W/m² 15,9 °C 18,9 °C 8,0 km/h (2 Bft)
16.08.2026 09:11 23,7 °C 18,9 °C 58 % 83 % 1015,1 hPa 0,0 l/m² 6,4 km/h (2 Bft) NW 315 ° 1 min 114 W/m² 15,9 °C 18,9 °C 14,5 km/h (3 Bft)
16.08.2026 09:12 23,7 °C 18,9 °C 58 % 83 % 1015,0 hPa 0,0 l/m² 4,8 km/h (1 Bft) NW 315 ° 1 min 118 W/m² 15,9 °C 18,9 °C 8,0 km/h (2 Bft)
16.08.2026 09:13 23,7 °C 19,0 °C 57 % 83 % 1015,1 hPa 0,0 l/m² 4,8 km/h (1 Bft) N-NO 22 ° 1 min 155 W/m² 16,0 °C 19,0 °C 9,7 km/h (2 Bft)
16.08.2026 09:14 23,7 °C 18,9 °C 58 % 83 % 1015,1 hPa 0,0 l/m² 4,8 km/h (1 Bft) NW 315 ° 1 min 209 W/m² 15,9 °C 18,9 °C 6,4 km/h (2 Bft)
16.08.2026 09:15 23,7 °C 19,0 °C 58 % 83 % 1015,1 hPa 0,0 l/m² 4,8 km/h (1 Bft) W-NW 292 ° 1 min 241 W/m² 16,0 °C 19,0 °C 8,0 km/h (2 Bft)
16.08.2026 09:16 23,7 °C 19,2 °C 58 % 83 % 1015,1 hPa 0,0 l/m² 8,0 km/h (2 Bft) NW 315 ° 1 min 241 W/m² 16,2 °C 18,5 °C 14,5 km/h (3 Bft)
16.08.2026 09:17 23,7 °C 19,2 °C 57 % 81 % 1015,1 hPa 0,0 l/m² 8,0 km/h (2 Bft) W-NW 292 ° 1 min 241 W/m² 15,9 °C 18,5 °C 12,9 km/h (3 Bft)
16.08.2026 09:18 23,7 °C 19,2 °C 58 % 81 % 1015,1 hPa 0,0 l/m² 11,3 km/h (2 Bft) NW 315 ° 1 min 260 W/m² 15,9 °C 17,3 °C 14,5 km/h (3 Bft)
16.08.2026 09:19 23,7 °C 19,3 °C 58 % 81 % 1015,2 hPa 0,0 l/m² 8,0 km/h (2 Bft) W 270 ° 1 min 265 W/m² 16,0 °C 18,6 °C 14,5 km/h (3 Bft)
16.08.2026 09:20 23,7 °C 19,3 °C 58 % 80 % 1015,2 hPa 0,0 l/m² 9,7 km/h (2 Bft) N-NW 337 ° 1 min 265 W/m² 15,8 °C 18,0 °C 12,9 km/h (3 Bft)
16.08.2026 09:21 23,7 °C 19,4 °C 58 % 80 % 1015,2 hPa 0,0 l/m² 6,4 km/h (2 Bft) N-NW 337 ° 1 min 279 W/m² 15,9 °C 19,4 °C 12,9 km/h (3 Bft)
16.08.2026 09:22 23,7 °C 19,6 °C 58 % 80 % 1015,2 hPa 0,0 l/m² 8,0 km/h (2 Bft) N 360 ° 1 min 322 W/m² 16,1 °C 18,9 °C 12,9 km/h (3 Bft)
16.08.2026 09:23 23,7 °C 19,6 °C 58 % 79 % 1015,2 hPa 0,0 l/m² 12,9 km/h (3 Bft) N-NW 337 ° 1 min 350 W/m² 15,9 °C 17,3 °C 17,7 km/h (3 Bft)
16.08.2026 09:24 23,7 °C 19,7 °C 58 % 79 % 1015,2 hPa 0,0 l/m² 14,5 km/h (3 Bft) N-NW 337 ° 1 min 334 W/m² 16,0 °C 17,0 °C 17,7 km/h (3 Bft)
16.08.2026 09:25 23,7 °C 19,6 °C 58 % 79 % 1015,1 hPa 0,0 l/m² 6,4 km/h (2 Bft) NW 315 ° 1 min 339 W/m² 15,9 °C 19,6 °C 12,9 km/h (3 Bft)
16.08.2026 09:26 23,7 °C 19,7 °C 57 % 79 % 1015,2 hPa 0,0 l/m² 11,3 km/h (2 Bft) N-NW 337 ° 1 min 408 W/m² 16,0 °C 17,9 °C 17,7 km/h (3 Bft)
16.08.2026 09:27 23,7 °C 19,7 °C 57 % 79 % 1015,2 hPa 0,0 l/m² 16,1 km/h (3 Bft) NW 315 ° 1 min 385 W/m² 16,0 °C 16,6 °C 24,1 km/h (4 Bft)
16.08.2026 09:28 23,7 °C 19,7 °C 57 % 79 % 1015,2 hPa 0,0 l/m² 16,1 km/h (3 Bft) N-NW 337 ° 1 min 329 W/m² 16,0 °C 16,6 °C 24,1 km/h (4 Bft)
16.08.2026 09:29 23,7 °C 19,7 °C 57 % 79 % 1015,1 hPa 0,0 l/m² 9,7 km/h (2 Bft) NW 315 ° 1 min 301 W/m² 16,0 °C 18,4 °C 24,1 km/h (4 Bft)
16.08.2026 09:30 23,7 °C 19,7 °C 57 % 79 % 1015,1 hPa 0,0 l/m² 8,0 km/h (2 Bft) NW 315 ° 1 min 294 W/m² 16,0 °C 19,0 °C 16,1 km/h (3 Bft)
16.08.2026 09:31 23,7 °C 19,7 °C 57 % 79 % 1015,2 hPa 0,0 l/m² 12,9 km/h (3 Bft) N-NW 337 ° 1 min 322 W/m² 16,0 °C 17,4 °C 19,3 km/h (3 Bft)
16.08.2026 09:32 23,7 °C 19,7 °C 57 % 79 % 1015,2 hPa 0,0 l/m² 11,3 km/h (2 Bft) N-NW 337 ° 1 min 287 W/m² 16,0 °C 17,9 °C 16,1 km/h (3 Bft)
16.08.2026 09:33 23,7 °C 19,7 °C 57 % 79 % 1015,2 hPa 0,0 l/m² 11,3 km/h (2 Bft) N-NW 337 ° 1 min 227 W/m² 16,0 °C 17,9 °C 14,5 km/h (3 Bft)
16.08.2026 09:34 23,7 °C 19,7 °C 57 % 79 % 1015,2 hPa 0,0 l/m² 8,0 km/h (2 Bft) N-NW 337 ° 1 min 216 W/m² 16,0 °C 19,0 °C 12,9 km/h (3 Bft)
16.08.2026 09:35 23,7 °C 19,6 °C 57 % 79 % 1015,3 hPa 0,0 l/m² 12,9 km/h (3 Bft) N-NW 337 ° 1 min 246 W/m² 15,9 °C 17,3 °C 17,7 km/h (3 Bft)
16.08.2026 09:36 23,7 °C 19,6 °C 57 % 80 % 1015,3 hPa 0,0 l/m² 9,7 km/h (2 Bft) N-NW 337 ° 1 min 246 W/m² 16,1 °C 18,3 °C 14,5 km/h (3 Bft)
16.08.2026 09:37 23,7 °C 19,6 °C 57 % 80 % 1015,2 hPa 0,0 l/m² 8,0 km/h (2 Bft) NW 315 ° 1 min 267 W/m² 16,1 °C 18,9 °C 14,5 km/h (3 Bft)
16.08.2026 09:38 23,8 °C 19,7 °C 57 % 79 % 1015,2 hPa 0,0 l/m² 8,0 km/h (2 Bft) NW 315 ° 1 min 232 W/m² 16,0 °C 19,0 °C 16,1 km/h (3 Bft)
16.08.2026 09:39 23,7 °C 19,7 °C 57 % 80 % 1015,2 hPa 0,0 l/m² 8,0 km/h (2 Bft) N-NW 337 ° 1 min 236 W/m² 16,1 °C 19,0 °C 14,5 km/h (3 Bft)
16.08.2026 09:40 23,7 °C 19,8 °C 57 % 79 % 1015,3 hPa 0,0 l/m² 8,0 km/h (2 Bft) NW 315 ° 1 min 204 W/m² 16,0 °C 19,1 °C 12,9 km/h (3 Bft)
16.08.2026 09:41 23,7 °C 19,8 °C 57 % 79 % 1015,3 hPa 0,0 l/m² 8,0 km/h (2 Bft) NW 315 ° 1 min 199 W/m² 16,0 °C 19,1 °C 17,7 km/h (3 Bft)
16.08.2026 09:42 23,7 °C 19,8 °C 57 % 79 % 1015,3 hPa 0,0 l/m² 11,3 km/h (2 Bft) NW 315 ° 1 min 227 W/m² 16,0 °C 18,0 °C 17,7 km/h (3 Bft)
16.08.2026 09:43 23,7 °C 19,8 °C 57 % 79 % 1015,3 hPa 0,0 l/m² 9,7 km/h (2 Bft) N 360 ° 1 min 214 W/m² 16,0 °C 18,5 °C 14,5 km/h (3 Bft)
16.08.2026 09:44 23,7 °C 19,8 °C 57 % 79 % 1015,3 hPa 0,0 l/m² 9,7 km/h (2 Bft) N-NW 337 ° 1 min 250 W/m² 16,0 °C 18,5 °C 17,7 km/h (3 Bft)
16.08.2026 09:45 23,7 °C 19,8 °C 57 % 79 % 1015,4 hPa 0,0 l/m² 14,5 km/h (3 Bft) N-NW 337 ° 1 min 285 W/m² 16,0 °C 17,1 °C 19,3 km/h (3 Bft)
16.08.2026 09:46 23,8 °C 19,7 °C 57 % 78 % 1015,3 hPa 0,0 l/m² 8,0 km/h (2 Bft) N-NW 337 ° 1 min 316 W/m² 15,8 °C 19,0 °C 11,3 km/h (2 Bft)
16.08.2026 09:47 23,7 °C 19,8 °C 57 % 79 % 1015,3 hPa 0,0 l/m² 4,8 km/h (1 Bft) N-NW 337 ° 1 min 332 W/m² 16,0 °C 19,8 °C 11,3 km/h (2 Bft)
16.08.2026 09:48 23,7 °C 19,8 °C 57 % 79 % 1015,3 hPa 0,0 l/m² 9,7 km/h (2 Bft) N 360 ° 1 min 334 W/m² 16,0 °C 18,5 °C 14,5 km/h (3 Bft)
16.08.2026 09:49 23,7 °C 19,8 °C 57 % 79 % 1015,3 hPa 0,0 l/m² 8,0 km/h (2 Bft) N 360 ° 1 min 357 W/m² 16,0 °C 19,1 °C 12,9 km/h (3 Bft)
16.08.2026 09:50 23,7 °C 19,8 °C 57 % 79 % 1015,3 hPa 0,0 l/m² 6,4 km/h (2 Bft) N 360 ° 1 min 411 W/m² 16,0 °C 19,8 °C 12,9 km/h (3 Bft)
16.08.2026 09:51 23,7 °C 19,8 °C 57 % 79 % 1015,2 hPa 0,0 l/m² 9,7 km/h (2 Bft) N 360 ° 1 min 411 W/m² 16,0 °C 18,5 °C 12,9 km/h (3 Bft)
16.08.2026 09:52 23,7 °C 19,9 °C 57 % 78 % 1015,3 hPa 0,0 l/m² 8,0 km/h (2 Bft) N-NW 337 ° 1 min 411 W/m² 15,9 °C 19,2 °C 9,7 km/h (2 Bft)
16.08.2026 09:53 23,7 °C 20,0 °C 57 % 79 % 1015,2 hPa 0,0 l/m² 4,8 km/h (1 Bft) N-NO 22 ° 1 min 392 W/m² 16,2 °C 20,0 °C 8,0 km/h (2 Bft)
16.08.2026 09:54 23,7 °C 20,1 °C 57 % 78 % 1015,3 hPa 0,0 l/m² 3,2 km/h (1 Bft) N-NO 22 ° 1 min 541 W/m² 16,1 °C 20,1 °C 4,8 km/h (1 Bft)
16.08.2026 09:55 23,7 °C 20,2 °C 57 % 78 % 1015,3 hPa 0,0 l/m² 4,8 km/h (1 Bft) N-NW 337 ° 1 min 541 W/m² 16,2 °C 20,2 °C 6,4 km/h (2 Bft)
16.08.2026 09:56 23,7 °C 20,3 °C 57 % 77 % 1015,3 hPa 0,0 l/m² 4,8 km/h (1 Bft) NW 315 ° 1 min 545 W/m² 16,1 °C 20,3 °C 8,0 km/h (2 Bft)
16.08.2026 09:57 23,7 °C 20,4 °C 57 % 78 % 1015,2 hPa 0,0 l/m² 6,4 km/h (2 Bft) N 360 ° 1 min 547 W/m² 16,4 °C 20,4 °C 8,0 km/h (2 Bft)
16.08.2026 09:58 23,7 °C 20,6 °C 57 % 78 % 1015,2 hPa 0,0 l/m² 3,2 km/h (1 Bft) W-NW 292 ° 1 min 497 W/m² 16,6 °C 20,6 °C 4,8 km/h (1 Bft)
16.08.2026 09:59 23,7 °C 20,7 °C 57 % 76 % 1015,3 hPa 0,0 l/m² 6,4 km/h (2 Bft) W 270 ° 1 min 497 W/m² 16,3 °C 20,7 °C 14,5 km/h (3 Bft)
16.08.2026 10:00 23,7 °C 20,7 °C 57 % 76 % 1015,2 hPa 0,0 l/m² 8,0 km/h (2 Bft) N-NW 337 ° 1 min 381 W/m² 16,3 °C 20,1 °C 12,9 km/h (3 Bft)
16.08.2026 10:01 23,7 °C 20,7 °C 57 % 76 % 1015,3 hPa 0,0 l/m² 8,0 km/h (2 Bft) N-NW 337 ° 1 min 381 W/m² 16,3 °C 20,1 °C 12,9 km/h (3 Bft)
16.08.2026 10:02 23,7 °C 20,7 °C 57 % 76 % 1015,3 hPa 0,0 l/m² 4,8 km/h (1 Bft) W-NW 292 ° 1 min 213 W/m² 16,3 °C 20,7 °C 8,0 km/h (2 Bft)
16.08.2026 10:03 23,7 °C 20,7 °C 57 % 76 % 1015,2 hPa 0,0 l/m² 6,4 km/h (2 Bft) N 360 ° 1 min 218 W/m² 16,3 °C 20,7 °C 9,7 km/h (2 Bft)
16.08.2026 10:04 23,7 °C 20,4 °C 57 % 75 % 1015,2 hPa 0,0 l/m² 4,8 km/h (1 Bft) N-NO 22 ° 1 min 234 W/m² 15,8 °C 20,4 °C 9,7 km/h (2 Bft)
16.08.2026 10:05 23,7 °C 20,4 °C 57 % 76 % 1015,3 hPa 0,0 l/m² 6,4 km/h (2 Bft) NW 315 ° 1 min 234 W/m² 16,0 °C 20,4 °C 8,0 km/h (2 Bft)
16.08.2026 10:06 23,7 °C 20,6 °C 57 % 76 % 1015,2 hPa 0,0 l/m² 6,4 km/h (2 Bft) NW 315 ° 1 min 494 W/m² 16,2 °C 20,6 °C 11,3 km/h (2 Bft)
16.08.2026 10:07 23,7 °C 20,6 °C 57 % 76 % 1015,2 hPa 0,0 l/m² 8,0 km/h (2 Bft) N-NW 337 ° 1 min 492 W/m² 16,2 °C 20,0 °C 12,9 km/h (3 Bft)
16.08.2026 10:08 23,7 °C 20,6 °C 57 % 76 % 1015,3 hPa 0,0 l/m² 6,4 km/h (2 Bft) N-NW 337 ° 1 min 508 W/m² 16,2 °C 20,6 °C 9,7 km/h (2 Bft)
16.08.2026 10:09 23,7 °C 20,6 °C 57 % 76 % 1015,2 hPa 0,0 l/m² 8,0 km/h (2 Bft) N-NW 337 ° 1 min 519 W/m² 16,2 °C 20,0 °C 9,7 km/h (2 Bft)
16.08.2026 10:10 23,7 °C 20,7 °C 57 % 76 % 1015,3 hPa 0,0 l/m² 6,4 km/h (2 Bft) NW 315 ° 1 min 522 W/m² 16,3 °C 20,7 °C 9,7 km/h (2 Bft)
16.08.2026 10:11 23,7 °C 20,9 °C 57 % 76 % 1015,2 hPa 0,0 l/m² 9,7 km/h (2 Bft) N-NW 337 ° 1 min 520 W/m² 16,5 °C 19,7 °C 12,9 km/h (3 Bft)
16.08.2026 10:12 23,7 °C 21,0 °C 57 % 75 % 1015,3 hPa 0,0 l/m² 6,4 km/h (2 Bft) NW 315 ° 1 min 520 W/m² 16,4 °C 21,0 °C 12,9 km/h (3 Bft)
16.08.2026 10:13 23,7 °C 20,9 °C 57 % 75 % 1015,2 hPa 0,0 l/m² 4,8 km/h (1 Bft) NW 315 ° 1 min 527 W/m² 16,3 °C 20,9 °C 6,4 km/h (2 Bft)
16.08.2026 10:14 23,7 °C 21,1 °C 57 % 75 % 1015,2 hPa 0,0 l/m² 6,4 km/h (2 Bft) N 360 ° 1 min 526 W/m² 16,5 °C 21,1 °C 8,0 km/h (2 Bft)
16.08.2026 10:15 23,7 °C 21,2 °C 57 % 75 % 1015,3 hPa 0,0 l/m² 4,8 km/h (1 Bft) NW 315 ° 1 min 526 W/m² 16,6 °C 21,2 °C 8,0 km/h (2 Bft)
16.08.2026 10:16 23,7 °C 21,3 °C 57 % 74 % 1015,2 hPa 0,0 l/m² 1,6 km/h (1 Bft) SW 225 ° 1 min 526 W/m² 16,5 °C 21,3 °C 4,8 km/h (1 Bft)
16.08.2026 10:17 23,7 °C 21,6 °C 57 % 75 % 1015,2 hPa 0,0 l/m² 3,2 km/h (1 Bft) S-SO 157 ° 1 min 526 W/m² 17,0 °C 21,6 °C 6,4 km/h (2 Bft)
16.08.2026 10:18 23,7 °C 21,8 °C 57 % 74 % 1015,3 hPa 0,0 l/m² 6,4 km/h (2 Bft) N-NW 337 ° 1 min 526 W/m² 17,0 °C 21,8 °C 9,7 km/h (2 Bft)
16.08.2026 10:19 23,7 °C 21,8 °C 57 % 73 % 1015,3 hPa 0,0 l/m² 8,0 km/h (2 Bft) N-NW 337 ° 1 min 522 W/m² 16,7 °C 21,2 °C 12,9 km/h (3 Bft)
16.08.2026 10:20 23,7 °C 21,8 °C 57 % 73 % 1015,4 hPa 0,0 l/m² 4,8 km/h (1 Bft) NW 315 ° 1 min 522 W/m² 16,7 °C 21,8 °C 6,4 km/h (2 Bft)
16.08.2026 10:21 23,7 °C 21,7 °C 57 % 73 % 1015,3 hPa 0,0 l/m² 12,9 km/h (3 Bft) N-NW 337 ° 1 min 526 W/m² 16,6 °C 19,8 °C 19,3 km/h (3 Bft)
16.08.2026 10:22 23,7 °C 21,7 °C 57 % 73 % 1015,3 hPa 0,0 l/m² 8,0 km/h (2 Bft) N-NW 337 ° 1 min 531 W/m² 16,6 °C 21,1 °C 12,9 km/h (3 Bft)
16.08.2026 10:23 23,7 °C 21,7 °C 57 % 73 % 1015,3 hPa 0,0 l/m² 4,8 km/h (1 Bft) N-NO 22 ° 1 min 536 W/m² 16,6 °C 21,7 °C 8,0 km/h (2 Bft)
16.08.2026 10:24 23,7 °C 21,8 °C 57 % 73 % 1015,3 hPa 0,0 l/m² 6,4 km/h (2 Bft) N-NW 337 ° 1 min 547 W/m² 16,7 °C 21,8 °C 9,7 km/h (2 Bft)
16.08.2026 10:25 23,7 °C 21,9 °C 57 % 73 % 1015,3 hPa 0,0 l/m² 4,8 km/h (1 Bft) NW 315 ° 1 min 547 W/m² 16,8 °C 21,9 °C 8,0 km/h (2 Bft)
16.08.2026 10:26 23,7 °C 21,9 °C 57 % 72 % 1015,4 hPa 0,0 l/m² 4,8 km/h (1 Bft) N-NW 337 ° 1 min 545 W/m² 16,6 °C 21,9 °C 8,0 km/h (2 Bft)
16.08.2026 10:27 23,7 °C 22,1 °C 57 % 73 % 1015,4 hPa 0,0 l/m² 3,2 km/h (1 Bft) W-NW 292 ° 1 min 552 W/m² 17,0 °C 22,1 °C 8,0 km/h (2 Bft)
16.08.2026 10:28 23,7 °C 22,2 °C 57 % 72 % 1015,4 hPa 0,0 l/m² 8,0 km/h (2 Bft) N 360 ° 1 min 550 W/m² 16,9 °C 21,7 °C 14,5 km/h (3 Bft)
16.08.2026 10:29 23,7 °C 22,1 °C 57 % 71 % 1015,4 hPa 0,0 l/m² 9,7 km/h (2 Bft) N-NO 22 ° 1 min 548 W/m² 16,6 °C 21,0 °C 14,5 km/h (3 Bft)
16.08.2026 10:30 23,7 °C 22,1 °C 57 % 72 % 1015,4 hPa 0,0 l/m² 11,3 km/h (2 Bft) N-NW 337 ° 1 min 540 W/m² 16,8 °C 20,6 °C 16,1 km/h (3 Bft)
16.08.2026 10:31 23,7 °C 22,1 °C 57 % 72 % 1015,4 hPa 0,0 l/m² 9,7 km/h (2 Bft) N-NW 337 ° 1 min 550 W/m² 16,8 °C 21,0 °C 16,1 km/h (3 Bft)
16.08.2026 10:32 23,7 °C 22,1 °C 57 % 72 % 1015,4 hPa 0,0 l/m² 6,4 km/h (2 Bft) NW 315 ° 1 min 559 W/m² 16,8 °C 22,1 °C 9,7 km/h (2 Bft)
16.08.2026 10:33 23,7 °C 21,9 °C 57 % 71 % 1015,4 hPa 0,0 l/m² 6,4 km/h (2 Bft) N-NW 337 ° 1 min 570 W/m² 16,4 °C 21,9 °C 9,7 km/h (2 Bft)
16.08.2026 10:34 23,7 °C 21,8 °C 57 % 72 % 1015,4 hPa 0,0 l/m² 8,0 km/h (2 Bft) N-NW 337 ° 1 min 568 W/m² 16,5 °C 21,2 °C 12,9 km/h (3 Bft)
16.08.2026 10:35 23,7 °C 21,9 °C 57 % 72 % 1015,4 hPa 0,0 l/m² 6,4 km/h (2 Bft) N 360 ° 1 min 564 W/m² 16,6 °C 21,9 °C 14,5 km/h (3 Bft)
16.08.2026 10:36 23,7 °C 22,1 °C 57 % 72 % 1015,4 hPa 0,0 l/m² 4,8 km/h (1 Bft) NW 315 ° 1 min 568 W/m² 16,8 °C 22,1 °C 8,0 km/h (2 Bft)
16.08.2026 10:37 23,7 °C 22,1 °C 57 % 72 % 1015,5 hPa 0,0 l/m² 11,3 km/h (2 Bft) N 360 ° 1 min 570 W/m² 16,8 °C 20,6 °C 16,1 km/h (3 Bft)
16.08.2026 10:38 23,7 °C 22,1 °C 57 % 71 % 1015,5 hPa 0,0 l/m² 8,0 km/h (2 Bft) N-NO 22 ° 1 min 575 W/m² 16,6 °C 21,6 °C 12,9 km/h (3 Bft)
16.08.2026 10:39 23,7 °C 22,0 °C 57 % 72 % 1015,4 hPa 0,0 l/m² 4,8 km/h (1 Bft) W-NW 292 ° 1 min 577 W/m² 16,7 °C 22,0 °C 8,0 km/h (2 Bft)
16.08.2026 10:40 23,7 °C 22,0 °C 57 % 72 % 1015,5 hPa 0,0 l/m² 9,7 km/h (2 Bft) N-NW 337 ° 1 min 568 W/m² 16,7 °C 20,9 °C 14,5 km/h (3 Bft)
16.08.2026 10:41 23,7 °C 21,9 °C 57 % 72 % 1015,5 hPa 0,0 l/m² 8,0 km/h (2 Bft) N-NW 337 ° 1 min 570 W/m² 16,6 °C 21,3 °C 14,5 km/h (3 Bft)
16.08.2026 10:42 23,7 °C 22,0 °C 57 % 72 % 1015,5 hPa 0,0 l/m² 9,7 km/h (2 Bft) NW 315 ° 1 min 568 W/m² 16,7 °C 20,9 °C 16,1 km/h (3 Bft)
16.08.2026 10:43 23,7 °C 22,0 °C 57 % 72 % 1015,5 hPa 0,0 l/m² 8,0 km/h (2 Bft) W-NW 292 ° 1 min 566 W/m² 16,7 °C 21,5 °C 12,9 km/h (3 Bft)
16.08.2026 10:44 23,7 °C 22,0 °C 57 % 72 % 1015,5 hPa 0,0 l/m² 6,4 km/h (2 Bft) W-NW 292 ° 1 min 570 W/m² 16,7 °C 22,0 °C 8,0 km/h (2 Bft)
16.08.2026 10:45 23,7 °C 21,9 °C 57 % 72 % 1015,5 hPa 0,0 l/m² 6,4 km/h (2 Bft) NW 315 ° 1 min 584 W/m² 16,6 °C 21,9 °C 14,5 km/h (3 Bft)
16.08.2026 10:46 23,7 °C 21,9 °C 57 % 72 % 1015,5 hPa 0,0 l/m² 8,0 km/h (2 Bft) W-NW 292 ° 1 min 587 W/m² 16,6 °C 21,3 °C 14,5 km/h (3 Bft)
16.08.2026 10:47 23,7 °C 21,9 °C 57 % 72 % 1015,6 hPa 0,0 l/m² 6,4 km/h (2 Bft) NW 315 ° 1 min 591 W/m² 16,6 °C 21,9 °C 8,0 km/h (2 Bft)
16.08.2026 10:48 23,7 °C 21,8 °C 57 % 72 % 1015,6 hPa 0,0 l/m² 4,8 km/h (1 Bft) N 360 ° 1 min 589 W/m² 16,5 °C 21,8 °C 6,4 km/h (2 Bft)
16.08.2026 10:49 23,7 °C 21,9 °C 57 % 72 % 1015,6 hPa 0,0 l/m² 4,8 km/h (1 Bft) NW 315 ° 1 min 589 W/m² 16,6 °C 21,9 °C 6,4 km/h (2 Bft)
16.08.2026 10:50 23,7 °C 22,1 °C 57 % 71 % 1015,7 hPa 0,0 l/m² 9,7 km/h (2 Bft) N 360 ° 1 min 594 W/m² 16,6 °C 21,0 °C 16,1 km/h (3 Bft)
16.08.2026 10:51 23,7 °C 22,0 °C 57 % 72 % 1015,6 hPa 0,0 l/m² 8,0 km/h (2 Bft) N-NO 22 ° 1 min 598 W/m² 16,7 °C 21,5 °C 12,9 km/h (3 Bft)
16.08.2026 10:52 23,7 °C 22,0 °C 57 % 72 % 1015,7 hPa 0,0 l/m² 6,4 km/h (2 Bft) NW 315 ° 1 min 601 W/m² 16,7 °C 22,0 °C 9,7 km/h (2 Bft)
16.08.2026 10:53 23,7 °C 22,1 °C 57 % 72 % 1015,7 hPa 0,0 l/m² 4,8 km/h (1 Bft) N-NW 337 ° 1 min 601 W/m² 16,8 °C 22,1 °C 8,0 km/h (2 Bft)
16.08.2026 10:54 23,7 °C 22,0 °C 57 % 71 % 1015,6 hPa 0,0 l/m² 4,8 km/h (1 Bft) NW 315 ° 1 min 594 W/m² 16,5 °C 22,0 °C 11,3 km/h (2 Bft)
16.08.2026 10:55 23,7 °C 22,1 °C 57 % 72 % 1015,7 hPa 0,0 l/m² 1,6 km/h (1 Bft) NW 315 ° 1 min 594 W/m² 16,8 °C 22,1 °C 4,8 km/h (1 Bft)
16.08.2026 10:56 23,7 °C 22,2 °C 57 % 71 % 1015,7 hPa 0,0 l/m² 4,8 km/h (1 Bft) O-SO 112 ° 1 min 594 W/m² 16,7 °C 22,2 °C 8,0 km/h (2 Bft)
16.08.2026 10:57 23,7 °C 22,3 °C 57 % 71 % 1015,6 hPa 0,0 l/m² 6,4 km/h (2 Bft) NO 45 ° 1 min 589 W/m² 16,8 °C 22,3 °C 9,7 km/h (2 Bft)
16.08.2026 10:58 23,7 °C 22,5 °C 57 % 72 % 1015,6 hPa 0,0 l/m² 4,8 km/h (1 Bft) N-NO 22 ° 1 min 584 W/m² 17,2 °C 22,5 °C 8,0 km/h (2 Bft)
16.08.2026 10:59 23,7 °C 22,8 °C 57 % 72 % 1015,7 hPa 0,0 l/m² 6,4 km/h (2 Bft) O-NO 67 ° 1 min 585 W/m² 17,5 °C 22,8 °C 14,5 km/h (3 Bft)
16.08.2026 11:00 23,7 °C 22,8 °C 57 % 70 % 1015,7 hPa 0,0 l/m² 11,3 km/h (2 Bft) N-NW 337 ° 1 min 585 W/m² 17,0 °C 21,4 °C 17,7 km/h (3 Bft)
16.08.2026 11:01 23,7 °C 22,7 °C 57 % 70 % 1015,7 hPa 0,0 l/m² 8,0 km/h (2 Bft) NW 315 ° 1 min 589 W/m² 16,9 °C 22,2 °C 12,9 km/h (3 Bft)
16.08.2026 11:02 23,7 °C 22,7 °C 57 % 71 % 1015,8 hPa 0,0 l/m² 4,8 km/h (1 Bft) W-NW 292 ° 1 min 599 W/m² 17,2 °C 22,7 °C 8,0 km/h (2 Bft)
16.08.2026 11:03 23,8 °C 22,7 °C 57 % 71 % 1015,7 hPa 0,0 l/m² 4,8 km/h (1 Bft) N-NO 22 ° 1 min 612 W/m² 17,2 °C 22,7 °C 6,4 km/h (2 Bft)
16.08.2026 11:04 23,7 °C 22,6 °C 57 % 71 % 1015,8 hPa 0,0 l/m² 3,2 km/h (1 Bft) N 360 ° 1 min 617 W/m² 17,1 °C 22,6 °C 4,8 km/h (1 Bft)
16.08.2026 11:05 23,8 °C 22,6 °C 57 % 71 % 1015,8 hPa 0,0 l/m² 4,8 km/h (1 Bft) W-NW 292 ° 1 min 626 W/m² 17,1 °C 22,6 °C 14,5 km/h (3 Bft)
16.08.2026 11:06 23,8 °C 22,8 °C 57 % 72 % 1015,7 hPa 0,0 l/m² 8,0 km/h (2 Bft) NW 315 ° 1 min 629 W/m² 17,5 °C 22,3 °C 14,5 km/h (3 Bft)
16.08.2026 11:07 23,8 °C 22,8 °C 57 % 71 % 1015,7 hPa 0,0 l/m² 6,4 km/h (2 Bft) NW 315 ° 1 min 638 W/m² 17,3 °C 22,8 °C 12,9 km/h (3 Bft)
16.08.2026 11:08 23,8 °C 22,8 °C 57 % 70 % 1015,7 hPa 0,0 l/m² 4,8 km/h (1 Bft) W-NW 292 ° 1 min 606 W/m² 17,0 °C 22,8 °C 11,3 km/h (2 Bft)
16.08.2026 11:09 23,7 °C 22,8 °C 57 % 70 % 1015,7 hPa 0,0 l/m² 4,8 km/h (1 Bft) NW 315 ° 1 min 606 W/m² 17,0 °C 22,8 °C 8,0 km/h (2 Bft)
16.08.2026 11:10 23,7 °C 22,8 °C 57 % 71 % 1015,7 hPa 0,0 l/m² 3,2 km/h (1 Bft) NW 315 ° 1 min 606 W/m² 17,3 °C 22,8 °C 6,4 km/h (2 Bft)
16.08.2026 11:11 23,8 °C 22,9 °C 57 % 71 % 1015,7 hPa 0,0 l/m² 6,4 km/h (2 Bft) N 360 ° 1 min 656 W/m² 17,4 °C 22,9 °C 12,9 km/h (3 Bft)
16.08.2026 11:12 23,8 °C 22,9 °C 57 % 71 % 1015,7 hPa 0,0 l/m² 11,3 km/h (2 Bft) N-NW 337 ° 1 min 663 W/m² 17,4 °C 21,5 °C 16,1 km/h (3 Bft)
16.08.2026 11:13 23,7 °C 23,1 °C 57 % 71 % 1015,7 hPa 0,0 l/m² 8,0 km/h (2 Bft) NW 315 ° 1 min 661 W/m² 17,5 °C 22,6 °C 14,5 km/h (3 Bft)
16.08.2026 11:14 23,8 °C 23,1 °C 57 % 70 % 1015,7 hPa 0,0 l/m² 14,5 km/h (3 Bft) N-NW 337 ° 1 min 652 W/m² 17,3 °C 21,1 °C 17,7 km/h (3 Bft)
16.08.2026 11:15 23,7 °C 23,1 °C 57 % 70 % 1015,8 hPa 0,0 l/m² 14,5 km/h (3 Bft) N-NW 337 ° 1 min 650 W/m² 17,3 °C 21,1 °C 17,7 km/h (3 Bft)
16.08.2026 11:16 23,8 °C 23,0 °C 57 % 70 % 1015,8 hPa 0,0 l/m² 12,9 km/h (3 Bft) N-NW 337 ° 1 min 638 W/m² 17,2 °C 21,3 °C 17,7 km/h (3 Bft)
16.08.2026 11:17 23,8 °C 23,0 °C 57 % 70 % 1015,8 hPa 0,0 l/m² 4,8 km/h (1 Bft) N-NW 337 ° 1 min 645 W/m² 17,2 °C 23,0 °C 8,0 km/h (2 Bft)
16.08.2026 11:18 23,7 °C 22,9 °C 57 % 70 % 1015,8 hPa 0,0 l/m² 4,8 km/h (1 Bft) N-NW 337 ° 1 min 631 W/m² 17,1 °C 22,9 °C 6,4 km/h (2 Bft)
16.08.2026 11:19 23,8 °C 22,9 °C 57 % 71 % 1015,8 hPa 0,0 l/m² 4,8 km/h (1 Bft) N-NO 22 ° 1 min 643 W/m² 17,4 °C 22,9 °C 6,4 km/h (2 Bft)
16.08.2026 11:20 23,8 °C 23,2 °C 57 % 71 % 1015,7 hPa 0,0 l/m² 6,4 km/h (2 Bft) N-NO 22 ° 1 min 664 W/m² 17,6 °C 23,2 °C 12,9 km/h (3 Bft)
16.08.2026 11:21 23,7 °C 23,3 °C 57 % 70 % 1015,8 hPa 0,0 l/m² 9,7 km/h (2 Bft) N-NO 22 ° 1 min 677 W/m² 17,5 °C 22,4 °C 14,5 km/h (3 Bft)
16.08.2026 11:22 23,8 °C 23,4 °C 57 % 69 % 1015,7 hPa 0,0 l/m² 11,3 km/h (2 Bft) NW 315 ° 1 min 686 W/m² 17,4 °C 22,1 °C 14,5 km/h (3 Bft)
16.08.2026 11:23 23,8 °C 23,3 °C 57 % 69 % 1015,7 hPa 0,0 l/m² 4,8 km/h (1 Bft) N-NW 337 ° 1 min 640 W/m² 17,3 °C 23,3 °C 9,7 km/h (2 Bft)
16.08.2026 11:24 23,8 °C 23,2 °C 57 % 69 % 1015,7 hPa 0,0 l/m² 4,8 km/h (1 Bft) NW 315 ° 1 min 684 W/m² 17,2 °C 23,2 °C 9,7 km/h (2 Bft)
16.08.2026 11:25 23,8 °C 23,3 °C 57 % 70 % 1015,8 hPa 0,0 l/m² 8,0 km/h (2 Bft) N-NW 337 ° 1 min 675 W/m² 17,5 °C 22,8 °C 16,1 km/h (3 Bft)
16.08.2026 11:26 23,8 °C 23,4 °C 57 % 69 % 1015,8 hPa 0,0 l/m² 9,7 km/h (2 Bft) N 360 ° 1 min 670 W/m² 17,4 °C 22,5 °C 14,5 km/h (3 Bft)
16.08.2026 11:27 23,8 °C 23,4 °C 57 % 70 % 1015,9 hPa 0,0 l/m² 6,4 km/h (2 Bft) W-NW 292 ° 1 min 668 W/m² 17,6 °C 23,4 °C 12,9 km/h (3 Bft)
16.08.2026 11:28 23,8 °C 23,3 °C 57 % 69 % 1015,9 hPa 0,0 l/m² 6,4 km/h (2 Bft) N 360 ° 1 min 682 W/m² 17,3 °C 23,3 °C 8,0 km/h (2 Bft)
16.08.2026 11:29 23,8 °C 23,3 °C 57 % 69 % 1015,8 hPa 0,0 l/m² 6,4 km/h (2 Bft) N 360 ° 1 min 677 W/m² 17,3 °C 23,3 °C 14,5 km/h (3 Bft)
16.08.2026 11:30 23,8 °C 23,3 °C 57 % 70 % 1015,8 hPa 0,0 l/m² 9,7 km/h (2 Bft) N-NW 337 ° 1 min 680 W/m² 17,5 °C 22,4 °C 19,3 km/h (3 Bft)
16.08.2026 11:31 23,8 °C 23,3 °C 57 % 70 % 1015,9 hPa 0,0 l/m² 11,3 km/h (2 Bft) N-NW 337 ° 1 min 680 W/m² 17,5 °C 22,0 °C 17,7 km/h (3 Bft)
16.08.2026 11:32 23,8 °C 23,3 °C 57 % 70 % 1015,9 hPa 0,0 l/m² 8,0 km/h (2 Bft) NW 315 ° 1 min 374 W/m² 17,5 °C 22,8 °C 14,5 km/h (3 Bft)
16.08.2026 11:33 23,8 °C 23,2 °C 57 % 69 % 1015,8 hPa 0,0 l/m² 11,3 km/h (2 Bft) N-NW 337 ° 1 min 387 W/m² 17,2 °C 21,9 °C 16,1 km/h (3 Bft)
16.08.2026 11:34 23,8 °C 23,1 °C 57 % 69 % 1015,8 hPa 0,0 l/m² 9,7 km/h (2 Bft) N-NW 337 ° 1 min 399 W/m² 17,1 °C 22,1 °C 14,5 km/h (3 Bft)
16.08.2026 11:35 23,8 °C 23,1 °C 57 % 70 % 1015,7 hPa 0,0 l/m² 9,7 km/h (2 Bft) N-NW 337 ° 1 min 399 W/m² 17,3 °C 22,1 °C 14,5 km/h (3 Bft)
16.08.2026 11:36 23,8 °C 23,0 °C 57 % 70 % 1015,8 hPa 0,0 l/m² 6,4 km/h (2 Bft) N 360 ° 1 min 715 W/m² 17,2 °C 23,0 °C 9,7 km/h (2 Bft)
16.08.2026 11:37 23,8 °C 23,0 °C 57 % 70 % 1015,8 hPa 0,0 l/m² 4,8 km/h (1 Bft) N-NW 337 ° 1 min 701 W/m² 17,2 °C 23,0 °C 8,0 km/h (2 Bft)
16.08.2026 11:38 23,8 °C 23,1 °C 57 % 70 % 1015,8 hPa 0,0 l/m² 6,4 km/h (2 Bft) N-NO 22 ° 1 min 698 W/m² 17,3 °C 23,1 °C 12,9 km/h (3 Bft)
16.08.2026 11:39 23,8 °C 23,2 °C 57 % 70 % 1015,7 hPa 0,0 l/m² 8,0 km/h (2 Bft) N 360 ° 1 min 698 W/m² 17,4 °C 22,7 °C 11,3 km/h (2 Bft)
16.08.2026 11:40 23,8 °C 23,3 °C 57 % 69 % 1015,8 hPa 0,0 l/m² 8,0 km/h (2 Bft) N 360 ° 1 min 698 W/m² 17,3 °C 22,8 °C 14,5 km/h (3 Bft)
16.08.2026 11:41 23,8 °C 23,2 °C 57 % 69 % 1015,9 hPa 0,0 l/m² 6,4 km/h (2 Bft) N 360 ° 1 min 701 W/m² 17,2 °C 23,2 °C 9,7 km/h (2 Bft)
16.08.2026 11:42 23,8 °C 23,2 °C 57 % 70 % 1015,9 hPa 0,0 l/m² 4,8 km/h (1 Bft) N 360 ° 1 min 703 W/m² 17,4 °C 23,2 °C 6,4 km/h (2 Bft)
16.08.2026 11:43 23,8 °C 23,3 °C 57 % 70 % 1015,8 hPa 0,0 l/m² 8,0 km/h (2 Bft) N-NW 337 ° 1 min 696 W/m² 17,5 °C 22,8 °C 12,9 km/h (3 Bft)
16.08.2026 11:44 23,8 °C 23,3 °C 57 % 69 % 1015,8 hPa 0,0 l/m² 3,2 km/h (1 Bft) N 360 ° 1 min 686 W/m² 17,3 °C 23,3 °C 6,4 km/h (2 Bft)
16.08.2026 11:45 23,8 °C 23,3 °C 57 % 69 % 1015,8 hPa 0,0 l/m² 11,3 km/h (2 Bft) N 360 ° 1 min 680 W/m² 17,3 °C 22,0 °C 14,5 km/h (3 Bft)
16.08.2026 11:46 23,8 °C 23,3 °C 57 % 69 % 1015,8 hPa 0,0 l/m² 8,0 km/h (2 Bft) N-NW 337 ° 1 min 671 W/m² 17,3 °C 22,8 °C 14,5 km/h (3 Bft)
16.08.2026 11:47 23,8 °C 23,4 °C 57 % 70 % 1015,8 hPa 0,0 l/m² 4,8 km/h (1 Bft) N-NW 337 ° 1 min 675 W/m² 17,6 °C 23,4 °C 8,0 km/h (2 Bft)
16.08.2026 11:48 23,8 °C 23,4 °C 57 % 70 % 1015,7 hPa 0,0 l/m² 4,8 km/h (1 Bft) NW 315 ° 1 min 682 W/m² 17,6 °C 23,4 °C 6,4 km/h (2 Bft)
16.08.2026 11:49 23,8 °C 23,6 °C 57 % 69 % 1015,8 hPa 0,0 l/m² 4,8 km/h (1 Bft) S-SW 202 ° 1 min 684 W/m² 17,6 °C 23,6 °C 9,7 km/h (2 Bft)
16.08.2026 11:50 23,8 °C 23,7 °C 57 % 69 % 1015,7 hPa 0,0 l/m² 6,4 km/h (2 Bft) N 360 ° 1 min 694 W/m² 17,7 °C 23,7 °C 9,7 km/h (2 Bft)
16.08.2026 11:51 23,8 °C 23,7 °C 57 % 68 % 1015,7 hPa 0,0 l/m² 9,7 km/h (2 Bft) NW 315 ° 1 min 715 W/m² 17,4 °C 22,8 °C 16,1 km/h (3 Bft)
16.08.2026 11:52 23,8 °C 23,8 °C 57 % 68 % 1015,8 hPa 0,0 l/m² 11,3 km/h (2 Bft) NW 315 ° 1 min 715 W/m² 17,5 °C 22,6 °C 17,7 km/h (3 Bft)
16.08.2026 11:53 23,8 °C 23,7 °C 57 % 68 % 1015,9 hPa 0,0 l/m² 9,7 km/h (2 Bft) N 360 ° 1 min 715 W/m² 17,4 °C 22,8 °C 16,1 km/h (3 Bft)
16.08.2026 11:54 23,8 °C 23,7 °C 57 % 69 % 1015,9 hPa 0,0 l/m² 8,0 km/h (2 Bft) NW 315 ° 1 min 302 W/m² 17,7 °C 23,2 °C 12,9 km/h (3 Bft)
16.08.2026 11:55 23,8 °C 23,4 °C 57 % 68 % 1015,9 hPa 0,0 l/m² 11,3 km/h (2 Bft) W-NW 292 ° 1 min 295 W/m² 17,1 °C 22,1 °C 12,9 km/h (3 Bft)
16.08.2026 11:56 23,8 °C 23,2 °C 57 % 69 % 1015,9 hPa 0,0 l/m² 8,0 km/h (2 Bft) NW 315 ° 1 min 302 W/m² 17,2 °C 22,7 °C 11,3 km/h (2 Bft)
16.08.2026 11:57 23,8 °C 23,0 °C 57 % 69 % 1015,8 hPa 0,0 l/m² 6,4 km/h (2 Bft) NW 315 ° 1 min 383 W/m² 17,0 °C 23,0 °C 9,7 km/h (2 Bft)
16.08.2026 11:58 23,8 °C 22,9 °C 57 % 70 % 1015,9 hPa 0,0 l/m² 4,8 km/h (1 Bft) W-NW 292 ° 1 min 383 W/m² 17,1 °C 22,9 °C 6,4 km/h (2 Bft)
16.08.2026 11:59 23,8 °C 23,0 °C 57 % 70 % 1015,9 hPa 0,0 l/m² 3,2 km/h (1 Bft) W-NW 292 ° 1 min 759 W/m² 17,2 °C 23,0 °C 6,4 km/h (2 Bft)
16.08.2026 12:00 23,8 °C 23,2 °C 57 % 71 % 1015,8 hPa 0,0 l/m² 4,8 km/h (1 Bft) W 270 ° 1 min 770 W/m² 17,6 °C 23,2 °C 9,7 km/h (2 Bft)
16.08.2026 12:01 23,8 °C 23,5 °C 57 % 70 % 1015,7 hPa 0,0 l/m² 6,4 km/h (2 Bft) W-NW 292 ° 1 min 763 W/m² 17,7 °C 23,5 °C 14,5 km/h (3 Bft)
16.08.2026 12:02 23,8 °C 23,6 °C 57 % 69 % 1015,7 hPa 0,0 l/m² 9,7 km/h (2 Bft) W-NW 292 ° 1 min 763 W/m² 17,6 °C 22,7 °C 16,1 km/h (3 Bft)
16.08.2026 12:03 23,8 °C 23,6 °C 57 % 69 % 1015,7 hPa 0,0 l/m² 6,4 km/h (2 Bft) W-NW 292 ° 1 min 763 W/m² 17,6 °C 23,6 °C 11,3 km/h (2 Bft)
16.08.2026 12:04 23,8 °C 23,5 °C 57 % 69 % 1015,8 hPa 0,0 l/m² 4,8 km/h (1 Bft) W 270 ° 1 min 758 W/m² 17,5 °C 23,5 °C 9,7 km/h (2 Bft)
16.08.2026 12:05 23,8 °C 23,7 °C 57 % 70 % 1015,8 hPa 0,0 l/m² 4,8 km/h (1 Bft) W-SW 247 ° 1 min 772 W/m² 17,9 °C 23,7 °C 12,9 km/h (3 Bft)
16.08.2026 12:06 23,8 °C 23,9 °C 57 % 69 % 1015,8 hPa 0,0 l/m² 9,7 km/h (2 Bft) N-NW 337 ° 1 min 735 W/m² 17,9 °C 23,0 °C 16,1 km/h (3 Bft)
16.08.2026 12:07 23,8 °C 24,0 °C 57 % 68 % 1015,7 hPa 0,0 l/m² 12,9 km/h (3 Bft) N-NW 337 ° 1 min 735 W/m² 17,7 °C 22,5 °C 19,3 km/h (3 Bft)
16.08.2026 12:08 23,8 °C 23,9 °C 57 % 68 % 1015,8 hPa 0,0 l/m² 8,0 km/h (2 Bft) W-NW 292 ° 1 min 311 W/m² 17,6 °C 23,4 °C 14,5 km/h (3 Bft)
16.08.2026 12:09 23,8 °C 23,8 °C 57 % 68 % 1015,8 hPa 0,0 l/m² 8,0 km/h (2 Bft) W 270 ° 1 min 306 W/m² 17,5 °C 23,3 °C 11,3 km/h (2 Bft)
16.08.2026 12:10 23,8 °C 23,7 °C 57 % 68 % 1015,8 hPa 0,0 l/m² 8,0 km/h (2 Bft) N-NW 337 ° 1 min 325 W/m² 17,4 °C 23,2 °C 12,9 km/h (3 Bft)
16.08.2026 12:11 23,8 °C 23,5 °C 57 % 68 % 1015,8 hPa 0,0 l/m² 4,8 km/h (1 Bft) N-NW 337 ° 1 min 359 W/m² 17,2 °C 23,5 °C 6,4 km/h (2 Bft)
16.08.2026 12:12 23,8 °C 23,4 °C 57 % 69 % 1015,7 hPa 0,0 l/m² 3,2 km/h (1 Bft) N-NW 337 ° 1 min 359 W/m² 17,4 °C 23,4 °C 4,8 km/h (1 Bft)
16.08.2026 12:13 23,8 °C 23,4 °C 57 % 70 % 1015,7 hPa 0,0 l/m² 1,6 km/h (1 Bft) N-NW 337 ° 1 min 359 W/m² 17,6 °C 23,4 °C 4,8 km/h (1 Bft)
16.08.2026 12:14 23,8 °C 23,7 °C 57 % 70 % 1015,7 hPa 0,0 l/m² 9,7 km/h (2 Bft) W 270 ° 1 min 823 W/m² 17,9 °C 22,8 °C 14,5 km/h (3 Bft)
16.08.2026 12:15 23,8 °C 23,9 °C 57 % 69 % 1015,7 hPa 0,0 l/m² 8,0 km/h (2 Bft) N-NW 337 ° 1 min 833 W/m² 17,9 °C 23,4 °C 16,1 km/h (3 Bft)
16.08.2026 12:16 23,8 °C 24,0 °C 57 % 68 % 1015,7 hPa 0,0 l/m² 8,0 km/h (2 Bft) W-NW 292 ° 1 min 814 W/m² 17,7 °C 23,6 °C 11,3 km/h (2 Bft)
16.08.2026 12:17 23,8 °C 23,9 °C 57 % 68 % 1015,8 hPa 0,0 l/m² 11,3 km/h (2 Bft) N-NW 337 ° 1 min 418 W/m² 17,6 °C 22,7 °C 14,5 km/h (3 Bft)
16.08.2026 12:18 23,8 °C 23,9 °C 58 % 68 % 1015,7 hPa 0,0 l/m² 6,4 km/h (2 Bft) NW 315 ° 1 min 427 W/m² 17,6 °C 23,9 °C 9,7 km/h (2 Bft)
16.08.2026 12:19 23,8 °C 23,9 °C 58 % 68 % 1015,8 hPa 0,0 l/m² 3,2 km/h (1 Bft) W-NW 292 ° 1 min 422 W/m² 17,6 °C 23,9 °C 4,8 km/h (1 Bft)
16.08.2026 12:20 23,8 °C 24,0 °C 58 % 68 % 1015,7 hPa 0,0 l/m² 3,2 km/h (1 Bft) W-NW 292 ° 1 min 422 W/m² 17,7 °C 24,0 °C 4,8 km/h (1 Bft)
16.08.2026 12:21 23,8 °C 24,1 °C 58 % 68 % 1015,7 hPa 0,0 l/m² 3,2 km/h (1 Bft) W 270 ° 1 min 687 W/m² 17,8 °C 24,1 °C 4,8 km/h (1 Bft)
16.08.2026 12:22 23,8 °C 24,3 °C 58 % 68 % 1015,7 hPa 0,0 l/m² 1,6 km/h (1 Bft) W 270 ° 1 min 744 W/m² 18,0 °C 24,3 °C 4,8 km/h (1 Bft)
16.08.2026 12:23 23,8 °C 24,4 °C 58 % 67 % 1015,7 hPa 0,0 l/m² 4,8 km/h (1 Bft) NO 45 ° 1 min 707 W/m² 17,9 °C 24,4 °C 6,4 km/h (2 Bft)
16.08.2026 12:24 23,8 °C 24,6 °C 58 % 67 % 1015,7 hPa 0,0 l/m² 6,4 km/h (2 Bft) N-NO 22 ° 1 min 707 W/m² 18,1 °C 24,6 °C 12,9 km/h (3 Bft)
16.08.2026 12:25 23,8 °C 24,5 °C 58 % 66 % 1015,7 hPa 0,0 l/m² 3,2 km/h (1 Bft) N-NO 22 ° 1 min 838 W/m² 17,7 °C 24,5 °C 4,8 km/h (1 Bft)
16.08.2026 12:26 23,8 °C 24,6 °C 58 % 67 % 1015,6 hPa 0,0 l/m² 4,8 km/h (1 Bft) N-NO 22 ° 1 min 860 W/m² 18,1 °C 24,6 °C 11,3 km/h (2 Bft)
16.08.2026 12:27 23,8 °C 24,6 °C 58 % 67 % 1015,5 hPa 0,0 l/m² 8,0 km/h (2 Bft) N-NO 22 ° 1 min 853 W/m² 18,1 °C 24,2 °C 16,1 km/h (3 Bft)
16.08.2026 12:28 23,8 °C 24,8 °C 58 % 66 % 1015,6 hPa 0,0 l/m² 6,4 km/h (2 Bft) N-NW 337 ° 1 min 889 W/m² 18,0 °C 24,8 °C 12,9 km/h (3 Bft)
16.08.2026 12:29 23,9 °C 24,9 °C 58 % 66 % 1015,5 hPa 0,0 l/m² 8,0 km/h (2 Bft) W 270 ° 1 min 907 W/m² 18,1 °C 24,5 °C 12,9 km/h (3 Bft)
16.08.2026 12:30 23,8 °C 25,0 °C 58 % 65 % 1015,5 hPa 0,0 l/m² 6,4 km/h (2 Bft) W-SW 247 ° 1 min 809 W/m² 17,9 °C 25,0 °C 9,7 km/h (2 Bft)
16.08.2026 12:31 23,8 °C 24,9 °C 58 % 65 % 1015,5 hPa 0,0 l/m² 4,8 km/h (1 Bft) W-SW 247 ° 1 min 809 W/m² 17,9 °C 24,9 °C 8,0 km/h (2 Bft)
16.08.2026 12:32 23,8 °C 24,8 °C 58 % 65 % 1015,6 hPa 0,0 l/m² 4,8 km/h (1 Bft) N-NO 22 ° 1 min 522 W/m² 17,8 °C 24,8 °C 8,0 km/h (2 Bft)
16.08.2026 12:33 23,9 °C 24,7 °C 58 % 65 % 1015,6 hPa 0,0 l/m² 4,8 km/h (1 Bft) W-NW 292 ° 1 min 515 W/m² 17,7 °C 24,7 °C 8,0 km/h (2 Bft)
16.08.2026 12:34 23,9 °C 24,6 °C 58 % 67 % 1015,5 hPa 0,0 l/m² 8,0 km/h (2 Bft) N-NW 337 ° 1 min 533 W/m² 18,1 °C 24,2 °C 12,9 km/h (3 Bft)
16.08.2026 12:35 23,9 °C 24,7 °C 58 % 65 % 1015,6 hPa 0,0 l/m² 3,2 km/h (1 Bft) W-NW 292 ° 1 min 501 W/m² 17,7 °C 24,7 °C 6,4 km/h (2 Bft)
16.08.2026 12:36 23,8 °C 24,6 °C 58 % 65 % 1015,6 hPa 0,0 l/m² 6,4 km/h (2 Bft) W 270 ° 1 min 554 W/m² 17,6 °C 24,6 °C 11,3 km/h (2 Bft)
16.08.2026 12:37 23,9 °C 24,4 °C 58 % 66 % 1015,5 hPa 0,0 l/m² 4,8 km/h (1 Bft) W 270 ° 1 min 503 W/m² 17,6 °C 24,4 °C 6,4 km/h (2 Bft)
16.08.2026 12:38 23,8 °C 24,3 °C 58 % 66 % 1015,5 hPa 0,0 l/m² 3,2 km/h (1 Bft) W 270 ° 1 min 536 W/m² 17,5 °C 24,3 °C 4,8 km/h (1 Bft)
16.08.2026 12:39 23,9 °C 24,3 °C 58 % 67 % 1015,6 hPa 0,0 l/m² 3,2 km/h (1 Bft) W 270 ° 1 min 506 W/m² 17,8 °C 24,3 °C 4,8 km/h (1 Bft)
16.08.2026 12:40 23,8 °C 24,3 °C 58 % 66 % 1015,5 hPa 0,0 l/m² 6,4 km/h (2 Bft) W-NW 292 ° 1 min 538 W/m² 17,5 °C 24,3 °C 8,0 km/h (2 Bft)
16.08.2026 12:41 23,9 °C 24,3 °C 58 % 66 % 1015,6 hPa 0,0 l/m² 4,8 km/h (1 Bft) W-NW 292 ° 1 min 547 W/m² 17,5 °C 24,3 °C 6,4 km/h (2 Bft)
16.08.2026 12:42 23,9 °C 24,2 °C 58 % 67 % 1015,6 hPa 0,0 l/m² 3,2 km/h (1 Bft) W 270 ° 1 min 582 W/m² 17,7 °C 24,2 °C 8,0 km/h (2 Bft)
16.08.2026 12:43 23,9 °C 24,3 °C 58 % 68 % 1015,5 hPa 0,0 l/m² 6,4 km/h (2 Bft) N-NW 337 ° 1 min 682 W/m² 18,0 °C 24,3 °C 9,7 km/h (2 Bft)
16.08.2026 12:44 23,9 °C 24,4 °C 58 % 67 % 1015,6 hPa 0,0 l/m² 3,2 km/h (1 Bft) NW 315 ° 1 min 752 W/m² 17,9 °C 24,4 °C 4,8 km/h (1 Bft)
16.08.2026 12:45 23,9 °C 24,4 °C 58 % 67 % 1015,5 hPa 0,0 l/m² 1,6 km/h (1 Bft) W-NW 292 ° 1 min 752 W/m² 17,9 °C 24,4 °C 4,8 km/h (1 Bft)
16.08.2026 12:46 23,9 °C 24,5 °C 58 % 67 % 1015,5 hPa 0,0 l/m² 1,6 km/h (1 Bft) O-NO 67 ° 1 min 749 W/m² 18,0 °C 24,5 °C 4,8 km/h (1 Bft)
16.08.2026 12:47 23,9 °C 24,7 °C 58 % 66 % 1015,5 hPa 0,0 l/m² 3,2 km/h (1 Bft) O 90 ° 1 min 749 W/m² 17,9 °C 24,7 °C 6,4 km/h (2 Bft)
16.08.2026 12:48 23,9 °C 24,9 °C 58 % 66 % 1015,5 hPa 0,0 l/m² 3,2 km/h (1 Bft) NW 315 ° 1 min 617 W/m² 18,1 °C 24,9 °C 4,8 km/h (1 Bft)
16.08.2026 12:49 23,9 °C 25,2 °C 58 % 66 % 1015,5 hPa 0,0 l/m² 3,2 km/h (1 Bft) NW 315 ° 1 min 617 W/m² 18,4 °C 25,2 °C 4,8 km/h (1 Bft)
16.08.2026 12:50 23,9 °C 25,3 °C 58 % 65 % 1015,5 hPa 0,0 l/m² 3,2 km/h (1 Bft) N-NW 337 ° 1 min 696 W/m² 18,2 °C 25,3 °C 4,8 km/h (1 Bft)
16.08.2026 12:51 23,9 °C 25,2 °C 58 % 65 % 1015,5 hPa 0,0 l/m² 1,6 km/h (1 Bft) NW 315 ° 1 min 573 W/m² 18,1 °C 25,2 °C 3,2 km/h (1 Bft)
16.08.2026 12:52 23,9 °C 25,1 °C 58 % 64 % 1015,5 hPa 0,0 l/m² 1,6 km/h (1 Bft) NO 45 ° 1 min 573 W/m² 17,8 °C 25,1 °C 4,8 km/h (1 Bft)
16.08.2026 12:53 23,9 °C 24,9 °C 58 % 64 % 1015,5 hPa 0,0 l/m² 3,2 km/h (1 Bft) SW 225 ° 1 min 573 W/m² 17,6 °C 24,9 °C 6,4 km/h (2 Bft)
16.08.2026 12:54 23,9 °C 24,8 °C 58 % 64 % 1015,5 hPa 0,0 l/m² 1,6 km/h (1 Bft) SW 225 ° 1 min 424 W/m² 17,5 °C 24,8 °C 4,8 km/h (1 Bft)
16.08.2026 12:55 23,9 °C 24,7 °C 58 % 65 % 1015,5 hPa 0,0 l/m² 3,2 km/h (1 Bft) N-NW 337 ° 1 min 413 W/m² 17,7 °C 24,7 °C 4,8 km/h (1 Bft)
16.08.2026 12:56 23,9 °C 24,7 °C 58 % 66 % 1015,4 hPa 0,0 l/m² 8,0 km/h (2 Bft) N-NW 337 ° 1 min 457 W/m² 17,9 °C 24,3 °C 9,7 km/h (2 Bft)
16.08.2026 12:57 23,9 °C 24,7 °C 58 % 66 % 1015,4 hPa 0,0 l/m² 8,0 km/h (2 Bft) N 360 ° 1 min 803 W/m² 17,9 °C 24,3 °C 12,9 km/h (3 Bft)
16.08.2026 12:58 23,9 °C 24,7 °C 58 % 65 % 1015,4 hPa 0,0 l/m² 8,0 km/h (2 Bft) W-NW 292 ° 1 min 789 W/m² 17,7 °C 24,3 °C 12,9 km/h (3 Bft)
16.08.2026 12:59 23,9 °C 24,8 °C 58 % 66 % 1015,4 hPa 0,0 l/m² 3,2 km/h (1 Bft) W 270 ° 1 min 816 W/m² 18,0 °C 24,8 °C 6,4 km/h (2 Bft)
16.08.2026 13:00 23,9 °C 24,9 °C 58 % 65 % 1015,5 hPa 0,0 l/m² 0,0 km/h (0 Bft) W 270 ° 1 min 810 W/m² 17,9 °C 24,9 °C 1,6 km/h (1 Bft)
16.08.2026 13:01 23,9 °C 24,9 °C 58 % 65 % 1015,4 hPa 0,0 l/m² 0,0 km/h (0 Bft) W 270 ° 1 min 805 W/m² 17,9 °C 24,9 °C 1,6 km/h (1 Bft)
16.08.2026 13:02 23,9 °C 25,0 °C 58 % 65 % 1015,4 hPa 0,0 l/m² 3,2 km/h (1 Bft) W 270 ° 1 min 835 W/m² 17,9 °C 25,0 °C 4,8 km/h (1 Bft)
16.08.2026 13:03 23,9 °C 25,2 °C 58 % 64 % 1015,3 hPa 0,0 l/m² 1,6 km/h (1 Bft) W 270 ° 1 min 837 W/m² 17,9 °C 25,2 °C 3,2 km/h (1 Bft)
16.08.2026 13:04 23,9 °C 25,2 °C 58 % 65 % 1015,3 hPa 0,0 l/m² 1,6 km/h (1 Bft) W 270 ° 1 min 838 W/m² 18,1 °C 25,2 °C 3,2 km/h (1 Bft)
16.08.2026 13:05 23,9 °C 25,3 °C 58 % 64 % 1015,4 hPa 0,0 l/m² 3,2 km/h (1 Bft) W 270 ° 1 min 846 W/m² 18,0 °C 25,3 °C 8,0 km/h (2 Bft)
16.08.2026 13:06 23,9 °C 25,4 °C 58 % 64 % 1015,4 hPa 0,0 l/m² 8,0 km/h (2 Bft) SW 225 ° 1 min 840 W/m² 18,1 °C 25,0 °C 11,3 km/h (2 Bft)
16.08.2026 13:07 23,9 °C 25,7 °C 58 % 64 % 1015,4 hPa 0,0 l/m² 3,2 km/h (1 Bft) W-NW 292 ° 1 min 842 W/m² 18,4 °C 25,7 °C 6,4 km/h (2 Bft)
16.08.2026 13:08 23,9 °C 25,9 °C 58 % 63 % 1015,4 hPa 0,0 l/m² 1,6 km/h (1 Bft) W-NW 292 ° 1 min 840 W/m² 18,3 °C 25,9 °C 3,2 km/h (1 Bft)
16.08.2026 13:09 23,9 °C 26,1 °C 58 % 63 % 1015,4 hPa 0,0 l/m² 0,0 km/h (0 Bft) W-NW 292 ° 1 min 837 W/m² 18,5 °C 26,1 °C 3,2 km/h (1 Bft)
16.08.2026 13:10 23,9 °C 26,2 °C 58 % 62 % 1015,3 hPa 0,0 l/m² 4,8 km/h (1 Bft) W-SW 247 ° 1 min 844 W/m² 18,3 °C 26,2 °C 6,4 km/h (2 Bft)
16.08.2026 13:11 23,9 °C 26,1 °C 58 % 62 % 1015,4 hPa 0,0 l/m² 1,6 km/h (1 Bft) W-SW 247 ° 1 min 840 W/m² 18,2 °C 26,1 °C 3,2 km/h (1 Bft)
16.08.2026 13:12 23,9 °C 26,1 °C 58 % 61 % 1015,3 hPa 0,0 l/m² 3,2 km/h (1 Bft) NO 45 ° 1 min 812 W/m² 18,0 °C 26,1 °C 6,4 km/h (2 Bft)
16.08.2026 13:13 23,9 °C 25,9 °C 58 % 62 % 1015,4 hPa 0,0 l/m² 3,2 km/h (1 Bft) NO 45 ° 1 min 826 W/m² 18,0 °C 25,9 °C 6,4 km/h (2 Bft)
16.08.2026 13:14 23,9 °C 25,9 °C 58 % 63 % 1015,3 hPa 0,0 l/m² 6,4 km/h (2 Bft) N-NW 337 ° 1 min 821 W/m² 18,3 °C 25,9 °C 8,0 km/h (2 Bft)
16.08.2026 13:15 23,9 °C 26,0 °C 58 % 62 % 1015,3 hPa 0,0 l/m² 4,8 km/h (1 Bft) NW 315 ° 1 min 821 W/m² 18,1 °C 26,0 °C 8,0 km/h (2 Bft)
16.08.2026 13:16 23,9 °C 25,9 °C 58 % 62 % 1015,3 hPa 0,0 l/m² 4,8 km/h (1 Bft) N 360 ° 1 min 378 W/m² 18,0 °C 25,9 °C 6,4 km/h (2 Bft)
16.08.2026 13:17 23,9 °C 25,8 °C 58 % 62 % 1015,3 hPa 0,0 l/m² 3,2 km/h (1 Bft) N 360 ° 1 min 378 W/m² 18,0 °C 25,8 °C 8,0 km/h (2 Bft)
16.08.2026 13:18 23,9 °C 25,9 °C 58 % 63 % 1015,3 hPa 0,0 l/m² 4,8 km/h (1 Bft) O-NO 67 ° 1 min 378 W/m² 18,3 °C 25,9 °C 9,7 km/h (2 Bft)
16.08.2026 13:19 23,9 °C 26,0 °C 58 % 62 % 1015,3 hPa 0,0 l/m² 3,2 km/h (1 Bft) O-NO 67 ° 1 min 842 W/m² 18,1 °C 26,0 °C 6,4 km/h (2 Bft)
16.08.2026 13:20 23,9 °C 26,2 °C 58 % 63 % 1015,3 hPa 0,0 l/m² 4,8 km/h (1 Bft) O-NO 67 ° 1 min 842 W/m² 18,6 °C 26,2 °C 8,0 km/h (2 Bft)
16.08.2026 13:21 23,9 °C 26,2 °C 58 % 62 % 1015,3 hPa 0,0 l/m² 4,8 km/h (1 Bft) N-NO 22 ° 1 min 817 W/m² 18,3 °C 26,2 °C 8,0 km/h (2 Bft)
16.08.2026 13:22 23,9 °C 26,1 °C 58 % 61 % 1015,3 hPa 0,0 l/m² 4,8 km/h (1 Bft) N-NO 22 ° 1 min 837 W/m² 18,0 °C 26,1 °C 6,4 km/h (2 Bft)
16.08.2026 13:23 23,9 °C 26,0 °C 58 % 62 % 1015,3 hPa 0,0 l/m² 4,8 km/h (1 Bft) N-NO 22 ° 1 min 854 W/m² 18,1 °C 26,0 °C 8,0 km/h (2 Bft)
16.08.2026 13:24 23,9 °C 25,8 °C 58 % 61 % 1015,3 hPa 0,0 l/m² 3,2 km/h (1 Bft) NO 45 ° 1 min 854 W/m² 17,7 °C 25,8 °C 4,8 km/h (1 Bft)
16.08.2026 13:25 23,9 °C 25,9 °C 58 % 63 % 1015,3 hPa 0,0 l/m² 1,6 km/h (1 Bft) NO 45 ° 1 min 837 W/m² 18,3 °C 25,9 °C 4,8 km/h (1 Bft)
16.08.2026 13:26 23,9 °C 26,1 °C 58 % 63 % 1015,2 hPa 0,0 l/m² 1,6 km/h (1 Bft) N-NO 22 ° 1 min 837 W/m² 18,5 °C 26,1 °C 3,2 km/h (1 Bft)
16.08.2026 13:27 23,9 °C 26,1 °C 58 % 62 % 1015,3 hPa 0,0 l/m² 3,2 km/h (1 Bft) N-NO 22 ° 1 min 311 W/m² 18,2 °C 26,1 °C 4,8 km/h (1 Bft)
16.08.2026 13:28 23,9 °C 26,1 °C 58 % 62 % 1015,3 hPa 0,0 l/m² 4,8 km/h (1 Bft) NO 45 ° 1 min 318 W/m² 18,2 °C 26,1 °C 6,4 km/h (2 Bft)
16.08.2026 13:29 23,9 °C 25,8 °C 58 % 61 % 1015,2 hPa 0,0 l/m² 1,6 km/h (1 Bft) NO 45 ° 1 min 318 W/m² 17,7 °C 25,8 °C 6,4 km/h (2 Bft)
16.08.2026 13:30 23,9 °C 25,6 °C 58 % 62 % 1015,3 hPa 0,0 l/m² 3,2 km/h (1 Bft) NO 45 ° 1 min 313 W/m² 17,8 °C 25,6 °C 3,2 km/h (1 Bft)
16.08.2026 13:31 23,9 °C 25,4 °C 58 % 63 % 1015,3 hPa 0,0 l/m² 3,2 km/h (1 Bft) NO 45 ° 1 min 302 W/m² 17,8 °C 25,4 °C 8,0 km/h (2 Bft)
16.08.2026 13:32 23,9 °C 25,3 °C 58 % 63 % 1015,3 hPa 0,0 l/m² 1,6 km/h (1 Bft) NO 45 ° 1 min 302 W/m² 17,7 °C 25,3 °C 3,2 km/h (1 Bft)
16.08.2026 13:33 23,9 °C 25,2 °C 58 % 63 % 1015,3 hPa 0,0 l/m² 1,6 km/h (1 Bft) NO 45 ° 1 min 311 W/m² 17,6 °C 25,2 °C 3,2 km/h (1 Bft)
16.08.2026 13:34 23,9 °C 24,9 °C 58 % 64 % 1015,3 hPa 0,0 l/m² 1,6 km/h (1 Bft) NO 45 ° 1 min 316 W/m² 17,6 °C 24,9 °C 3,2 km/h (1 Bft)
16.08.2026 13:35 23,9 °C 24,8 °C 58 % 64 % 1015,3 hPa 0,0 l/m² 0,0 km/h (0 Bft) NO 45 ° 1 min 295 W/m² 17,5 °C 24,8 °C 1,6 km/h (1 Bft)
16.08.2026 13:36 23,9 °C 24,7 °C 58 % 65 % 1015,3 hPa 0,0 l/m² 3,2 km/h (1 Bft) NO 45 ° 1 min 292 W/m² 17,7 °C 24,7 °C 3,2 km/h (1 Bft)
16.08.2026 13:37 24,0 °C 24,6 °C 58 % 64 % 1015,3 hPa 0,0 l/m² 1,6 km/h (1 Bft) NO 45 ° 1 min 290 W/m² 17,3 °C 24,6 °C 3,2 km/h (1 Bft)
16.08.2026 13:38 23,9 °C 24,6 °C 58 % 64 % 1015,2 hPa 0,0 l/m² 3,2 km/h (1 Bft) NO 45 ° 1 min 274 W/m² 17,3 °C 24,6 °C 4,8 km/h (1 Bft)
16.08.2026 13:39 23,9 °C 24,7 °C 58 % 65 % 1015,2 hPa 0,0 l/m² 0,0 km/h (0 Bft) O-NO 67 ° 1 min 353 W/m² 17,7 °C 24,7 °C 1,6 km/h (1 Bft)
16.08.2026 13:40 23,9 °C 24,6 °C 58 % 65 % 1015,1 hPa 0,0 l/m² 0,0 km/h (0 Bft) O-NO 67 ° 1 min 353 W/m² 17,6 °C 24,6 °C 1,6 km/h (1 Bft)
16.08.2026 13:41 23,9 °C 24,8 °C 58 % 65 % 1015,2 hPa 0,0 l/m² 3,2 km/h (1 Bft) SO 135 ° 1 min 353 W/m² 17,8 °C 24,8 °C 4,8 km/h (1 Bft)
16.08.2026 13:42 23,9 °C 25,4 °C 58 % 66 % 1015,2 hPa 0,0 l/m² 1,6 km/h (1 Bft) S-SW 202 ° 1 min 780 W/m² 18,6 °C 25,4 °C 4,8 km/h (1 Bft)
16.08.2026 13:43 23,9 °C 25,8 °C 58 % 64 % 1015,2 hPa 0,0 l/m² 3,2 km/h (1 Bft) W-NW 292 ° 1 min 844 W/m² 18,5 °C 25,8 °C 6,4 km/h (2 Bft)
16.08.2026 13:44 23,9 °C 25,9 °C 58 % 63 % 1015,1 hPa 0,0 l/m² 4,8 km/h (1 Bft) W 270 ° 1 min 823 W/m² 18,3 °C 25,9 °C 8,0 km/h (2 Bft)
16.08.2026 13:45 23,9 °C 25,9 °C 58 % 62 % 1015,2 hPa 0,0 l/m² 6,4 km/h (2 Bft) NW 315 ° 1 min 865 W/m² 18,0 °C 25,9 °C 8,0 km/h (2 Bft)
16.08.2026 13:46 23,9 °C 25,9 °C 58 % 61 % 1015,1 hPa 0,0 l/m² 4,8 km/h (1 Bft) SW 225 ° 1 min 828 W/m² 17,8 °C 25,9 °C 6,4 km/h (2 Bft)
16.08.2026 13:47 23,9 °C 26,0 °C 58 % 62 % 1015,2 hPa 0,0 l/m² 4,8 km/h (1 Bft) W 270 ° 1 min 872 W/m² 18,1 °C 26,0 °C 6,4 km/h (2 Bft)
16.08.2026 13:48 23,9 °C 26,3 °C 58 % 62 % 1015,1 hPa 0,0 l/m² 6,4 km/h (2 Bft) W 270 ° 1 min 870 W/m² 18,4 °C 26,3 °C 11,3 km/h (2 Bft)
16.08.2026 13:49 23,9 °C 26,2 °C 58 % 61 % 1015,1 hPa 0,0 l/m² 4,8 km/h (1 Bft) W-SW 247 ° 1 min 858 W/m² 18,1 °C 26,2 °C 9,7 km/h (2 Bft)
16.08.2026 13:50 23,9 °C 26,2 °C 58 % 61 % 1015,2 hPa 0,0 l/m² 8,0 km/h (2 Bft) W-NW 292 ° 1 min 856 W/m² 18,1 °C 25,9 °C 12,9 km/h (3 Bft)
16.08.2026 13:51 23,9 °C 26,2 °C 58 % 61 % 1015,1 hPa 0,0 l/m² 4,8 km/h (1 Bft) W 270 ° 1 min 858 W/m² 18,1 °C 26,2 °C 8,0 km/h (2 Bft)
16.08.2026 13:52 23,9 °C 26,2 °C 58 % 61 % 1015,1 hPa 0,0 l/m² 1,6 km/h (1 Bft) W-NW 292 ° 1 min 854 W/m² 18,1 °C 26,2 °C 3,2 km/h (1 Bft)
16.08.2026 13:53 23,9 °C 26,3 °C 58 % 61 % 1015,1 hPa 0,0 l/m² 3,2 km/h (1 Bft) W-NW 292 ° 1 min 854 W/m² 18,2 °C 26,3 °C 4,8 km/h (1 Bft)
16.08.2026 13:54 23,9 °C 26,2 °C 58 % 61 % 1015,2 hPa 0,0 l/m² 3,2 km/h (1 Bft) O-NO 67 ° 1 min 851 W/m² 18,1 °C 26,2 °C 6,4 km/h (2 Bft)
16.08.2026 13:55 23,9 °C 26,1 °C 58 % 60 % 1015,1 hPa 0,0 l/m² 1,6 km/h (1 Bft) N-NW 337 ° 1 min 840 W/m² 17,7 °C 26,1 °C 4,8 km/h (1 Bft)
16.08.2026 13:56 23,9 °C 26,1 °C 58 % 61 % 1015,1 hPa 0,0 l/m² 6,4 km/h (2 Bft) SW 225 ° 1 min 847 W/m² 18,0 °C 26,1 °C 11,3 km/h (2 Bft)
16.08.2026 13:57 23,9 °C 26,3 °C 58 % 60 % 1015,1 hPa 0,0 l/m² 4,8 km/h (1 Bft) SW 225 ° 1 min 846 W/m² 17,9 °C 26,3 °C 11,3 km/h (2 Bft)
16.08.2026 13:58 23,9 °C 26,7 °C 58 % 60 % 1015,0 hPa 0,0 l/m² 6,4 km/h (2 Bft) SW 225 ° 1 min 838 W/m² 18,3 °C 26,7 °C 11,3 km/h (2 Bft)
16.08.2026 13:59 23,9 °C 26,8 °C 58 % 59 % 1015,0 hPa 0,0 l/m² 6,4 km/h (2 Bft) S-SW 202 ° 1 min 837 W/m² 18,1 °C 26,8 °C 11,3 km/h (2 Bft)
16.08.2026 14:00 24,0 °C 26,8 °C 58 % 59 % 1015,1 hPa 0,0 l/m² 11,3 km/h (2 Bft) SW 225 ° 1 min 838 W/m² 18,1 °C 26,0 °C 14,5 km/h (3 Bft)
16.08.2026 14:01 23,9 °C 26,8 °C 58 % 58 % 1015,0 hPa 0,0 l/m² 11,3 km/h (2 Bft) SW 225 ° 1 min 835 W/m² 17,8 °C 26,0 °C 14,5 km/h (3 Bft)
16.08.2026 14:02 23,9 °C 26,9 °C 58 % 59 % 1015,0 hPa 0,0 l/m² 9,7 km/h (2 Bft) W-SW 247 ° 1 min 830 W/m² 18,2 °C 26,3 °C 14,5 km/h (3 Bft)
16.08.2026 14:03 23,9 °C 27,0 °C 57 % 59 % 1015,1 hPa 0,0 l/m² 6,4 km/h (2 Bft) W 270 ° 1 min 828 W/m² 18,3 °C 27,0 °C 9,7 km/h (2 Bft)
16.08.2026 14:04 24,0 °C 27,1 °C 57 % 57 % 1015,1 hPa 0,0 l/m² 4,8 km/h (1 Bft) SW 225 ° 1 min 824 W/m² 17,8 °C 27,1 °C 8,0 km/h (2 Bft)
16.08.2026 14:05 23,9 °C 26,9 °C 57 % 58 % 1015,1 hPa 0,0 l/m² 1,6 km/h (1 Bft) SW 225 ° 1 min 812 W/m² 17,9 °C 26,9 °C 3,2 km/h (1 Bft)
16.08.2026 14:06 23,9 °C 26,8 °C 58 % 59 % 1015,2 hPa 0,0 l/m² 4,8 km/h (1 Bft) SW 225 ° 1 min 824 W/m² 18,1 °C 26,8 °C 8,0 km/h (2 Bft)
16.08.2026 14:07 24,0 °C 26,9 °C 57 % 58 % 1015,1 hPa 0,0 l/m² 6,4 km/h (2 Bft) SW 225 ° 1 min 812 W/m² 17,9 °C 26,9 °C 8,0 km/h (2 Bft)
16.08.2026 14:08 23,9 °C 27,2 °C 57 % 59 % 1015,0 hPa 0,0 l/m² 8,0 km/h (2 Bft) W 270 ° 1 min 816 W/m² 18,5 °C 26,9 °C 12,9 km/h (3 Bft)
16.08.2026 14:09 24,0 °C 27,2 °C 57 % 58 % 1015,0 hPa 0,0 l/m² 4,8 km/h (1 Bft) W 270 ° 1 min 812 W/m² 18,2 °C 27,2 °C 9,7 km/h (2 Bft)
16.08.2026 14:10 24,0 °C 27,3 °C 57 % 59 % 1015,0 hPa 0,0 l/m² 4,8 km/h (1 Bft) W-NW 292 ° 1 min 805 W/m² 18,6 °C 27,3 °C 8,0 km/h (2 Bft)
16.08.2026 14:11 23,9 °C 27,2 °C 57 % 58 % 1015,1 hPa 0,0 l/m² 6,4 km/h (2 Bft) N 360 ° 1 min 824 W/m² 18,2 °C 27,2 °C 9,7 km/h (2 Bft)
16.08.2026 14:12 23,9 °C 27,0 °C 57 % 58 % 1015,0 hPa 0,0 l/m² 4,8 km/h (1 Bft) N 360 ° 1 min 819 W/m² 18,0 °C 27,0 °C 8,0 km/h (2 Bft)
16.08.2026 14:13 23,9 °C 27,1 °C 57 % 60 % 1015,1 hPa 0,0 l/m² 8,0 km/h (2 Bft) N-NW 337 ° 1 min 812 W/m² 18,6 °C 26,8 °C 14,5 km/h (3 Bft)
16.08.2026 14:14 24,0 °C 27,1 °C 57 % 59 % 1015,0 hPa 0,0 l/m² 8,0 km/h (2 Bft) N 360 ° 1 min 821 W/m² 18,4 °C 26,8 °C 14,5 km/h (3 Bft)
16.08.2026 14:15 24,0 °C 27,2 °C 57 % 58 % 1015,0 hPa 0,0 l/m² 6,4 km/h (2 Bft) N-NO 22 ° 1 min 824 W/m² 18,2 °C 27,2 °C 11,3 km/h (2 Bft)
16.08.2026 14:16 24,0 °C 27,2 °C 57 % 59 % 1015,1 hPa 0,0 l/m² 6,4 km/h (2 Bft) N 360 ° 1 min 824 W/m² 18,5 °C 27,2 °C 11,3 km/h (2 Bft)
16.08.2026 14:17 24,0 °C 27,2 °C 57 % 59 % 1015,0 hPa 0,0 l/m² 6,4 km/h (2 Bft) N-NO 22 ° 1 min 824 W/m² 18,5 °C 27,2 °C 11,3 km/h (2 Bft)
16.08.2026 14:18 24,0 °C 27,2 °C 57 % 59 % 1015,1 hPa 0,0 l/m² 8,0 km/h (2 Bft) NO 45 ° 1 min 824 W/m² 18,5 °C 26,9 °C 9,7 km/h (2 Bft)
16.08.2026 14:19 24,0 °C 27,3 °C 57 % 58 % 1015,1 hPa 0,0 l/m² 8,0 km/h (2 Bft) NO 45 ° 1 min 824 W/m² 18,3 °C 27,0 °C 9,7 km/h (2 Bft)
16.08.2026 14:20 24,0 °C 27,1 °C 57 % 58 % 1014,9 hPa 0,0 l/m² 6,4 km/h (2 Bft) NO 45 ° 1 min 824 W/m² 18,1 °C 27,1 °C 8,0 km/h (2 Bft)
16.08.2026 14:21 24,0 °C 26,9 °C 57 % 58 % 1015,0 hPa 0,0 l/m² 6,4 km/h (2 Bft) NO 45 ° 1 min 824 W/m² 17,9 °C 26,9 °C 8,0 km/h (2 Bft)
16.08.2026 14:22 24,0 °C 26,7 °C 57 % 59 % 1014,9 hPa 0,0 l/m² 4,8 km/h (1 Bft) N-NW 337 ° 1 min 810 W/m² 18,0 °C 26,7 °C 9,7 km/h (2 Bft)
16.08.2026 14:23 24,0 °C 26,5 °C 57 % 59 % 1015,0 hPa 0,0 l/m² 4,8 km/h (1 Bft) N-NW 337 ° 1 min 793 W/m² 17,8 °C 26,5 °C 9,7 km/h (2 Bft)
16.08.2026 14:24 24,0 °C 26,3 °C 57 % 59 % 1015,0 hPa 0,0 l/m² 4,8 km/h (1 Bft) N-NO 22 ° 1 min 786 W/m² 17,6 °C 26,3 °C 6,4 km/h (2 Bft)
16.08.2026 14:25 24,0 °C 26,4 °C 57 % 59 % 1015,0 hPa 0,0 l/m² 4,8 km/h (1 Bft) O-SO 112 ° 1 min 756 W/m² 17,7 °C 26,4 °C 6,4 km/h (2 Bft)
16.08.2026 14:26 24,0 °C 26,7 °C 57 % 60 % 1014,9 hPa 0,0 l/m² 6,4 km/h (2 Bft) O 90 ° 1 min 770 W/m² 18,3 °C 26,7 °C 12,9 km/h (3 Bft)
16.08.2026 14:27 24,0 °C 27,1 °C 57 % 59 % 1014,9 hPa 0,0 l/m² 9,7 km/h (2 Bft) O-SO 112 ° 1 min 765 W/m² 18,4 °C 26,5 °C 16,1 km/h (3 Bft)
16.08.2026 14:28 24,0 °C 27,2 °C 57 % 59 % 1014,9 hPa 0,0 l/m² 8,0 km/h (2 Bft) W-NW 292 ° 1 min 780 W/m² 18,5 °C 26,9 °C 11,3 km/h (2 Bft)
16.08.2026 14:29 23,9 °C 27,3 °C 57 % 59 % 1014,9 hPa 0,0 l/m² 6,4 km/h (2 Bft) NW 315 ° 1 min 780 W/m² 18,6 °C 27,3 °C 11,3 km/h (2 Bft)
16.08.2026 14:30 24,0 °C 27,3 °C 57 % 58 % 1014,9 hPa 0,0 l/m² 6,4 km/h (2 Bft) W-NW 292 ° 1 min 735 W/m² 18,3 °C 27,3 °C 11,3 km/h (2 Bft)
16.08.2026 14:31 24,0 °C 27,1 °C 57 % 57 % 1014,9 hPa 0,0 l/m² 6,4 km/h (2 Bft) W 270 ° 1 min 728 W/m² 17,8 °C 27,1 °C 11,3 km/h (2 Bft)
16.08.2026 14:32 24,0 °C 27,0 °C 57 % 58 % 1015,0 hPa 0,0 l/m² 4,8 km/h (1 Bft) W-SW 247 ° 1 min 726 W/m² 18,0 °C 27,0 °C 8,0 km/h (2 Bft)
16.08.2026 14:33 24,0 °C 26,9 °C 57 % 58 % 1014,9 hPa 0,0 l/m² 4,8 km/h (1 Bft) W 270 ° 1 min 724 W/m² 17,9 °C 26,9 °C 9,7 km/h (2 Bft)
16.08.2026 14:34 24,0 °C 26,9 °C 57 % 59 % 1015,0 hPa 0,0 l/m² 8,0 km/h (2 Bft) W 270 ° 1 min 717 W/m² 18,2 °C 26,6 °C 12,9 km/h (3 Bft)
16.08.2026 14:35 24,0 °C 27,0 °C 57 % 58 % 1014,9 hPa 0,0 l/m² 4,8 km/h (1 Bft) W 270 ° 1 min 728 W/m² 18,0 °C 27,0 °C 6,4 km/h (2 Bft)
16.08.2026 14:36 23,9 °C 26,9 °C 57 % 58 % 1014,9 hPa 0,0 l/m² 4,8 km/h (1 Bft) W 270 ° 1 min 735 W/m² 17,9 °C 26,9 °C 9,7 km/h (2 Bft)
16.08.2026 14:37 23,9 °C 26,9 °C 57 % 59 % 1014,9 hPa 0,0 l/m² 6,4 km/h (2 Bft) W 270 ° 1 min 740 W/m² 18,2 °C 26,9 °C 11,3 km/h (2 Bft)
16.08.2026 14:38 23,9 °C 26,8 °C 57 % 58 % 1014,9 hPa 0,0 l/m² 3,2 km/h (1 Bft) W 270 ° 1 min 738 W/m² 17,8 °C 26,8 °C 4,8 km/h (1 Bft)
16.08.2026 14:39 24,0 °C 26,8 °C 57 % 58 % 1014,9 hPa 0,0 l/m² 1,6 km/h (1 Bft) W 270 ° 1 min 726 W/m² 17,8 °C 26,8 °C 3,2 km/h (1 Bft)
16.08.2026 14:40 23,9 °C 27,0 °C 57 % 58 % 1014,9 hPa 0,0 l/m² 1,6 km/h (1 Bft) W 270 ° 1 min 724 W/m² 18,0 °C 27,0 °C 9,7 km/h (2 Bft)
16.08.2026 14:41 24,0 °C 26,9 °C 57 % 58 % 1014,8 hPa 0,0 l/m² 9,7 km/h (2 Bft) W 270 ° 1 min 722 W/m² 17,9 °C 26,3 °C 16,1 km/h (3 Bft)
16.08.2026 14:42 23,9 °C 26,8 °C 57 % 58 % 1014,8 hPa 0,0 l/m² 11,3 km/h (2 Bft) W 270 ° 1 min 721 W/m² 17,8 °C 26,0 °C 14,5 km/h (3 Bft)
16.08.2026 14:43 23,9 °C 26,8 °C 57 % 58 % 1014,8 hPa 0,0 l/m² 8,0 km/h (2 Bft) W-SW 247 ° 1 min 724 W/m² 17,8 °C 26,5 °C 12,9 km/h (3 Bft)
16.08.2026 14:44 23,9 °C 26,8 °C 57 % 58 % 1014,8 hPa 0,0 l/m² 8,0 km/h (2 Bft) W 270 ° 1 min 717 W/m² 17,8 °C 26,5 °C 12,9 km/h (3 Bft)
16.08.2026 14:45 23,9 °C 26,9 °C 57 % 58 % 1014,8 hPa 0,0 l/m² 6,4 km/h (2 Bft) W 270 ° 1 min 726 W/m² 17,9 °C 26,9 °C 12,9 km/h (3 Bft)
16.08.2026 14:46 23,9 °C 26,9 °C 57 % 57 % 1014,8 hPa 0,0 l/m² 9,7 km/h (2 Bft) W 270 ° 1 min 726 W/m² 17,6 °C 26,3 °C 14,5 km/h (3 Bft)
16.08.2026 14:47 23,9 °C 26,9 °C 57 % 58 % 1014,8 hPa 0,0 l/m² 9,7 km/h (2 Bft) W 270 ° 1 min 722 W/m² 17,9 °C 26,3 °C 12,9 km/h (3 Bft)
16.08.2026 14:48 23,9 °C 26,9 °C 57 % 58 % 1014,8 hPa 0,0 l/m² 8,0 km/h (2 Bft) W 270 ° 1 min 714 W/m² 17,9 °C 26,6 °C 11,3 km/h (2 Bft)
16.08.2026 14:49 23,9 °C 26,8 °C 57 % 58 % 1014,8 hPa 0,0 l/m² 8,0 km/h (2 Bft) W 270 ° 1 min 710 W/m² 17,8 °C 26,5 °C 12,9 km/h (3 Bft)
16.08.2026 14:50 23,9 °C 26,8 °C 57 % 58 % 1014,8 hPa 0,0 l/m² 8,0 km/h (2 Bft) W 270 ° 1 min 708 W/m² 17,8 °C 26,5 °C 11,3 km/h (2 Bft)
16.08.2026 14:51 23,9 °C 26,8 °C 57 % 58 % 1014,8 hPa 0,0 l/m² 6,4 km/h (2 Bft) W-SW 247 ° 1 min 715 W/m² 17,8 °C 26,8 °C 9,7 km/h (2 Bft)
16.08.2026 14:52 23,9 °C 27,1 °C 57 % 57 % 1014,8 hPa 0,0 l/m² 6,4 km/h (2 Bft) SW 225 ° 1 min 719 W/m² 17,8 °C 27,1 °C 11,3 km/h (2 Bft)
16.08.2026 14:53 23,9 °C 27,3 °C 57 % 57 % 1014,8 hPa 0,0 l/m² 3,2 km/h (1 Bft) S-SW 202 ° 1 min 731 W/m² 18,0 °C 27,3 °C 6,4 km/h (2 Bft)
16.08.2026 14:54 23,9 °C 27,4 °C 57 % 57 % 1014,8 hPa 0,0 l/m² 3,2 km/h (1 Bft) W 270 ° 1 min 737 W/m² 18,1 °C 27,4 °C 4,8 km/h (1 Bft)
16.08.2026 14:55 23,9 °C 27,4 °C 57 % 56 % 1014,8 hPa 0,0 l/m² 8,0 km/h (2 Bft) W-SW 247 ° 1 min 731 W/m² 17,8 °C 27,1 °C 12,9 km/h (3 Bft)
16.08.2026 14:56 23,9 °C 27,4 °C 57 % 55 % 1014,8 hPa 0,0 l/m² 9,7 km/h (2 Bft) W 270 ° 1 min 733 W/m² 17,5 °C 26,9 °C 11,3 km/h (2 Bft)
16.08.2026 14:57 23,9 °C 27,1 °C 57 % 56 % 1014,8 hPa 0,0 l/m² 8,0 km/h (2 Bft) W 270 ° 1 min 729 W/m² 17,5 °C 26,8 °C 11,3 km/h (2 Bft)
16.08.2026 14:58 23,9 °C 27,1 °C 57 % 57 % 1014,7 hPa 0,0 l/m² 11,3 km/h (2 Bft) W-SW 247 ° 1 min 726 W/m² 17,8 °C 26,3 °C 14,5 km/h (3 Bft)
16.08.2026 14:59 23,9 °C 27,3 °C 57 % 57 % 1014,9 hPa 0,0 l/m² 6,4 km/h (2 Bft) W-SW 247 ° 1 min 722 W/m² 18,0 °C 27,3 °C 12,9 km/h (3 Bft)
16.08.2026 15:00 23,9 °C 27,3 °C 57 % 57 % 1014,7 hPa 0,0 l/m² 8,0 km/h (2 Bft) W 270 ° 1 min 731 W/m² 18,0 °C 27,0 °C 11,3 km/h (2 Bft)
16.08.2026 15:01 23,9 °C 27,3 °C 57 % 56 % 1014,7 hPa 0,0 l/m² 6,4 km/h (2 Bft) W-SW 247 ° 1 min 731 W/m² 17,7 °C 27,3 °C 11,3 km/h (2 Bft)
16.08.2026 15:02 23,9 °C 27,3 °C 57 % 57 % 1014,8 hPa 0,0 l/m² 8,0 km/h (2 Bft) W 270 ° 1 min 731 W/m² 18,0 °C 27,0 °C 12,9 km/h (3 Bft)
16.08.2026 15:03 23,9 °C 27,2 °C 57 % 56 % 1014,8 hPa 0,0 l/m² 1,6 km/h (1 Bft) W 270 ° 1 min 735 W/m² 17,6 °C 27,2 °C 6,4 km/h (2 Bft)
16.08.2026 15:04 23,9 °C 27,3 °C 57 % 57 % 1014,7 hPa 0,0 l/m² 4,8 km/h (1 Bft) SW 225 ° 1 min 721 W/m² 18,0 °C 27,3 °C 6,4 km/h (2 Bft)
16.08.2026 15:05 23,9 °C 27,4 °C 57 % 56 % 1014,8 hPa 0,0 l/m² 3,2 km/h (1 Bft) S-SW 202 ° 1 min 715 W/m² 17,8 °C 27,4 °C 4,8 km/h (1 Bft)
16.08.2026 15:06 23,9 °C 27,6 °C 57 % 58 % 1014,7 hPa 0,0 l/m² 3,2 km/h (1 Bft) S-SW 202 ° 1 min 729 W/m² 18,6 °C 27,6 °C 12,9 km/h (3 Bft)
16.08.2026 15:07 23,9 °C 27,7 °C 57 % 55 % 1014,7 hPa 0,0 l/m² 6,4 km/h (2 Bft) W-SW 247 ° 1 min 747 W/m² 17,8 °C 27,7 °C 11,3 km/h (2 Bft)
16.08.2026 15:08 23,9 °C 27,7 °C 57 % 57 % 1014,8 hPa 0,0 l/m² 3,2 km/h (1 Bft) W-SW 247 ° 1 min 742 W/m² 18,4 °C 27,7 °C 4,8 km/h (1 Bft)
16.08.2026 15:09 23,9 °C 27,6 °C 57 % 55 % 1014,8 hPa 0,0 l/m² 1,6 km/h (1 Bft) W-SW 247 ° 1 min 731 W/m² 17,7 °C 27,6 °C 3,2 km/h (1 Bft)
16.08.2026 15:10 23,9 °C 27,6 °C 58 % 56 % 1014,8 hPa 0,0 l/m² 3,2 km/h (1 Bft) W-SW 247 ° 1 min 744 W/m² 18,0 °C 27,6 °C 6,4 km/h (2 Bft)
16.08.2026 15:11 23,9 °C 27,6 °C 58 % 56 % 1014,8 hPa 0,0 l/m² 4,8 km/h (1 Bft) W-NW 292 ° 1 min 744 W/m² 18,0 °C 27,6 °C 11,3 km/h (2 Bft)
16.08.2026 15:12 23,9 °C 27,4 °C 59 % 56 % 1014,8 hPa 0,0 l/m² 3,2 km/h (1 Bft) N 360 ° 1 min 534 W/m² 17,8 °C 27,4 °C 8,0 km/h (2 Bft)
16.08.2026 15:13 23,9 °C 27,4 °C 58 % 56 % 1014,8 hPa 0,0 l/m² 3,2 km/h (1 Bft) SW 225 ° 1 min 534 W/m² 17,8 °C 27,4 °C 4,8 km/h (1 Bft)
16.08.2026 15:14 23,9 °C 27,3 °C 58 % 56 % 1014,8 hPa 0,0 l/m² 3,2 km/h (1 Bft) W 270 ° 1 min 272 W/m² 17,7 °C 27,3 °C 6,4 km/h (2 Bft)
16.08.2026 15:15 23,9 °C 27,3 °C 58 % 57 % 1014,8 hPa 0,0 l/m² 3,2 km/h (1 Bft) W 270 ° 1 min 265 W/m² 18,0 °C 27,3 °C 6,4 km/h (2 Bft)
16.08.2026 15:16 23,9 °C 27,2 °C 58 % 57 % 1014,8 hPa 0,0 l/m² 4,8 km/h (1 Bft) W-NW 292 ° 1 min 269 W/m² 17,9 °C 27,2 °C 6,4 km/h (2 Bft)
16.08.2026 15:17 23,9 °C 26,9 °C 58 % 56 % 1014,8 hPa 0,0 l/m² 4,8 km/h (1 Bft) W 270 ° 1 min 276 W/m² 17,4 °C 26,9 °C 9,7 km/h (2 Bft)
16.08.2026 15:18 24,0 °C 26,8 °C 58 % 57 % 1014,8 hPa 0,0 l/m² 1,6 km/h (1 Bft) W 270 ° 1 min 290 W/m² 17,6 °C 26,8 °C 3,2 km/h (1 Bft)
16.08.2026 15:19 24,0 °C 26,8 °C 58 % 58 % 1014,7 hPa 0,0 l/m² 1,6 km/h (1 Bft) W 270 ° 1 min 346 W/m² 17,8 °C 26,8 °C 1,6 km/h (1 Bft)
16.08.2026 15:20 24,0 °C 26,7 °C 58 % 58 % 1014,7 hPa 0,0 l/m² 6,4 km/h (2 Bft) NW 315 ° 1 min 346 W/m² 17,7 °C 26,7 °C 12,9 km/h (3 Bft)
16.08.2026 15:21 24,0 °C 26,8 °C 58 % 58 % 1014,7 hPa 0,0 l/m² 8,0 km/h (2 Bft) N-NW 337 ° 1 min 722 W/m² 17,8 °C 26,5 °C 14,5 km/h (3 Bft)
16.08.2026 15:22 24,0 °C 26,9 °C 58 % 58 % 1014,8 hPa 0,0 l/m² 9,7 km/h (2 Bft) N-NW 337 ° 1 min 701 W/m² 17,9 °C 26,3 °C 16,1 km/h (3 Bft)
16.08.2026 15:23 24,0 °C 26,9 °C 58 % 57 % 1014,8 hPa 0,0 l/m² 9,7 km/h (2 Bft) NW 315 ° 1 min 693 W/m² 17,6 °C 26,3 °C 12,9 km/h (3 Bft)
16.08.2026 15:24 24,0 °C 26,8 °C 58 % 57 % 1014,7 hPa 0,0 l/m² 6,4 km/h (2 Bft) NW 315 ° 1 min 680 W/m² 17,6 °C 26,8 °C 11,3 km/h (2 Bft)
16.08.2026 15:25 24,0 °C 26,7 °C 58 % 57 % 1014,7 hPa 0,0 l/m² 6,4 km/h (2 Bft) W-NW 292 ° 1 min 673 W/m² 17,5 °C 26,7 °C 8,0 km/h (2 Bft)
16.08.2026 15:26 24,0 °C 26,7 °C 58 % 58 % 1014,7 hPa 0,0 l/m² 3,2 km/h (1 Bft) W 270 ° 1 min 663 W/m² 17,7 °C 26,7 °C 6,4 km/h (2 Bft)
16.08.2026 15:27 24,0 °C 26,7 °C 58 % 58 % 1014,7 hPa 0,0 l/m² 6,4 km/h (2 Bft) W-NW 292 ° 1 min 671 W/m² 17,7 °C 26,7 °C 12,9 km/h (3 Bft)
16.08.2026 15:28 24,0 °C 26,8 °C 58 % 58 % 1014,7 hPa 0,0 l/m² 4,8 km/h (1 Bft) W-NW 292 ° 1 min 689 W/m² 17,8 °C 26,8 °C 6,4 km/h (2 Bft)
16.08.2026 15:29 24,0 °C 26,8 °C 59 % 58 % 1014,6 hPa 0,0 l/m² 3,2 km/h (1 Bft) W 270 ° 1 min 661 W/m² 17,8 °C 26,8 °C 6,4 km/h (2 Bft)
16.08.2026 15:30 24,1 °C 26,9 °C 59 % 57 % 1014,6 hPa 0,0 l/m² 3,2 km/h (1 Bft) S-SW 202 ° 1 min 654 W/m² 17,6 °C 26,9 °C 4,8 km/h (1 Bft)
16.08.2026 15:31 24,0 °C 27,1 °C 59 % 57 % 1014,6 hPa 0,0 l/m² 4,8 km/h (1 Bft) S-SO 157 ° 1 min 654 W/m² 17,8 °C 27,1 °C 8,0 km/h (2 Bft)
16.08.2026 15:32 24,1 °C 27,3 °C 59 % 57 % 1014,6 hPa 0,0 l/m² 4,8 km/h (1 Bft) S-SO 157 ° 1 min 663 W/m² 18,0 °C 27,3 °C 9,7 km/h (2 Bft)
16.08.2026 15:33 24,1 °C 27,5 °C 59 % 56 % 1014,6 hPa 0,0 l/m² 8,0 km/h (2 Bft) SW 225 ° 1 min 670 W/m² 17,9 °C 27,2 °C 11,3 km/h (2 Bft)
16.08.2026 15:34 24,1 °C 27,6 °C 59 % 56 % 1014,5 hPa 0,0 l/m² 8,0 km/h (2 Bft) W-SW 247 ° 1 min 652 W/m² 18,0 °C 27,3 °C 12,9 km/h (3 Bft)
16.08.2026 15:35 24,1 °C 27,6 °C 59 % 55 % 1014,6 hPa 0,0 l/m² 6,4 km/h (2 Bft) SW 225 ° 1 min 313 W/m² 17,7 °C 27,6 °C 9,7 km/h (2 Bft)
16.08.2026 15:36 24,1 °C 27,3 °C 59 % 55 % 1014,7 hPa 0,0 l/m² 4,8 km/h (1 Bft) S-SW 202 ° 1 min 313 W/m² 17,4 °C 27,3 °C 6,4 km/h (2 Bft)
16.08.2026 15:37 24,1 °C 27,2 °C 59 % 57 % 1014,6 hPa 0,0 l/m² 6,4 km/h (2 Bft) W 270 ° 1 min 313 W/m² 17,9 °C 27,2 °C 9,7 km/h (2 Bft)
16.08.2026 15:38 24,1 °C 27,2 °C 59 % 56 % 1014,6 hPa 0,0 l/m² 6,4 km/h (2 Bft) W-SW 247 ° 1 min 654 W/m² 17,6 °C 27,2 °C 11,3 km/h (2 Bft)
16.08.2026 15:39 24,1 °C 27,2 °C 59 % 56 % 1014,6 hPa 0,0 l/m² 6,4 km/h (2 Bft) W-SW 247 ° 1 min 584 W/m² 17,6 °C 27,2 °C 8,0 km/h (2 Bft)
16.08.2026 15:40 24,1 °C 27,0 °C 59 % 56 % 1014,6 hPa 0,0 l/m² 6,4 km/h (2 Bft) W-NW 292 ° 1 min 584 W/m² 17,5 °C 27,0 °C 9,7 km/h (2 Bft)
16.08.2026 15:41 24,1 °C 26,9 °C 59 % 57 % 1014,5 hPa 0,0 l/m² 4,8 km/h (1 Bft) W 270 ° 1 min 617 W/m² 17,6 °C 26,9 °C 6,4 km/h (2 Bft)
16.08.2026 15:42 24,1 °C 27,1 °C 59 % 58 % 1014,7 hPa 0,0 l/m² 4,8 km/h (1 Bft) W-SW 247 ° 1 min 568 W/m² 18,1 °C 27,1 °C 6,4 km/h (2 Bft)
16.08.2026 15:43 24,1 °C 27,3 °C 59 % 56 % 1014,6 hPa 0,0 l/m² 3,2 km/h (1 Bft) S-SW 202 ° 1 min 661 W/m² 17,7 °C 27,3 °C 6,4 km/h (2 Bft)
16.08.2026 15:44 24,1 °C 27,6 °C 59 % 55 % 1014,5 hPa 0,0 l/m² 4,8 km/h (1 Bft) S-SW 202 ° 1 min 663 W/m² 17,7 °C 27,6 °C 6,4 km/h (2 Bft)
16.08.2026 15:45 24,2 °C 27,6 °C 59 % 54 % 1014,6 hPa 0,0 l/m² 3,2 km/h (1 Bft) S-SW 202 ° 1 min 663 W/m² 17,4 °C 27,6 °C 6,4 km/h (2 Bft)
16.08.2026 15:46 24,2 °C 27,6 °C 59 % 56 % 1014,5 hPa 0,0 l/m² 3,2 km/h (1 Bft) S-SW 202 ° 1 min 654 W/m² 18,0 °C 27,6 °C 6,4 km/h (2 Bft)
16.08.2026 15:47 24,1 °C 27,7 °C 59 % 55 % 1014,5 hPa 0,0 l/m² 4,8 km/h (1 Bft) W 270 ° 1 min 652 W/m² 17,8 °C 27,7 °C 6,4 km/h (2 Bft)
16.08.2026 15:48 24,2 °C 27,7 °C 59 % 55 % 1014,5 hPa 0,0 l/m² 6,4 km/h (2 Bft) N-NW 337 ° 1 min 654 W/m² 17,8 °C 27,7 °C 12,9 km/h (3 Bft)
16.08.2026 15:49 24,2 °C 27,8 °C 59 % 54 % 1014,4 hPa 0,0 l/m² 4,8 km/h (1 Bft) W-NW 292 ° 1 min 657 W/m² 17,6 °C 27,8 °C 8,0 km/h (2 Bft)
16.08.2026 15:50 24,2 °C 27,8 °C 59 % 55 % 1014,6 hPa 0,0 l/m² 4,8 km/h (1 Bft) W-NW 292 ° 1 min 668 W/m² 17,9 °C 27,8 °C 6,4 km/h (2 Bft)
16.08.2026 15:51 24,2 °C 28,0 °C 59 % 56 % 1014,5 hPa 0,0 l/m² 11,3 km/h (2 Bft) N-NW 337 ° 1 min 670 W/m² 18,4 °C 27,3 °C 16,1 km/h (3 Bft)
16.08.2026 15:52 24,2 °C 27,9 °C 59 % 54 % 1014,6 hPa 0,0 l/m² 8,0 km/h (2 Bft) N-NW 337 ° 1 min 656 W/m² 17,7 °C 27,6 °C 12,9 km/h (3 Bft)
16.08.2026 15:53 24,2 °C 27,8 °C 59 % 55 % 1014,6 hPa 0,0 l/m² 8,0 km/h (2 Bft) NO 45 ° 1 min 652 W/m² 17,9 °C 27,5 °C 14,5 km/h (3 Bft)
16.08.2026 15:54 24,2 °C 27,7 °C 59 % 55 % 1014,6 hPa 0,0 l/m² 8,0 km/h (2 Bft) W-NW 292 ° 1 min 650 W/m² 17,8 °C 27,4 °C 12,9 km/h (3 Bft)
16.08.2026 15:55 24,2 °C 27,5 °C 59 % 55 % 1014,5 hPa 0,0 l/m² 4,8 km/h (1 Bft) NW 315 ° 1 min 656 W/m² 17,6 °C 27,5 °C 8,0 km/h (2 Bft)
16.08.2026 15:56 24,2 °C 27,5 °C 59 % 56 % 1014,5 hPa 0,0 l/m² 3,2 km/h (1 Bft) N-NW 337 ° 1 min 656 W/m² 17,9 °C 27,5 °C 9,7 km/h (2 Bft)
16.08.2026 15:57 24,2 °C 27,4 °C 59 % 56 % 1014,5 hPa 0,0 l/m² 3,2 km/h (1 Bft) N-NW 337 ° 1 min 615 W/m² 17,8 °C 27,4 °C 4,8 km/h (1 Bft)
16.08.2026 15:58 24,2 °C 27,5 °C 59 % 57 % 1014,5 hPa 0,0 l/m² 4,8 km/h (1 Bft) N 360 ° 1 min 202 W/m² 18,2 °C 27,5 °C 8,0 km/h (2 Bft)
16.08.2026 15:59 24,2 °C 27,6 °C 58 % 56 % 1014,5 hPa 0,0 l/m² 6,4 km/h (2 Bft) NO 45 ° 1 min 202 W/m² 18,0 °C 27,6 °C 9,7 km/h (2 Bft)
16.08.2026 16:00 24,2 °C 27,6 °C 58 % 56 % 1014,4 hPa 0,0 l/m² 8,0 km/h (2 Bft) N-NO 22 ° 1 min 202 W/m² 18,0 °C 27,3 °C 12,9 km/h (3 Bft)
16.08.2026 16:01 24,2 °C 27,4 °C 58 % 56 % 1014,4 hPa 0,0 l/m² 6,4 km/h (2 Bft) N-NO 22 ° 1 min 636 W/m² 17,8 °C 27,4 °C 8,0 km/h (2 Bft)
16.08.2026 16:02 24,2 °C 27,4 °C 58 % 56 % 1014,4 hPa 0,0 l/m² 6,4 km/h (2 Bft) N-NW 337 ° 1 min 638 W/m² 17,8 °C 27,4 °C 12,9 km/h (3 Bft)
16.08.2026 16:03 24,2 °C 27,4 °C 59 % 56 % 1014,4 hPa 0,0 l/m² 8,0 km/h (2 Bft) N-NW 337 ° 1 min 640 W/m² 17,8 °C 27,1 °C 12,9 km/h (3 Bft)
16.08.2026 16:04 24,2 °C 27,5 °C 59 % 57 % 1014,5 hPa 0,0 l/m² 8,0 km/h (2 Bft) W-NW 292 ° 1 min 635 W/m² 18,2 °C 27,2 °C 12,9 km/h (3 Bft)
16.08.2026 16:05 24,2 °C 27,6 °C 58 % 57 % 1014,5 hPa 0,0 l/m² 8,0 km/h (2 Bft) N-NW 337 ° 1 min 636 W/m² 18,3 °C 27,3 °C 12,9 km/h (3 Bft)
16.08.2026 16:06 24,2 °C 27,5 °C 58 % 55 % 1014,5 hPa 0,0 l/m² 8,0 km/h (2 Bft) N 360 ° 1 min 640 W/m² 17,6 °C 27,2 °C 12,9 km/h (3 Bft)
16.08.2026 16:07 24,2 °C 27,4 °C 58 % 56 % 1014,4 hPa 0,0 l/m² 6,4 km/h (2 Bft) N 360 ° 1 min 636 W/m² 17,8 °C 27,4 °C 9,7 km/h (2 Bft)
16.08.2026 16:08 24,2 °C 27,2 °C 58 % 56 % 1014,4 hPa 0,0 l/m² 8,0 km/h (2 Bft) N 360 ° 1 min 636 W/m² 17,6 °C 26,9 °C 14,5 km/h (3 Bft)
16.08.2026 16:09 24,2 °C 27,2 °C 58 % 56 % 1014,4 hPa 0,0 l/m² 6,4 km/h (2 Bft) NW 315 ° 1 min 624 W/m² 17,6 °C 27,2 °C 12,9 km/h (3 Bft)
16.08.2026 16:10 24,2 °C 27,2 °C 58 % 57 % 1014,5 hPa 0,0 l/m² 8,0 km/h (2 Bft) NW 315 ° 1 min 615 W/m² 17,9 °C 26,9 °C 12,9 km/h (3 Bft)
16.08.2026 16:11 24,2 °C 27,2 °C 58 % 56 % 1014,4 hPa 0,0 l/m² 6,4 km/h (2 Bft) NW 315 ° 1 min 615 W/m² 17,6 °C 27,2 °C 9,7 km/h (2 Bft)
16.08.2026 16:12 24,2 °C 27,2 °C 58 % 57 % 1014,4 hPa 0,0 l/m² 6,4 km/h (2 Bft) W 270 ° 1 min 613 W/m² 17,9 °C 27,2 °C 8,0 km/h (2 Bft)
16.08.2026 16:13 24,2 °C 27,2 °C 58 % 57 % 1014,3 hPa 0,0 l/m² 8,0 km/h (2 Bft) W 270 ° 1 min 606 W/m² 17,9 °C 26,9 °C 14,5 km/h (3 Bft)
16.08.2026 16:14 24,2 °C 27,4 °C 58 % 57 % 1014,4 hPa 0,0 l/m² 4,8 km/h (1 Bft) W 270 ° 1 min 601 W/m² 18,1 °C 27,4 °C 9,7 km/h (2 Bft)
16.08.2026 16:15 24,2 °C 27,4 °C 58 % 56 % 1014,4 hPa 0,0 l/m² 8,0 km/h (2 Bft) NW 315 ° 1 min 599 W/m² 17,8 °C 27,1 °C 9,7 km/h (2 Bft)
16.08.2026 16:16 24,2 °C 27,4 °C 58 % 56 % 1014,4 hPa 0,0 l/m² 4,8 km/h (1 Bft) W-NW 292 ° 1 min 585 W/m² 17,8 °C 27,4 °C 9,7 km/h (2 Bft)
16.08.2026 16:17 24,2 °C 27,4 °C 58 % 56 % 1014,3 hPa 0,0 l/m² 1,6 km/h (1 Bft) W-NW 292 ° 1 min 573 W/m² 17,8 °C 27,4 °C 4,8 km/h (1 Bft)
16.08.2026 16:18 24,2 °C 27,4 °C 58 % 55 % 1014,4 hPa 0,0 l/m² 1,6 km/h (1 Bft) NO 45 ° 1 min 568 W/m² 17,5 °C 27,4 °C 3,2 km/h (1 Bft)
16.08.2026 16:19 24,2 °C 27,6 °C 58 % 56 % 1014,2 hPa 0,0 l/m² 3,2 km/h (1 Bft) W-SW 247 ° 1 min 566 W/m² 18,0 °C 27,6 °C 4,8 km/h (1 Bft)
16.08.2026 16:20 24,2 °C 27,7 °C 58 % 57 % 1014,3 hPa 0,0 l/m² 4,8 km/h (1 Bft) O 90 ° 1 min 571 W/m² 18,4 °C 27,7 °C 9,7 km/h (2 Bft)
16.08.2026 16:21 24,2 °C 27,7 °C 58 % 55 % 1014,2 hPa 0,0 l/m² 3,2 km/h (1 Bft) O 90 ° 1 min 582 W/m² 17,8 °C 27,7 °C 6,4 km/h (2 Bft)
16.08.2026 16:22 24,2 °C 27,7 °C 58 % 55 % 1014,3 hPa 0,0 l/m² 1,6 km/h (1 Bft) O 90 ° 1 min 571 W/m² 17,8 °C 27,7 °C 9,7 km/h (2 Bft)
16.08.2026 16:23 24,2 °C 27,6 °C 58 % 56 % 1014,4 hPa 0,0 l/m² 9,7 km/h (2 Bft) N-NW 337 ° 1 min 575 W/m² 18,0 °C 27,1 °C 14,5 km/h (3 Bft)
16.08.2026 16:24 24,3 °C 27,4 °C 58 % 55 % 1014,4 hPa 0,0 l/m² 6,4 km/h (2 Bft) N-NW 337 ° 1 min 573 W/m² 17,5 °C 27,4 °C 12,9 km/h (3 Bft)
16.08.2026 16:25 24,2 °C 27,3 °C 58 % 56 % 1014,3 hPa 0,0 l/m² 4,8 km/h (1 Bft) W 270 ° 1 min 573 W/m² 17,7 °C 27,3 °C 8,0 km/h (2 Bft)
16.08.2026 16:26 24,2 °C 27,2 °C 58 % 56 % 1014,3 hPa 0,0 l/m² 4,8 km/h (1 Bft) W 270 ° 1 min 392 W/m² 17,6 °C 27,2 °C 6,4 km/h (2 Bft)
16.08.2026 16:27 24,2 °C 27,2 °C 58 % 57 % 1014,4 hPa 0,0 l/m² 6,4 km/h (2 Bft) N-NW 337 ° 1 min 292 W/m² 17,9 °C 27,2 °C 9,7 km/h (2 Bft)
16.08.2026 16:28 24,2 °C 27,2 °C 58 % 56 % 1014,4 hPa 0,0 l/m² 3,2 km/h (1 Bft) N 360 ° 1 min 283 W/m² 17,6 °C 27,2 °C 6,4 km/h (2 Bft)
16.08.2026 16:29 24,2 °C 27,0 °C 58 % 56 % 1014,3 hPa 0,0 l/m² 3,2 km/h (1 Bft) O-NO 67 ° 1 min 575 W/m² 17,5 °C 27,0 °C 4,8 km/h (1 Bft)
16.08.2026 16:30 24,2 °C 27,1 °C 58 % 57 % 1014,3 hPa 0,0 l/m² 4,8 km/h (1 Bft) O-NO 67 ° 1 min 570 W/m² 17,8 °C 27,1 °C 6,4 km/h (2 Bft)
16.08.2026 16:31 24,2 °C 27,1 °C 58 % 57 % 1014,4 hPa 0,0 l/m² 1,6 km/h (1 Bft) O-NO 67 ° 1 min 570 W/m² 17,8 °C 27,1 °C 3,2 km/h (1 Bft)
16.08.2026 16:32 24,2 °C 27,3 °C 58 % 56 % 1014,3 hPa 0,0 l/m² 6,4 km/h (2 Bft) O 90 ° 1 min 555 W/m² 17,7 °C 27,3 °C 11,3 km/h (2 Bft)
16.08.2026 16:33 24,2 °C 27,4 °C 58 % 57 % 1014,3 hPa 0,0 l/m² 4,8 km/h (1 Bft) NO 45 ° 1 min 545 W/m² 18,1 °C 27,4 °C 8,0 km/h (2 Bft)
16.08.2026 16:34 24,2 °C 27,6 °C 58 % 56 % 1014,3 hPa 0,0 l/m² 3,2 km/h (1 Bft) NO 45 ° 1 min 531 W/m² 18,0 °C 27,6 °C 4,8 km/h (1 Bft)
16.08.2026 16:35 24,2 °C 27,7 °C 58 % 56 % 1014,3 hPa 0,0 l/m² 1,6 km/h (1 Bft) NO 45 ° 1 min 519 W/m² 18,1 °C 27,7 °C 4,8 km/h (1 Bft)
16.08.2026 16:36 24,2 °C 27,7 °C 58 % 55 % 1014,2 hPa 0,0 l/m² 4,8 km/h (1 Bft) N-NW 337 ° 1 min 504 W/m² 17,8 °C 27,7 °C 6,4 km/h (2 Bft)
16.08.2026 16:37 24,2 °C 27,5 °C 58 % 55 % 1014,3 hPa 0,0 l/m² 0,0 km/h (0 Bft) N-NW 337 ° 1 min 517 W/m² 17,6 °C 27,5 °C 1,6 km/h (1 Bft)
16.08.2026 16:38 24,2 °C 27,4 °C 58 % 56 % 1014,3 hPa 0,0 l/m² 3,2 km/h (1 Bft) N-NW 337 ° 1 min 534 W/m² 17,8 °C 27,4 °C 4,8 km/h (1 Bft)
16.08.2026 16:39 24,2 °C 27,4 °C 58 % 56 % 1014,2 hPa 0,0 l/m² 9,7 km/h (2 Bft) N-NW 337 ° 1 min 534 W/m² 17,8 °C 26,9 °C 14,5 km/h (3 Bft)
16.08.2026 16:40 24,2 °C 27,3 °C 58 % 56 % 1014,2 hPa 0,0 l/m² 6,4 km/h (2 Bft) NW 315 ° 1 min 534 W/m² 17,7 °C 27,3 °C 9,7 km/h (2 Bft)
16.08.2026 16:41 24,2 °C 27,3 °C 58 % 56 % 1014,3 hPa 0,0 l/m² 9,7 km/h (2 Bft) W-NW 292 ° 1 min 466 W/m² 17,7 °C 26,7 °C 12,9 km/h (3 Bft)
16.08.2026 16:42 24,2 °C 27,2 °C 58 % 56 % 1014,2 hPa 0,0 l/m² 8,0 km/h (2 Bft) NW 315 ° 1 min 466 W/m² 17,6 °C 26,9 °C 11,3 km/h (2 Bft)
16.08.2026 16:43 24,2 °C 27,1 °C 58 % 56 % 1014,2 hPa 0,0 l/m² 6,4 km/h (2 Bft) N 360 ° 1 min 250 W/m² 17,5 °C 27,1 °C 9,7 km/h (2 Bft)
16.08.2026 16:44 24,2 °C 27,1 °C 58 % 56 % 1014,3 hPa 0,0 l/m² 9,7 km/h (2 Bft) N 360 ° 1 min 193 W/m² 17,5 °C 26,5 °C 14,5 km/h (3 Bft)
16.08.2026 16:45 24,2 °C 27,0 °C 58 % 56 % 1014,1 hPa 0,0 l/m² 8,0 km/h (2 Bft) N-NW 337 ° 1 min 200 W/m² 17,5 °C 26,7 °C 12,9 km/h (3 Bft)
16.08.2026 16:46 24,2 °C 27,0 °C 58 % 57 % 1014,2 hPa 0,0 l/m² 6,4 km/h (2 Bft) NW 315 ° 1 min 220 W/m² 17,7 °C 27,0 °C 9,7 km/h (2 Bft)
16.08.2026 16:47 24,2 °C 26,9 °C 58 % 57 % 1014,2 hPa 0,0 l/m² 8,0 km/h (2 Bft) N-NW 337 ° 1 min 188 W/m² 17,6 °C 26,6 °C 12,9 km/h (3 Bft)
16.08.2026 16:48 24,2 °C 26,8 °C 58 % 56 % 1014,2 hPa 0,0 l/m² 3,2 km/h (1 Bft) N 360 ° 1 min 188 W/m² 17,3 °C 26,8 °C 4,8 km/h (1 Bft)
16.08.2026 16:49 24,2 °C 26,7 °C 58 % 57 % 1014,2 hPa 0,0 l/m² 4,8 km/h (1 Bft) N 360 ° 1 min 188 W/m² 17,5 °C 26,7 °C 8,0 km/h (2 Bft)
16.08.2026 16:50 24,2 °C 26,8 °C 58 % 58 % 1014,1 hPa 0,0 l/m² 6,4 km/h (2 Bft) N 360 ° 1 min 320 W/m² 17,8 °C 26,8 °C 9,7 km/h (2 Bft)
16.08.2026 16:51 24,2 °C 26,8 °C 58 % 57 % 1014,1 hPa 0,0 l/m² 8,0 km/h (2 Bft) N-NW 337 ° 1 min 320 W/m² 17,6 °C 26,5 °C 12,9 km/h (3 Bft)
16.08.2026 16:52 24,2 °C 26,8 °C 58 % 57 % 1014,2 hPa 0,0 l/m² 6,4 km/h (2 Bft) NW 315 ° 1 min 387 W/m² 17,6 °C 26,8 °C 8,0 km/h (2 Bft)
16.08.2026 16:53 24,2 °C 26,7 °C 58 % 57 % 1014,2 hPa 0,0 l/m² 4,8 km/h (1 Bft) NW 315 ° 1 min 443 W/m² 17,5 °C 26,7 °C 8,0 km/h (2 Bft)
16.08.2026 16:54 24,2 °C 26,8 °C 58 % 57 % 1014,2 hPa 0,0 l/m² 3,2 km/h (1 Bft) NW 315 ° 1 min 462 W/m² 17,6 °C 26,8 °C 6,4 km/h (2 Bft)
16.08.2026 16:55 24,2 °C 26,8 °C 58 % 57 % 1014,1 hPa 0,0 l/m² 4,8 km/h (1 Bft) N-NO 22 ° 1 min 455 W/m² 17,6 °C 26,8 °C 8,0 km/h (2 Bft)
16.08.2026 16:56 24,2 °C 26,8 °C 58 % 57 % 1014,0 hPa 0,0 l/m² 4,8 km/h (1 Bft) N 360 ° 1 min 450 W/m² 17,6 °C 26,8 °C 8,0 km/h (2 Bft)
16.08.2026 16:57 24,2 °C 26,9 °C 58 % 58 % 1014,1 hPa 0,0 l/m² 9,7 km/h (2 Bft) N 360 ° 1 min 429 W/m² 17,9 °C 26,3 °C 12,9 km/h (3 Bft)
16.08.2026 16:58 24,2 °C 26,9 °C 58 % 57 % 1014,1 hPa 0,0 l/m² 4,8 km/h (1 Bft) NW 315 ° 1 min 425 W/m² 17,6 °C 26,9 °C 8,0 km/h (2 Bft)
16.08.2026 16:59 24,2 °C 26,9 °C 58 % 58 % 1014,0 hPa 0,0 l/m² 3,2 km/h (1 Bft) N-NO 22 ° 1 min 431 W/m² 17,9 °C 26,9 °C 6,4 km/h (2 Bft)
16.08.2026 17:00 24,2 °C 26,9 °C 58 % 57 % 1014,1 hPa 0,0 l/m² 6,4 km/h (2 Bft) N-NW 337 ° 1 min 338 W/m² 17,6 °C 26,9 °C 12,9 km/h (3 Bft)
16.08.2026 17:01 24,2 °C 26,9 °C 58 % 57 % 1014,1 hPa 0,0 l/m² 8,0 km/h (2 Bft) N-NW 337 ° 1 min 338 W/m² 17,6 °C 26,6 °C 12,9 km/h (3 Bft)
16.08.2026 17:02 24,2 °C 26,8 °C 58 % 57 % 1014,1 hPa 0,0 l/m² 6,4 km/h (2 Bft) N-NW 337 ° 1 min 165 W/m² 17,6 °C 26,8 °C 9,7 km/h (2 Bft)
16.08.2026 17:03 24,2 °C 26,7 °C 58 % 57 % 1014,1 hPa 0,0 l/m² 4,8 km/h (1 Bft) N 360 ° 1 min 165 W/m² 17,5 °C 26,7 °C 8,0 km/h (2 Bft)
16.08.2026 17:04 24,2 °C 26,7 °C 58 % 57 % 1014,1 hPa 0,0 l/m² 4,8 km/h (1 Bft) N-NW 337 ° 1 min 165 W/m² 17,5 °C 26,7 °C 6,4 km/h (2 Bft)
16.08.2026 17:05 24,2 °C 26,7 °C 58 % 58 % 1014,0 hPa 0,0 l/m² 4,8 km/h (1 Bft) N-NO 22 ° 1 min 174 W/m² 17,7 °C 26,7 °C 8,0 km/h (2 Bft)
16.08.2026 17:06 24,2 °C 26,7 °C 58 % 58 % 1014,0 hPa 0,0 l/m² 3,2 km/h (1 Bft) NO 45 ° 1 min 181 W/m² 17,7 °C 26,7 °C 4,8 km/h (1 Bft)
16.08.2026 17:07 24,2 °C 26,6 °C 58 % 57 % 1013,9 hPa 0,0 l/m² 3,2 km/h (1 Bft) N-NW 337 ° 1 min 181 W/m² 17,4 °C 26,6 °C 8,0 km/h (2 Bft)
16.08.2026 17:08 24,2 °C 26,6 °C 58 % 57 % 1014,0 hPa 0,0 l/m² 0,0 km/h (0 Bft) NW 315 ° 1 min 167 W/m² 17,4 °C 26,6 °C 1,6 km/h (1 Bft)
16.08.2026 17:09 24,2 °C 26,7 °C 58 % 58 % 1013,9 hPa 0,0 l/m² 3,2 km/h (1 Bft) NO 45 ° 1 min 199 W/m² 17,7 °C 26,7 °C 8,0 km/h (2 Bft)
16.08.2026 17:10 24,2 °C 26,7 °C 58 % 59 % 1014,0 hPa 0,0 l/m² 6,4 km/h (2 Bft) O-NO 67 ° 1 min 179 W/m² 18,0 °C 26,7 °C 9,7 km/h (2 Bft)
16.08.2026 17:11 24,2 °C 26,9 °C 58 % 58 % 1013,9 hPa 0,0 l/m² 6,4 km/h (2 Bft) O 90 ° 1 min 213 W/m² 17,9 °C 26,9 °C 9,7 km/h (2 Bft)
16.08.2026 17:12 24,2 °C 26,9 °C 58 % 57 % 1014,0 hPa 0,0 l/m² 6,4 km/h (2 Bft) O 90 ° 1 min 163 W/m² 17,6 °C 26,9 °C 8,0 km/h (2 Bft)
16.08.2026 17:13 24,2 °C 27,1 °C 58 % 57 % 1013,9 hPa 0,0 l/m² 4,8 km/h (1 Bft) S-SO 157 ° 1 min 134 W/m² 17,8 °C 27,1 °C 6,4 km/h (2 Bft)
16.08.2026 17:14 24,2 °C 27,3 °C 58 % 56 % 1013,9 hPa 0,0 l/m² 1,6 km/h (1 Bft) S-SO 157 ° 1 min 134 W/m² 17,7 °C 27,3 °C 3,2 km/h (1 Bft)
16.08.2026 17:15 24,2 °C 27,3 °C 58 % 56 % 1013,9 hPa 0,0 l/m² 1,6 km/h (1 Bft) S-SO 157 ° 1 min 232 W/m² 17,7 °C 27,3 °C 4,8 km/h (1 Bft)
16.08.2026 17:16 24,2 °C 27,3 °C 58 % 56 % 1014,0 hPa 0,0 l/m² 1,6 km/h (1 Bft) S-SO 157 ° 1 min 183 W/m² 17,7 °C 27,3 °C 3,2 km/h (1 Bft)
16.08.2026 17:17 24,2 °C 27,4 °C 58 % 57 % 1013,9 hPa 0,0 l/m² 1,6 km/h (1 Bft) O-SO 112 ° 1 min 181 W/m² 18,1 °C 27,4 °C 3,2 km/h (1 Bft)
16.08.2026 17:18 24,2 °C 27,4 °C 58 % 57 % 1013,9 hPa 0,0 l/m² 6,4 km/h (2 Bft) O-SO 112 ° 1 min 128 W/m² 18,1 °C 27,4 °C 11,3 km/h (2 Bft)
16.08.2026 17:19 24,2 °C 27,3 °C 58 % 57 % 1013,9 hPa 0,0 l/m² 11,3 km/h (2 Bft) NO 45 ° 1 min 137 W/m² 18,0 °C 26,5 °C 16,1 km/h (3 Bft)
16.08.2026 17:20 24,2 °C 27,2 °C 58 % 56 % 1013,9 hPa 0,0 l/m² 9,7 km/h (2 Bft) NO 45 ° 1 min 202 W/m² 17,6 °C 26,6 °C 14,5 km/h (3 Bft)
16.08.2026 17:21 24,2 °C 27,1 °C 58 % 56 % 1013,9 hPa 0,0 l/m² 6,4 km/h (2 Bft) N-NW 337 ° 1 min 144 W/m² 17,5 °C 27,1 °C 11,3 km/h (2 Bft)
16.08.2026 17:22 24,2 °C 26,9 °C 58 % 56 % 1013,8 hPa 0,0 l/m² 1,6 km/h (1 Bft) W-NW 292 ° 1 min 176 W/m² 17,4 °C 26,9 °C 3,2 km/h (1 Bft)
16.08.2026 17:23 24,2 °C 26,9 °C 58 % 57 % 1013,7 hPa 0,0 l/m² 1,6 km/h (1 Bft) W-NW 292 ° 1 min 139 W/m² 17,6 °C 26,9 °C 3,2 km/h (1 Bft)
16.08.2026 17:24 24,2 °C 26,9 °C 58 % 57 % 1013,9 hPa 0,0 l/m² 3,2 km/h (1 Bft) NO 45 ° 1 min 123 W/m² 17,6 °C 26,9 °C 4,8 km/h (1 Bft)
16.08.2026 17:25 24,2 °C 26,9 °C 58 % 57 % 1014,0 hPa 0,0 l/m² 8,0 km/h (2 Bft) N 360 ° 1 min 132 W/m² 17,6 °C 26,6 °C 14,5 km/h (3 Bft)
16.08.2026 17:26 24,2 °C 26,9 °C 58 % 57 % 1013,9 hPa 0,0 l/m² 8,0 km/h (2 Bft) N-NW 337 ° 1 min 193 W/m² 17,6 °C 26,6 °C 16,1 km/h (3 Bft)
16.08.2026 17:27 24,2 °C 26,9 °C 58 % 57 % 1013,9 hPa 0,0 l/m² 6,4 km/h (2 Bft) N 360 ° 1 min 148 W/m² 17,6 °C 26,9 °C 11,3 km/h (2 Bft)
16.08.2026 17:28 24,2 °C 26,9 °C 58 % 57 % 1013,9 hPa 0,0 l/m² 8,0 km/h (2 Bft) N 360 ° 1 min 127 W/m² 17,6 °C 26,6 °C 12,9 km/h (3 Bft)
16.08.2026 17:29 24,2 °C 26,8 °C 58 % 56 % 1013,9 hPa 0,0 l/m² 8,0 km/h (2 Bft) N 360 ° 1 min 127 W/m² 17,3 °C 26,5 °C 11,3 km/h (2 Bft)
16.08.2026 17:30 24,2 °C 26,8 °C 58 % 56 % 1013,9 hPa 0,0 l/m² 4,8 km/h (1 Bft) N-NW 337 ° 1 min 209 W/m² 17,3 °C 26,8 °C 8,0 km/h (2 Bft)
16.08.2026 17:31 24,2 °C 26,7 °C 58 % 57 % 1013,9 hPa 0,0 l/m² 1,6 km/h (1 Bft) N 360 ° 1 min 220 W/m² 17,5 °C 26,7 °C 4,8 km/h (1 Bft)
16.08.2026 17:32 24,2 °C 26,8 °C 58 % 57 % 1013,8 hPa 0,0 l/m² 8,0 km/h (2 Bft) N 360 ° 1 min 169 W/m² 17,6 °C 26,5 °C 14,5 km/h (3 Bft)
16.08.2026 17:33 24,2 °C 26,9 °C 58 % 57 % 1013,9 hPa 0,0 l/m² 11,3 km/h (2 Bft) N 360 ° 1 min 167 W/m² 17,6 °C 26,1 °C 14,5 km/h (3 Bft)
16.08.2026 17:34 24,2 °C 26,9 °C 58 % 57 % 1013,8 hPa 0,0 l/m² 6,4 km/h (2 Bft) N-NO 22 ° 1 min 105 W/m² 17,6 °C 26,9 °C 12,9 km/h (3 Bft)
16.08.2026 17:35 24,2 °C 26,8 °C 58 % 56 % 1013,9 hPa 0,0 l/m² 6,4 km/h (2 Bft) N-NW 337 ° 1 min 100 W/m² 17,3 °C 26,8 °C 9,7 km/h (2 Bft)
16.08.2026 17:36 24,2 °C 26,7 °C 58 % 57 % 1013,9 hPa 0,0 l/m² 3,2 km/h (1 Bft) NW 315 ° 1 min 98 W/m² 17,5 °C 26,7 °C 6,4 km/h (2 Bft)
16.08.2026 17:37 24,2 °C 26,5 °C 58 % 57 % 1013,8 hPa 0,0 l/m² 1,6 km/h (1 Bft) N-NW 337 ° 1 min 137 W/m² 17,3 °C 26,5 °C 3,2 km/h (1 Bft)
16.08.2026 17:38 24,2 °C 26,4 °C 58 % 57 % 1013,8 hPa 0,0 l/m² 3,2 km/h (1 Bft) N 360 ° 1 min 109 W/m² 17,2 °C 26,4 °C 4,8 km/h (1 Bft)
16.08.2026 17:39 24,2 °C 26,4 °C 58 % 57 % 1013,7 hPa 0,0 l/m² 4,8 km/h (1 Bft) N-NO 22 ° 1 min 181 W/m² 17,2 °C 26,4 °C 9,7 km/h (2 Bft)
16.08.2026 17:40 24,2 °C 26,4 °C 58 % 58 % 1013,8 hPa 0,0 l/m² 6,4 km/h (2 Bft) N 360 ° 1 min 135 W/m² 17,5 °C 26,4 °C 8,0 km/h (2 Bft)
16.08.2026 17:41 24,2 °C 26,5 °C 58 % 58 % 1013,8 hPa 0,0 l/m² 6,4 km/h (2 Bft) N-NO 22 ° 1 min 127 W/m² 17,5 °C 26,5 °C 8,0 km/h (2 Bft)
16.08.2026 17:42 24,2 °C 26,5 °C 58 % 57 % 1013,8 hPa 0,0 l/m² 4,8 km/h (1 Bft) N 360 ° 1 min 121 W/m² 17,3 °C 26,5 °C 8,0 km/h (2 Bft)
16.08.2026 17:43 24,2 °C 26,4 °C 58 % 57 % 1013,7 hPa 0,0 l/m² 8,0 km/h (2 Bft) N 360 ° 1 min 174 W/m² 17,2 °C 26,1 °C 14,5 km/h (3 Bft)
16.08.2026 17:44 24,2 °C 26,5 °C 58 % 58 % 1013,7 hPa 0,0 l/m² 8,0 km/h (2 Bft) O-NO 67 ° 1 min 141 W/m² 17,5 °C 26,2 °C 14,5 km/h (3 Bft)
16.08.2026 17:45 24,2 °C 26,6 °C 58 % 58 % 1013,7 hPa 0,0 l/m² 4,8 km/h (1 Bft) N-NO 22 ° 1 min 105 W/m² 17,6 °C 26,6 °C 9,7 km/h (2 Bft)
16.08.2026 17:46 24,2 °C 26,7 °C 58 % 59 % 1013,7 hPa 0,0 l/m² 4,8 km/h (1 Bft) N-NO 22 ° 1 min 176 W/m² 18,0 °C 26,7 °C 12,9 km/h (3 Bft)
16.08.2026 17:47 24,2 °C 26,7 °C 58 % 58 % 1013,7 hPa 0,0 l/m² 8,0 km/h (2 Bft) N-NW 337 ° 1 min 149 W/m² 17,7 °C 26,4 °C 14,5 km/h (3 Bft)
16.08.2026 17:48 24,2 °C 26,8 °C 58 % 57 % 1013,7 hPa 0,0 l/m² 9,7 km/h (2 Bft) N-NO 22 ° 1 min 109 W/m² 17,6 °C 26,2 °C 16,1 km/h (3 Bft)
16.08.2026 17:49 24,2 °C 26,7 °C 58 % 57 % 1013,7 hPa 0,0 l/m² 11,3 km/h (2 Bft) N-NO 22 ° 1 min 135 W/m² 17,5 °C 25,8 °C 14,5 km/h (3 Bft)
16.08.2026 17:50 24,2 °C 26,6 °C 58 % 57 % 1013,6 hPa 0,0 l/m² 11,3 km/h (2 Bft) N 360 ° 1 min 160 W/m² 17,4 °C 25,7 °C 17,7 km/h (3 Bft)
16.08.2026 17:51 24,2 °C 26,6 °C 58 % 58 % 1013,6 hPa 0,0 l/m² 9,7 km/h (2 Bft) N 360 ° 1 min 98 W/m² 17,6 °C 26,0 °C 14,5 km/h (3 Bft)
16.08.2026 17:52 24,2 °C 26,6 °C 58 % 58 % 1013,7 hPa 0,0 l/m² 8,0 km/h (2 Bft) N 360 ° 1 min 98 W/m² 17,6 °C 26,3 °C 12,9 km/h (3 Bft)
16.08.2026 17:53 24,2 °C 26,6 °C 58 % 58 % 1013,6 hPa 0,0 l/m² 4,8 km/h (1 Bft) N 360 ° 1 min 139 W/m² 17,6 °C 26,6 °C 8,0 km/h (2 Bft)
16.08.2026 17:54 24,2 °C 26,6 °C 58 % 58 % 1013,5 hPa 0,0 l/m² 6,4 km/h (2 Bft) N-NO 22 ° 1 min 156 W/m² 17,6 °C 26,6 °C 12,9 km/h (3 Bft)
16.08.2026 17:55 24,2 °C 26,6 °C 58 % 58 % 1013,5 hPa 0,0 l/m² 9,7 km/h (2 Bft) N-NO 22 ° 1 min 172 W/m² 17,6 °C 26,0 °C 12,9 km/h (3 Bft)
16.08.2026 17:56 24,2 °C 26,5 °C 58 % 58 % 1013,5 hPa 0,0 l/m² 11,3 km/h (2 Bft) NO 45 ° 1 min 107 W/m² 17,5 °C 25,6 °C 16,1 km/h (3 Bft)
16.08.2026 17:57 24,2 °C 26,6 °C 58 % 58 % 1013,5 hPa 0,0 l/m² 8,0 km/h (2 Bft) N-NO 22 ° 1 min 107 W/m² 17,6 °C 26,3 °C 14,5 km/h (3 Bft)
16.08.2026 17:58 24,2 °C 26,6 °C 58 % 58 % 1013,5 hPa 0,0 l/m² 8,0 km/h (2 Bft) N 360 ° 1 min 91 W/m² 17,6 °C 26,3 °C 14,5 km/h (3 Bft)
16.08.2026 17:59 24,2 °C 26,6 °C 58 % 57 % 1013,5 hPa 0,0 l/m² 8,0 km/h (2 Bft) NO 45 ° 1 min 90 W/m² 17,4 °C 26,3 °C 12,9 km/h (3 Bft)
16.08.2026 18:00 24,2 °C 26,5 °C 58 % 57 % 1013,5 hPa 0,0 l/m² 6,4 km/h (2 Bft) N 360 ° 1 min 90 W/m² 17,3 °C 26,5 °C 9,7 km/h (2 Bft)
16.08.2026 18:01 24,2 °C 26,4 °C 58 % 58 % 1013,5 hPa 0,0 l/m² 8,0 km/h (2 Bft) NO 45 ° 1 min 88 W/m² 17,5 °C 26,1 °C 14,5 km/h (3 Bft)
16.08.2026 18:02 24,2 °C 26,3 °C 58 % 58 % 1013,4 hPa 0,0 l/m² 8,0 km/h (2 Bft) N-NO 22 ° 1 min 88 W/m² 17,4 °C 26,0 °C 12,9 km/h (3 Bft)
16.08.2026 18:03 24,2 °C 26,3 °C 58 % 58 % 1013,4 hPa 0,0 l/m² 8,0 km/h (2 Bft) N-NO 22 ° 1 min 128 W/m² 17,4 °C 26,0 °C 11,3 km/h (2 Bft)
16.08.2026 18:04 24,2 °C 26,4 °C 58 % 58 % 1013,4 hPa 0,0 l/m² 6,4 km/h (2 Bft) N-NO 22 ° 1 min 91 W/m² 17,5 °C 26,4 °C 11,3 km/h (2 Bft)
16.08.2026 18:05 24,2 °C 26,4 °C 58 % 58 % 1013,4 hPa 0,0 l/m² 9,7 km/h (2 Bft) N 360 ° 1 min 84 W/m² 17,5 °C 25,8 °C 14,5 km/h (3 Bft)
16.08.2026 18:06 24,2 °C 26,3 °C 58 % 58 % 1013,4 hPa 0,0 l/m² 8,0 km/h (2 Bft) N 360 ° 1 min 81 W/m² 17,4 °C 26,0 °C 14,5 km/h (3 Bft)
16.08.2026 18:07 24,2 °C 26,4 °C 58 % 58 % 1013,4 hPa 0,0 l/m² 9,7 km/h (2 Bft) N-NO 22 ° 1 min 76 W/m² 17,5 °C 25,8 °C 14,5 km/h (3 Bft)
16.08.2026 18:08 24,2 °C 26,3 °C 58 % 58 % 1013,5 hPa 0,0 l/m² 4,8 km/h (1 Bft) O-NO 67 ° 1 min 72 W/m² 17,4 °C 26,3 °C 11,3 km/h (2 Bft)
16.08.2026 18:09 24,2 °C 26,3 °C 58 % 58 % 1013,4 hPa 0,0 l/m² 4,8 km/h (1 Bft) O-NO 67 ° 1 min 69 W/m² 17,4 °C 26,3 °C 9,7 km/h (2 Bft)
16.08.2026 18:10 24,2 °C 26,3 °C 58 % 58 % 1013,4 hPa 0,0 l/m² 8,0 km/h (2 Bft) N-NO 22 ° 1 min 65 W/m² 17,4 °C 26,0 °C 11,3 km/h (2 Bft)
16.08.2026 18:11 24,2 °C 26,2 °C 58 % 59 % 1013,5 hPa 0,0 l/m² 3,2 km/h (1 Bft) O-NO 67 ° 1 min 62 W/m² 17,5 °C 26,2 °C 6,4 km/h (2 Bft)
16.08.2026 18:12 24,2 °C 26,2 °C 58 % 59 % 1013,5 hPa 0,0 l/m² 4,8 km/h (1 Bft) N 360 ° 1 min 63 W/m² 17,5 °C 26,2 °C 9,7 km/h (2 Bft)
16.08.2026 18:13 24,2 °C 26,2 °C 58 % 59 % 1013,6 hPa 0,0 l/m² 6,4 km/h (2 Bft) N-NW 337 ° 1 min 62 W/m² 17,5 °C 26,2 °C 8,0 km/h (2 Bft)
16.08.2026 18:14 24,2 °C 26,2 °C 58 % 59 % 1013,5 hPa 0,0 l/m² 3,2 km/h (1 Bft) NW 315 ° 1 min 63 W/m² 17,5 °C 26,2 °C 6,4 km/h (2 Bft)
16.08.2026 18:15 24,2 °C 26,2 °C 58 % 59 % 1013,5 hPa 0,0 l/m² 6,4 km/h (2 Bft) NW 315 ° 1 min 65 W/m² 17,5 °C 26,2 °C 12,9 km/h (3 Bft)
16.08.2026 18:16 24,2 °C 26,2 °C 58 % 59 % 1013,6 hPa 0,0 l/m² 9,7 km/h (2 Bft) N-NO 22 ° 1 min 62 W/m² 17,5 °C 25,5 °C 14,5 km/h (3 Bft)
16.08.2026 18:17 24,1 °C 26,1 °C 58 % 59 % 1013,6 hPa 0,0 l/m² 9,7 km/h (2 Bft) N-NO 22 ° 1 min 62 W/m² 17,4 °C 25,4 °C 14,5 km/h (3 Bft)
16.08.2026 18:18 24,1 °C 26,1 °C 58 % 59 % 1013,5 hPa 0,0 l/m² 6,4 km/h (2 Bft) N 360 ° 1 min 58 W/m² 17,4 °C 26,1 °C 12,9 km/h (3 Bft)
16.08.2026 18:19 24,1 °C 26,0 °C 58 % 59 % 1013,5 hPa 0,0 l/m² 8,0 km/h (2 Bft) N 360 ° 1 min 54 W/m² 17,4 °C 25,7 °C 11,3 km/h (2 Bft)
16.08.2026 18:20 24,2 °C 25,9 °C 58 % 59 % 1013,5 hPa 0,0 l/m² 8,0 km/h (2 Bft) N 360 ° 1 min 56 W/m² 17,3 °C 25,5 °C 14,5 km/h (3 Bft)
16.08.2026 18:21 24,1 °C 25,9 °C 58 % 59 % 1013,5 hPa 0,0 l/m² 9,7 km/h (2 Bft) N 360 ° 1 min 58 W/m² 17,3 °C 25,2 °C 16,1 km/h (3 Bft)
16.08.2026 18:22 24,1 °C 25,8 °C 58 % 59 % 1013,5 hPa 0,0 l/m² 11,3 km/h (2 Bft) N 360 ° 1 min 56 W/m² 17,2 °C 24,8 °C 14,5 km/h (3 Bft)
16.08.2026 18:23 24,1 °C 25,8 °C 58 % 59 % 1013,4 hPa 0,0 l/m² 8,0 km/h (2 Bft) N 360 ° 1 min 58 W/m² 17,2 °C 25,4 °C 12,9 km/h (3 Bft)
16.08.2026 18:24 24,1 °C 25,7 °C 58 % 59 % 1013,5 hPa 0,0 l/m² 9,7 km/h (2 Bft) N 360 ° 1 min 63 W/m² 17,1 °C 25,0 °C 12,9 km/h (3 Bft)
16.08.2026 18:25 24,1 °C 25,7 °C 58 % 59 % 1013,4 hPa 0,0 l/m² 8,0 km/h (2 Bft) N 360 ° 1 min 60 W/m² 17,1 °C 25,3 °C 12,9 km/h (3 Bft)
16.08.2026 18:26 24,1 °C 25,7 °C 58 % 59 % 1013,5 hPa 0,0 l/m² 6,4 km/h (2 Bft) NO 45 ° 1 min 60 W/m² 17,1 °C 25,7 °C 9,7 km/h (2 Bft)
16.08.2026 18:27 24,1 °C 25,7 °C 58 % 60 % 1013,4 hPa 0,0 l/m² 4,8 km/h (1 Bft) N-NO 22 ° 1 min 60 W/m² 17,3 °C 25,7 °C 6,4 km/h (2 Bft)
16.08.2026 18:28 24,1 °C 25,7 °C 58 % 60 % 1013,4 hPa 0,0 l/m² 3,2 km/h (1 Bft) N-NO 22 ° 1 min 58 W/m² 17,3 °C 25,7 °C 4,8 km/h (1 Bft)
16.08.2026 18:29 24,1 °C 25,6 °C 58 % 59 % 1013,5 hPa 0,0 l/m² 4,8 km/h (1 Bft) N-NW 337 ° 1 min 58 W/m² 17,0 °C 25,6 °C 6,4 km/h (2 Bft)
16.08.2026 18:30 24,1 °C 25,6 °C 58 % 60 % 1013,4 hPa 0,0 l/m² 4,8 km/h (1 Bft) N 360 ° 1 min 58 W/m² 17,2 °C 25,6 °C 8,0 km/h (2 Bft)
16.08.2026 18:31 24,1 °C 25,6 °C 58 % 60 % 1013,4 hPa 0,0 l/m² 6,4 km/h (2 Bft) N-NW 337 ° 1 min 60 W/m² 17,2 °C 25,6 °C 8,0 km/h (2 Bft)
16.08.2026 18:32 24,1 °C 25,6 °C 58 % 60 % 1013,4 hPa 0,0 l/m² 8,0 km/h (2 Bft) N 360 ° 1 min 60 W/m² 17,2 °C 25,2 °C 12,9 km/h (3 Bft)
16.08.2026 18:33 24,1 °C 25,6 °C 58 % 60 % 1013,4 hPa 0,0 l/m² 6,4 km/h (2 Bft) N-NW 337 ° 1 min 62 W/m² 17,2 °C 25,6 °C 9,7 km/h (2 Bft)
16.08.2026 18:34 24,1 °C 25,6 °C 58 % 60 % 1013,4 hPa 0,0 l/m² 9,7 km/h (2 Bft) N 360 ° 1 min 63 W/m² 17,2 °C 24,9 °C 12,9 km/h (3 Bft)
16.08.2026 18:35 24,1 °C 25,5 °C 58 % 60 % 1013,5 hPa 0,0 l/m² 6,4 km/h (2 Bft) N 360 ° 1 min 67 W/m² 17,2 °C 25,5 °C 8,0 km/h (2 Bft)
16.08.2026 18:36 24,1 °C 25,5 °C 58 % 60 % 1013,5 hPa 0,0 l/m² 4,8 km/h (1 Bft) N-NO 22 ° 1 min 69 W/m² 17,2 °C 25,5 °C 6,4 km/h (2 Bft)
16.08.2026 18:37 24,1 °C 25,6 °C 58 % 60 % 1013,5 hPa 0,0 l/m² 4,8 km/h (1 Bft) N 360 ° 1 min 70 W/m² 17,2 °C 25,6 °C 11,3 km/h (2 Bft)
16.08.2026 18:38 24,1 °C 25,6 °C 58 % 60 % 1013,6 hPa 0,0 l/m² 4,8 km/h (1 Bft) N-NW 337 ° 1 min 72 W/m² 17,2 °C 25,6 °C 8,0 km/h (2 Bft)
16.08.2026 18:39 24,1 °C 25,5 °C 58 % 60 % 1013,6 hPa 0,0 l/m² 8,0 km/h (2 Bft) N 360 ° 1 min 76 W/m² 17,2 °C 25,1 °C 12,9 km/h (3 Bft)
16.08.2026 18:40 24,1 °C 25,6 °C 58 % 60 % 1013,6 hPa 0,0 l/m² 3,2 km/h (1 Bft) N-NW 337 ° 1 min 77 W/m² 17,2 °C 25,6 °C 6,4 km/h (2 Bft)
16.08.2026 18:41 24,1 °C 25,5 °C 58 % 60 % 1013,6 hPa 0,0 l/m² 6,4 km/h (2 Bft) N 360 ° 1 min 86 W/m² 17,2 °C 25,5 °C 14,5 km/h (3 Bft)
16.08.2026 18:42 24,1 °C 25,5 °C 58 % 60 % 1013,6 hPa 0,0 l/m² 8,0 km/h (2 Bft) N-NW 337 ° 1 min 93 W/m² 17,2 °C 25,1 °C 9,7 km/h (2 Bft)
16.08.2026 18:43 24,1 °C 25,6 °C 58 % 60 % 1013,6 hPa 0,0 l/m² 4,8 km/h (1 Bft) N-NW 337 ° 1 min 98 W/m² 17,2 °C 25,6 °C 6,4 km/h (2 Bft)
16.08.2026 18:44 24,1 °C 25,6 °C 58 % 60 % 1013,6 hPa 0,0 l/m² 8,0 km/h (2 Bft) N-NW 337 ° 1 min 104 W/m² 17,2 °C 25,2 °C 11,3 km/h (2 Bft)
16.08.2026 18:45 24,1 °C 25,6 °C 58 % 60 % 1013,6 hPa 0,0 l/m² 8,0 km/h (2 Bft) N-NW 337 ° 1 min 107 W/m² 17,2 °C 25,2 °C 12,9 km/h (3 Bft)
16.08.2026 18:46 24,1 °C 25,6 °C 58 % 60 % 1013,6 hPa 0,0 l/m² 6,4 km/h (2 Bft) N 360 ° 1 min 113 W/m² 17,2 °C 25,6 °C 8,0 km/h (2 Bft)
16.08.2026 18:47 24,1 °C 25,6 °C 58 % 60 % 1013,6 hPa 0,0 l/m² 6,4 km/h (2 Bft) N 360 ° 1 min 114 W/m² 17,2 °C 25,6 °C 9,7 km/h (2 Bft)
16.08.2026 18:48 24,1 °C 25,7 °C 58 % 60 % 1013,6 hPa 0,0 l/m² 6,4 km/h (2 Bft) N 360 ° 1 min 116 W/m² 17,3 °C 25,7 °C 8,0 km/h (2 Bft)
16.08.2026 18:49 24,1 °C 25,7 °C 58 % 59 % 1013,6 hPa 0,0 l/m² 8,0 km/h (2 Bft) N-NO 22 ° 1 min 120 W/m² 17,1 °C 25,3 °C 12,9 km/h (3 Bft)
16.08.2026 18:50 24,1 °C 25,7 °C 58 % 59 % 1013,6 hPa 0,0 l/m² 8,0 km/h (2 Bft) N 360 ° 1 min 123 W/m² 17,1 °C 25,3 °C 14,5 km/h (3 Bft)
16.08.2026 18:51 24,1 °C 25,7 °C 58 % 59 % 1013,6 hPa 0,0 l/m² 4,8 km/h (1 Bft) N-NO 22 ° 1 min 125 W/m² 17,1 °C 25,7 °C 9,7 km/h (2 Bft)
16.08.2026 18:52 24,1 °C 25,8 °C 58 % 59 % 1013,5 hPa 0,0 l/m² 8,0 km/h (2 Bft) N 360 ° 1 min 127 W/m² 17,2 °C 25,4 °C 14,5 km/h (3 Bft)
16.08.2026 18:53 24,1 °C 25,8 °C 58 % 59 % 1013,5 hPa 0,0 l/m² 6,4 km/h (2 Bft) N 360 ° 1 min 128 W/m² 17,2 °C 25,8 °C 12,9 km/h (3 Bft)
16.08.2026 18:54 24,1 °C 25,8 °C 58 % 59 % 1013,6 hPa 0,0 l/m² 6,4 km/h (2 Bft) N-NW 337 ° 1 min 128 W/m² 17,2 °C 25,8 °C 12,9 km/h (3 Bft)
16.08.2026 18:55 24,1 °C 25,8 °C 58 % 59 % 1013,6 hPa 0,0 l/m² 6,4 km/h (2 Bft) N-NW 337 ° 1 min 128 W/m² 17,2 °C 25,8 °C 12,9 km/h (3 Bft)
16.08.2026 18:56 24,1 °C 25,8 °C 58 % 59 % 1013,5 hPa 0,0 l/m² 11,3 km/h (2 Bft) N 360 ° 1 min 127 W/m² 17,2 °C 24,8 °C 17,7 km/h (3 Bft)
16.08.2026 18:57 24,1 °C 25,8 °C 58 % 59 % 1013,6 hPa 0,0 l/m² 8,0 km/h (2 Bft) N-NW 337 ° 1 min 123 W/m² 17,2 °C 25,4 °C 9,7 km/h (2 Bft)
16.08.2026 18:58 24,1 °C 25,8 °C 58 % 60 % 1013,6 hPa 0,0 l/m² 8,0 km/h (2 Bft) N-NO 22 ° 1 min 118 W/m² 17,4 °C 25,4 °C 9,7 km/h (2 Bft)
16.08.2026 18:59 24,1 °C 25,7 °C 58 % 60 % 1013,5 hPa 0,0 l/m² 8,0 km/h (2 Bft) N 360 ° 1 min 111 W/m² 17,3 °C 25,3 °C 14,5 km/h (3 Bft)
16.08.2026 19:00 24,1 °C 25,7 °C 58 % 60 % 1013,6 hPa 0,0 l/m² 6,4 km/h (2 Bft) N 360 ° 1 min 100 W/m² 17,3 °C 25,7 °C 9,7 km/h (2 Bft)
16.08.2026 19:01 24,1 °C 25,7 °C 58 % 60 % 1013,5 hPa 0,0 l/m² 9,7 km/h (2 Bft) NO 45 ° 1 min 95 W/m² 17,3 °C 25,0 °C 16,1 km/h (3 Bft)
16.08.2026 19:02 24,1 °C 25,7 °C 58 % 60 % 1013,5 hPa 0,0 l/m² 4,8 km/h (1 Bft) N 360 ° 1 min 90 W/m² 17,3 °C 25,7 °C 9,7 km/h (2 Bft)
16.08.2026 19:03 24,1 °C 25,6 °C 58 % 60 % 1013,5 hPa 0,0 l/m² 8,0 km/h (2 Bft) N-NO 22 ° 1 min 84 W/m² 17,2 °C 25,2 °C 12,9 km/h (3 Bft)
16.08.2026 19:04 24,1 °C 25,6 °C 58 % 60 % 1013,5 hPa 0,0 l/m² 11,3 km/h (2 Bft) N-NO 22 ° 1 min 81 W/m² 17,2 °C 24,6 °C 16,1 km/h (3 Bft)
16.08.2026 19:05 24,1 °C 25,5 °C 58 % 60 % 1013,6 hPa 0,0 l/m² 4,8 km/h (1 Bft) NO 45 ° 1 min 77 W/m² 17,2 °C 25,5 °C 6,4 km/h (2 Bft)
16.08.2026 19:06 24,1 °C 25,4 °C 58 % 60 % 1013,5 hPa 0,0 l/m² 4,8 km/h (1 Bft) NO 45 ° 1 min 70 W/m² 17,1 °C 25,4 °C 8,0 km/h (2 Bft)
16.08.2026 19:07 24,1 °C 25,4 °C 59 % 60 % 1013,5 hPa 0,0 l/m² 4,8 km/h (1 Bft) N 360 ° 1 min 69 W/m² 17,1 °C 25,4 °C 8,0 km/h (2 Bft)
16.08.2026 19:08 24,1 °C 25,3 °C 58 % 60 % 1013,5 hPa 0,0 l/m² 8,0 km/h (2 Bft) N 360 ° 1 min 67 W/m² 17,0 °C 24,9 °C 14,5 km/h (3 Bft)
16.08.2026 19:09 24,1 °C 25,3 °C 58 % 60 % 1013,5 hPa 0,0 l/m² 6,4 km/h (2 Bft) N-NO 22 ° 1 min 63 W/m² 17,0 °C 25,3 °C 12,9 km/h (3 Bft)
16.08.2026 19:10 24,1 °C 25,3 °C 58 % 61 % 1013,6 hPa 0,0 l/m² 6,4 km/h (2 Bft) N 360 ° 1 min 62 W/m² 17,2 °C 25,3 °C 9,7 km/h (2 Bft)
16.08.2026 19:11 24,1 °C 25,3 °C 58 % 60 % 1013,5 hPa 0,0 l/m² 4,8 km/h (1 Bft) N-NO 22 ° 1 min 60 W/m² 17,0 °C 25,3 °C 8,0 km/h (2 Bft)
16.08.2026 19:12 24,1 °C 25,2 °C 58 % 61 % 1013,6 hPa 0,0 l/m² 4,8 km/h (1 Bft) N 360 ° 1 min 58 W/m² 17,1 °C 25,2 °C 9,7 km/h (2 Bft)
16.08.2026 19:13 24,1 °C 25,2 °C 58 % 61 % 1013,6 hPa 0,0 l/m² 6,4 km/h (2 Bft) N 360 ° 1 min 56 W/m² 17,1 °C 25,2 °C 12,9 km/h (3 Bft)
16.08.2026 19:14 24,1 °C 25,1 °C 58 % 61 % 1013,6 hPa 0,0 l/m² 4,8 km/h (1 Bft) N 360 ° 1 min 54 W/m² 17,0 °C 25,1 °C 8,0 km/h (2 Bft)
16.08.2026 19:15 24,1 °C 25,1 °C 58 % 61 % 1013,6 hPa 0,0 l/m² 11,3 km/h (2 Bft) N-NW 337 ° 1 min 54 W/m² 17,0 °C 24,0 °C 16,1 km/h (3 Bft)
16.08.2026 19:16 24,1 °C 25,1 °C 58 % 61 % 1013,6 hPa 0,0 l/m² 11,3 km/h (2 Bft) N 360 ° 1 min 53 W/m² 17,0 °C 24,0 °C 16,1 km/h (3 Bft)
16.08.2026 19:17 24,1 °C 25,0 °C 58 % 61 % 1013,7 hPa 0,0 l/m² 8,0 km/h (2 Bft) N 360 ° 0 min 51 W/m² 16,9 °C 24,6 °C 12,9 km/h (3 Bft)
16.08.2026 19:18 24,1 °C 25,0 °C 59 % 61 % 1013,7 hPa 0,0 l/m² 4,8 km/h (1 Bft) NW 315 ° 0 min 51 W/m² 16,9 °C 25,0 °C 6,4 km/h (2 Bft)
16.08.2026 19:19 24,1 °C 25,0 °C 59 % 61 % 1013,6 hPa 0,0 l/m² 4,8 km/h (1 Bft) N 360 ° 0 min 51 W/m² 16,9 °C 25,0 °C 11,3 km/h (2 Bft)
16.08.2026 19:20 24,1 °C 25,0 °C 59 % 61 % 1013,6 hPa 0,0 l/m² 8,0 km/h (2 Bft) N 360 ° 0 min 51 W/m² 16,9 °C 24,6 °C 12,9 km/h (3 Bft)
16.08.2026 19:21 24,2 °C 24,9 °C 59 % 61 % 1013,6 hPa 0,0 l/m² 9,7 km/h (2 Bft) N-NO 22 ° 0 min 51 W/m² 16,8 °C 24,1 °C 14,5 km/h (3 Bft)
16.08.2026 19:22 24,1 °C 24,9 °C 59 % 61 % 1013,7 hPa 0,0 l/m² 9,7 km/h (2 Bft) N-NO 22 ° 1 min 56 W/m² 16,8 °C 24,1 °C 16,1 km/h (3 Bft)
16.08.2026 19:23 24,2 °C 24,9 °C 59 % 61 % 1013,7 hPa 0,0 l/m² 8,0 km/h (2 Bft) N-NO 22 ° 1 min 60 W/m² 16,8 °C 24,5 °C 11,3 km/h (2 Bft)
16.08.2026 19:24 24,1 °C 24,9 °C 59 % 62 % 1013,6 hPa 0,0 l/m² 6,4 km/h (2 Bft) N 360 ° 1 min 62 W/m² 17,1 °C 24,9 °C 9,7 km/h (2 Bft)
16.08.2026 19:25 24,1 °C 24,9 °C 59 % 62 % 1013,6 hPa 0,0 l/m² 6,4 km/h (2 Bft) N-NW 337 ° 1 min 62 W/m² 17,1 °C 24,9 °C 8,0 km/h (2 Bft)
16.08.2026 19:26 24,2 °C 24,8 °C 59 % 61 % 1013,6 hPa 0,0 l/m² 9,7 km/h (2 Bft) N 360 ° 1 min 63 W/m² 16,8 °C 24,0 °C 16,1 km/h (3 Bft)
16.08.2026 19:27 24,2 °C 24,8 °C 59 % 62 % 1013,6 hPa 0,0 l/m² 8,0 km/h (2 Bft) N 360 ° 1 min 62 W/m² 17,0 °C 24,4 °C 12,9 km/h (3 Bft)
16.08.2026 19:28 24,2 °C 24,8 °C 59 % 62 % 1013,6 hPa 0,0 l/m² 6,4 km/h (2 Bft) N 360 ° 1 min 62 W/m² 17,0 °C 24,8 °C 8,0 km/h (2 Bft)
16.08.2026 19:29 24,2 °C 24,8 °C 59 % 62 % 1013,6 hPa 0,0 l/m² 8,0 km/h (2 Bft) N-NO 22 ° 1 min 60 W/m² 17,0 °C 24,4 °C 12,9 km/h (3 Bft)
16.08.2026 19:30 24,2 °C 24,8 °C 59 % 62 % 1013,5 hPa 0,0 l/m² 8,0 km/h (2 Bft) NO 45 ° 1 min 58 W/m² 17,0 °C 24,4 °C 16,1 km/h (3 Bft)
16.08.2026 19:31 24,2 °C 24,8 °C 59 % 62 % 1013,5 hPa 0,0 l/m² 8,0 km/h (2 Bft) N-NO 22 ° 1 min 58 W/m² 17,0 °C 24,4 °C 14,5 km/h (3 Bft)
16.08.2026 19:32 24,2 °C 24,8 °C 59 % 62 % 1013,5 hPa 0,0 l/m² 4,8 km/h (1 Bft) N-NW 337 ° 1 min 56 W/m² 17,0 °C 24,8 °C 6,4 km/h (2 Bft)
16.08.2026 19:33 24,2 °C 24,8 °C 59 % 62 % 1013,5 hPa 0,0 l/m² 8,0 km/h (2 Bft) N-NO 22 ° 1 min 56 W/m² 17,0 °C 24,4 °C 14,5 km/h (3 Bft)
16.08.2026 19:34 24,2 °C 24,8 °C 59 % 62 % 1013,5 hPa 0,0 l/m² 4,8 km/h (1 Bft) N 360 ° 1 min 54 W/m² 17,0 °C 24,8 °C 8,0 km/h (2 Bft)
16.08.2026 19:35 24,2 °C 24,7 °C 59 % 62 % 1013,5 hPa 0,0 l/m² 4,8 km/h (1 Bft) N 360 ° 0 min 51 W/m² 16,9 °C 24,7 °C 8,0 km/h (2 Bft)
16.08.2026 19:36 24,2 °C 24,8 °C 59 % 62 % 1013,5 hPa 0,0 l/m² 6,4 km/h (2 Bft) N-NW 337 ° 0 min 49 W/m² 17,0 °C 24,8 °C 8,0 km/h (2 Bft)
16.08.2026 19:37 24,2 °C 24,8 °C 59 % 62 % 1013,5 hPa 0,0 l/m² 6,4 km/h (2 Bft) N 360 ° 0 min 47 W/m² 17,0 °C 24,8 °C 8,0 km/h (2 Bft)
16.08.2026 19:38 24,2 °C 24,7 °C 59 % 62 % 1013,6 hPa 0,0 l/m² 6,4 km/h (2 Bft) N-NW 337 ° 0 min 47 W/m² 16,9 °C 24,7 °C 12,9 km/h (3 Bft)
16.08.2026 19:39 24,2 °C 24,7 °C 59 % 61 % 1013,5 hPa 0,0 l/m² 4,8 km/h (1 Bft) N 360 ° 0 min 46 W/m² 16,7 °C 24,7 °C 12,9 km/h (3 Bft)
16.08.2026 19:40 24,2 °C 24,7 °C 59 % 62 % 1013,6 hPa 0,0 l/m² 6,4 km/h (2 Bft) N-NW 337 ° 0 min 46 W/m² 16,9 °C 24,7 °C 9,7 km/h (2 Bft)
16.08.2026 19:41 24,2 °C 24,7 °C 59 % 62 % 1013,5 hPa 0,0 l/m² 8,0 km/h (2 Bft) N 360 ° 0 min 44 W/m² 16,9 °C 24,3 °C 12,9 km/h (3 Bft)
16.08.2026 19:42 24,2 °C 24,7 °C 59 % 62 % 1013,5 hPa 0,0 l/m² 6,4 km/h (2 Bft) N 360 ° 0 min 44 W/m² 16,9 °C 24,7 °C 12,9 km/h (3 Bft)
16.08.2026 19:43 24,2 °C 24,7 °C 59 % 62 % 1013,5 hPa 0,0 l/m² 6,4 km/h (2 Bft) N 360 ° 0 min 42 W/m² 16,9 °C 24,7 °C 8,0 km/h (2 Bft)
16.08.2026 19:44 24,2 °C 24,7 °C 59 % 62 % 1013,5 hPa 0,0 l/m² 6,4 km/h (2 Bft) N 360 ° 0 min 42 W/m² 16,9 °C 24,7 °C 8,0 km/h (2 Bft)
16.08.2026 19:45 24,2 °C 24,6 °C 59 % 62 % 1013,4 hPa 0,0 l/m² 8,0 km/h (2 Bft) N 360 ° 0 min 42 W/m² 16,8 °C 24,2 °C 12,9 km/h (3 Bft)
16.08.2026 19:46 24,2 °C 24,6 °C 59 % 62 % 1013,4 hPa 0,0 l/m² 4,8 km/h (1 Bft) N 360 ° 0 min 42 W/m² 16,8 °C 24,6 °C 9,7 km/h (2 Bft)
16.08.2026 19:47 24,2 °C 24,6 °C 59 % 62 % 1013,4 hPa 0,0 l/m² 4,8 km/h (1 Bft) N 360 ° 0 min 40 W/m² 16,8 °C 24,6 °C 6,4 km/h (2 Bft)
16.08.2026 19:48 24,2 °C 24,6 °C 59 % 62 % 1013,3 hPa 0,0 l/m² 4,8 km/h (1 Bft) N 360 ° 0 min 39 W/m² 16,8 °C 24,6 °C 6,4 km/h (2 Bft)
16.08.2026 19:49 24,2 °C 24,6 °C 59 % 62 % 1013,4 hPa 0,0 l/m² 4,8 km/h (1 Bft) N 360 ° 0 min 39 W/m² 16,8 °C 24,6 °C 6,4 km/h (2 Bft)
16.08.2026 19:50 24,2 °C 24,6 °C 59 % 62 % 1013,3 hPa 0,0 l/m² 6,4 km/h (2 Bft) N-NW 337 ° 0 min 37 W/m² 16,8 °C 24,6 °C 11,3 km/h (2 Bft)
16.08.2026 19:51 24,2 °C 24,5 °C 59 % 62 % 1013,3 hPa 0,0 l/m² 6,4 km/h (2 Bft) N 360 ° 0 min 35 W/m² 16,7 °C 24,5 °C 12,9 km/h (3 Bft)
16.08.2026 19:52 24,2 °C 24,4 °C 59 % 62 % 1013,3 hPa 0,0 l/m² 8,0 km/h (2 Bft) N 360 ° 0 min 33 W/m² 16,6 °C 24,0 °C 9,7 km/h (2 Bft)
16.08.2026 19:53 24,2 °C 24,4 °C 59 % 62 % 1013,2 hPa 0,0 l/m² 6,4 km/h (2 Bft) N 360 ° 0 min 32 W/m² 16,6 °C 24,4 °C 8,0 km/h (2 Bft)
16.08.2026 19:54 24,2 °C 24,4 °C 59 % 62 % 1013,3 hPa 0,0 l/m² 4,8 km/h (1 Bft) N 360 ° 0 min 30 W/m² 16,6 °C 24,4 °C 6,4 km/h (2 Bft)
16.08.2026 19:55 24,2 °C 24,4 °C 59 % 62 % 1013,3 hPa 0,0 l/m² 3,2 km/h (1 Bft) N 360 ° 0 min 30 W/m² 16,6 °C 24,4 °C 6,4 km/h (2 Bft)
16.08.2026 19:56 24,2 °C 24,4 °C 59 % 62 % 1013,3 hPa 0,0 l/m² 6,4 km/h (2 Bft) N 360 ° 0 min 28 W/m² 16,6 °C 24,4 °C 9,7 km/h (2 Bft)
16.08.2026 19:57 24,2 °C 24,3 °C 59 % 62 % 1013,4 hPa 0,0 l/m² 6,4 km/h (2 Bft) N-NW 337 ° 0 min 26 W/m² 16,5 °C 24,3 °C 9,7 km/h (2 Bft)
16.08.2026 19:58 24,2 °C 24,3 °C 59 % 62 % 1013,4 hPa 0,0 l/m² 6,4 km/h (2 Bft) N 360 ° 0 min 25 W/m² 16,5 °C 24,3 °C 8,0 km/h (2 Bft)
16.08.2026 19:59 24,2 °C 24,3 °C 59 % 62 % 1013,4 hPa 0,0 l/m² 8,0 km/h (2 Bft) N 360 ° 0 min 23 W/m² 16,5 °C 23,9 °C 8,0 km/h (2 Bft)
16.08.2026 20:00 24,2 °C 24,3 °C 59 % 62 % 1013,4 hPa 0,0 l/m² 6,4 km/h (2 Bft) N-NW 337 ° 0 min 21 W/m² 16,5 °C 24,3 °C 8,0 km/h (2 Bft)
16.08.2026 20:01 24,2 °C 24,3 °C 59 % 62 % 1013,4 hPa 0,0 l/m² 4,8 km/h (1 Bft) N 360 ° 0 min 21 W/m² 16,5 °C 24,3 °C 8,0 km/h (2 Bft)
16.08.2026 20:02 24,2 °C 24,2 °C 59 % 62 % 1013,4 hPa 0,0 l/m² 4,8 km/h (1 Bft) N-NW 337 ° 0 min 19 W/m² 16,4 °C 24,2 °C 6,4 km/h (2 Bft)
16.08.2026 20:03 24,2 °C 24,2 °C 59 % 62 % 1013,4 hPa 0,0 l/m² 8,0 km/h (2 Bft) N 360 ° 0 min 18 W/m² 16,4 °C 23,8 °C 12,9 km/h (3 Bft)
16.08.2026 20:04 24,2 °C 24,2 °C 59 % 62 % 1013,3 hPa 0,0 l/m² 8,0 km/h (2 Bft) N 360 ° 0 min 16 W/m² 16,4 °C 23,8 °C 11,3 km/h (2 Bft)
16.08.2026 20:05 24,2 °C 24,1 °C 59 % 62 % 1013,4 hPa 0,0 l/m² 4,8 km/h (1 Bft) N 360 ° 0 min 16 W/m² 16,4 °C 24,1 °C 6,4 km/h (2 Bft)
16.08.2026 20:06 24,2 °C 24,2 °C 59 % 63 % 1013,3 hPa 0,0 l/m² 4,8 km/h (1 Bft) N 360 ° 0 min 14 W/m² 16,7 °C 24,2 °C 8,0 km/h (2 Bft)
16.08.2026 20:07 24,2 °C 24,1 °C 59 % 63 % 1013,4 hPa 0,0 l/m² 4,8 km/h (1 Bft) N 360 ° 0 min 14 W/m² 16,6 °C 24,1 °C 8,0 km/h (2 Bft)
16.08.2026 20:08 24,2 °C 24,1 °C 59 % 63 % 1013,3 hPa 0,0 l/m² 4,8 km/h (1 Bft) N-NW 337 ° 0 min 14 W/m² 16,6 °C 24,1 °C 6,4 km/h (2 Bft)
16.08.2026 20:09 24,2 °C 24,1 °C 59 % 63 % 1013,3 hPa 0,0 l/m² 3,2 km/h (1 Bft) N 360 ° 0 min 12 W/m² 16,6 °C 24,1 °C 6,4 km/h (2 Bft)
16.08.2026 20:10 24,2 °C 24,1 °C 59 % 63 % 1013,3 hPa 0,0 l/m² 3,2 km/h (1 Bft) N-NO 22 ° 0 min 12 W/m² 16,6 °C 24,1 °C 4,8 km/h (1 Bft)
16.08.2026 20:11 24,2 °C 24,0 °C 59 % 63 % 1013,3 hPa 0,0 l/m² 4,8 km/h (1 Bft) NO 45 ° 0 min 12 W/m² 16,5 °C 24,0 °C 8,0 km/h (2 Bft)
16.08.2026 20:12 24,2 °C 24,0 °C 59 % 63 % 1013,3 hPa 0,0 l/m² 4,8 km/h (1 Bft) NO 45 ° 0 min 12 W/m² 16,5 °C 24,0 °C 8,0 km/h (2 Bft)
16.08.2026 20:13 24,2 °C 23,9 °C 59 % 63 % 1013,3 hPa 0,0 l/m² 4,8 km/h (1 Bft) NO 45 ° 0 min 12 W/m² 16,4 °C 23,9 °C 8,0 km/h (2 Bft)
16.08.2026 20:14 24,2 °C 23,8 °C 59 % 64 % 1013,3 hPa 0,0 l/m² 6,4 km/h (2 Bft) NO 45 ° 0 min 12 W/m² 16,6 °C 23,8 °C 8,0 km/h (2 Bft)
16.08.2026 20:15 24,2 °C 23,8 °C 59 % 64 % 1013,3 hPa 0,0 l/m² 6,4 km/h (2 Bft) NO 45 ° 0 min 11 W/m² 16,6 °C 23,8 °C 9,7 km/h (2 Bft)
16.08.2026 20:16 24,2 °C 23,8 °C 59 % 64 % 1013,2 hPa 0,0 l/m² 6,4 km/h (2 Bft) NO 45 ° 0 min 11 W/m² 16,6 °C 23,8 °C 8,0 km/h (2 Bft)
16.08.2026 20:17 24,2 °C 23,7 °C 59 % 64 % 1013,2 hPa 0,0 l/m² 6,4 km/h (2 Bft) O-NO 67 ° 0 min 11 W/m² 16,5 °C 23,7 °C 9,7 km/h (2 Bft)
16.08.2026 20:18 24,2 °C 23,7 °C 59 % 64 % 1013,2 hPa 0,0 l/m² 6,4 km/h (2 Bft) N-NO 22 ° 0 min 9 W/m² 16,5 °C 23,7 °C 9,7 km/h (2 Bft)
16.08.2026 20:19 24,2 °C 23,7 °C 59 % 64 % 1013,1 hPa 0,0 l/m² 3,2 km/h (1 Bft) N-NO 22 ° 0 min 9 W/m² 16,5 °C 23,7 °C 4,8 km/h (1 Bft)
16.08.2026 20:20 24,2 °C 23,7 °C 59 % 64 % 1013,2 hPa 0,0 l/m² 4,8 km/h (1 Bft) N-NO 22 ° 0 min 7 W/m² 16,5 °C 23,7 °C 6,4 km/h (2 Bft)
16.08.2026 20:21 24,2 °C 23,6 °C 59 % 64 % 1013,1 hPa 0,0 l/m² 3,2 km/h (1 Bft) N-NO 22 ° 0 min 7 W/m² 16,4 °C 23,6 °C 4,8 km/h (1 Bft)
16.08.2026 20:22 24,2 °C 23,6 °C 58 % 64 % 1013,1 hPa 0,0 l/m² 4,8 km/h (1 Bft) NO 45 ° 0 min 5 W/m² 16,4 °C 23,6 °C 6,4 km/h (2 Bft)
16.08.2026 20:23 24,2 °C 23,6 °C 58 % 64 % 1013,1 hPa 0,0 l/m² 3,2 km/h (1 Bft) NO 45 ° 0 min 5 W/m² 16,4 °C 23,6 °C 4,8 km/h (1 Bft)
16.08.2026 20:24 24,2 °C 23,6 °C 58 % 65 % 1013,2 hPa 0,0 l/m² 3,2 km/h (1 Bft) NO 45 ° 0 min 5 W/m² 16,6 °C 23,6 °C 4,8 km/h (1 Bft)
16.08.2026 20:25 24,2 °C 23,5 °C 58 % 65 % 1013,1 hPa 0,0 l/m² 3,2 km/h (1 Bft) O-NO 67 ° 0 min 5 W/m² 16,5 °C 23,5 °C 4,8 km/h (1 Bft)
16.08.2026 20:26 24,2 °C 23,5 °C 58 % 65 % 1013,1 hPa 0,0 l/m² 3,2 km/h (1 Bft) O-NO 67 ° 0 min 5 W/m² 16,5 °C 23,5 °C 4,8 km/h (1 Bft)
16.08.2026 20:27 24,2 °C 23,4 °C 58 % 65 % 1013,1 hPa 0,0 l/m² 4,8 km/h (1 Bft) O-NO 67 ° 0 min 5 W/m² 16,4 °C 23,4 °C 6,4 km/h (2 Bft)
16.08.2026 20:28 24,1 °C 23,4 °C 57 % 65 % 1013,2 hPa 0,0 l/m² 3,2 km/h (1 Bft) NO 45 ° 0 min 0 W/m² 16,4 °C 23,4 °C 6,4 km/h (2 Bft)
16.08.2026 20:29 24,1 °C 23,4 °C 57 % 65 % 1013,2 hPa 0,0 l/m² 4,8 km/h (1 Bft) N 360 ° 0 min 0 W/m² 16,4 °C 23,4 °C 8,0 km/h (2 Bft)
16.08.2026 20:30 24,2 °C 23,4 °C 58 % 65 % 1013,1 hPa 0,0 l/m² 1,6 km/h (1 Bft) N 360 ° 0 min 0 W/m² 16,4 °C 23,4 °C 3,2 km/h (1 Bft)
16.08.2026 20:31 24,1 °C 23,3 °C 58 % 65 % 1013,2 hPa 0,0 l/m² 3,2 km/h (1 Bft) N 360 ° 0 min 0 W/m² 16,3 °C 23,3 °C 4,8 km/h (1 Bft)
16.08.2026 20:32 24,1 °C 23,3 °C 57 % 65 % 1013,2 hPa 0,0 l/m² 4,8 km/h (1 Bft) N 360 ° 0 min 0 W/m² 16,3 °C 23,3 °C 6,4 km/h (2 Bft)
16.08.2026 20:33 24,1 °C 23,3 °C 58 % 65 % 1013,2 hPa 0,0 l/m² 3,2 km/h (1 Bft) N-NO 22 ° 0 min 0 W/m² 16,3 °C 23,3 °C 4,8 km/h (1 Bft)
16.08.2026 20:34 24,2 °C 23,3 °C 58 % 65 % 1013,2 hPa 0,0 l/m² 3,2 km/h (1 Bft) N 360 ° 0 min 0 W/m² 16,3 °C 23,3 °C 4,8 km/h (1 Bft)
16.08.2026 20:35 24,1 °C 23,2 °C 58 % 66 % 1013,1 hPa 0,0 l/m² 3,2 km/h (1 Bft) NO 45 ° 0 min 0 W/m² 16,5 °C 23,2 °C 6,4 km/h (2 Bft)
16.08.2026 20:36 24,1 °C 23,2 °C 58 % 65 % 1013,0 hPa 0,0 l/m² 4,8 km/h (1 Bft) N-NO 22 ° 0 min 0 W/m² 16,2 °C 23,2 °C 6,4 km/h (2 Bft)
16.08.2026 20:37 24,1 °C 23,2 °C 58 % 66 % 1013,1 hPa 0,0 l/m² 3,2 km/h (1 Bft) N 360 ° 0 min 0 W/m² 16,5 °C 23,2 °C 6,4 km/h (2 Bft)
16.08.2026 20:38 24,2 °C 23,1 °C 58 % 66 % 1013,0 hPa 0,0 l/m² 1,6 km/h (1 Bft) N-NO 22 ° 0 min 0 W/m² 16,4 °C 23,1 °C 3,2 km/h (1 Bft)
16.08.2026 20:39 24,1 °C 23,1 °C 58 % 66 % 1013,1 hPa 0,0 l/m² 1,6 km/h (1 Bft) N-NO 22 ° 0 min 0 W/m² 16,4 °C 23,1 °C 3,2 km/h (1 Bft)
16.08.2026 20:40 24,1 °C 23,1 °C 58 % 66 % 1013,1 hPa 0,0 l/m² 3,2 km/h (1 Bft) NO 45 ° 0 min 0 W/m² 16,4 °C 23,1 °C 4,8 km/h (1 Bft)
16.08.2026 20:41 24,1 °C 22,9 °C 58 % 66 % 1013,1 hPa 0,0 l/m² 1,6 km/h (1 Bft) NO 45 ° 0 min 0 W/m² 16,2 °C 22,9 °C 4,8 km/h (1 Bft)
16.08.2026 20:42 24,1 °C 22,9 °C 58 % 67 % 1013,1 hPa 0,0 l/m² 3,2 km/h (1 Bft) NO 45 ° 0 min 0 W/m² 16,4 °C 22,9 °C 6,4 km/h (2 Bft)
16.08.2026 20:43 24,1 °C 22,8 °C 58 % 67 % 1013,1 hPa 0,0 l/m² 3,2 km/h (1 Bft) O-NO 67 ° 0 min 0 W/m² 16,3 °C 22,8 °C 3,2 km/h (1 Bft)
16.08.2026 20:44 24,1 °C 22,8 °C 57 % 67 % 1013,1 hPa 0,0 l/m² 3,2 km/h (1 Bft) O-NO 67 ° 0 min 0 W/m² 16,3 °C 22,8 °C 4,8 km/h (1 Bft)
16.08.2026 20:45 24,2 °C 22,8 °C 58 % 67 % 1013,1 hPa 0,0 l/m² 1,6 km/h (1 Bft) O-NO 67 ° 0 min 0 W/m² 16,3 °C 22,8 °C 4,8 km/h (1 Bft)
16.08.2026 20:46 24,1 °C 22,8 °C 57 % 67 % 1013,1 hPa 0,0 l/m² 3,2 km/h (1 Bft) O-NO 67 ° 0 min 0 W/m² 16,3 °C 22,8 °C 4,8 km/h (1 Bft)
16.08.2026 20:47 24,1 °C 22,8 °C 57 % 67 % 1013,2 hPa 0,0 l/m² 3,2 km/h (1 Bft) NO 45 ° 0 min 0 W/m² 16,3 °C 22,8 °C 6,4 km/h (2 Bft)
16.08.2026 20:48 24,2 °C 22,8 °C 58 % 67 % 1013,1 hPa 0,0 l/m² 3,2 km/h (1 Bft) NO 45 ° 0 min 0 W/m² 16,3 °C 22,8 °C 4,8 km/h (1 Bft)
16.08.2026 20:49 24,1 °C 22,8 °C 57 % 67 % 1013,1 hPa 0,0 l/m² 1,6 km/h (1 Bft) NO 45 ° 0 min 0 W/m² 16,3 °C 22,8 °C 3,2 km/h (1 Bft)
16.08.2026 20:50 24,1 °C 22,8 °C 57 % 67 % 1013,1 hPa 0,0 l/m² 3,2 km/h (1 Bft) NO 45 ° 0 min 0 W/m² 16,3 °C 22,8 °C 4,8 km/h (1 Bft)
16.08.2026 20:51 24,1 °C 22,7 °C 57 % 67 % 1013,2 hPa 0,0 l/m² 0,0 km/h (0 Bft) NO 45 ° 0 min 0 W/m² 16,2 °C 22,7 °C 1,6 km/h (1 Bft)
16.08.2026 20:52 24,1 °C 22,7 °C 57 % 67 % 1013,2 hPa 0,0 l/m² 1,6 km/h (1 Bft) NO 45 ° 0 min 0 W/m² 16,2 °C 22,7 °C 3,2 km/h (1 Bft)
16.08.2026 20:53 24,1 °C 22,6 °C 57 % 67 % 1013,2 hPa 0,0 l/m² 1,6 km/h (1 Bft) NO 45 ° 0 min 0 W/m² 16,2 °C 22,6 °C 1,6 km/h (1 Bft)
16.08.2026 20:54 24,1 °C 22,5 °C 57 % 68 % 1013,2 hPa 0,0 l/m² 0,0 km/h (0 Bft) NO 45 ° 0 min 0 W/m² 16,3 °C 22,5 °C 1,6 km/h (1 Bft)
16.08.2026 20:55 24,1 °C 22,4 °C 57 % 68 % 1013,3 hPa 0,0 l/m² 0,0 km/h (0 Bft) N 0 ° 0 min 0 W/m² 16,2 °C 22,4 °C 0,0 km/h (0 Bft)
16.08.2026 20:56 24,1 °C 22,4 °C 57 % 68 % 1013,3 hPa 0,0 l/m² 1,6 km/h (1 Bft) NO 45 ° 0 min 0 W/m² 16,2 °C 22,4 °C 1,6 km/h (1 Bft)
16.08.2026 20:57 24,1 °C 22,3 °C 57 % 68 % 1013,2 hPa 0,0 l/m² 0,0 km/h (0 Bft) NO 45 ° 0 min 0 W/m² 16,1 °C 22,3 °C 1,6 km/h (1 Bft)
16.08.2026 20:58 24,2 °C 22,2 °C 57 % 69 % 1013,3 hPa 0,0 l/m² 0,0 km/h (0 Bft) NO 45 ° 0 min 0 W/m² 16,2 °C 22,2 °C 1,6 km/h (1 Bft)
16.08.2026 20:59 24,2 °C 22,1 °C 57 % 69 % 1013,2 hPa 0,0 l/m² 1,6 km/h (1 Bft) NO 45 ° 0 min 0 W/m² 16,1 °C 22,1 °C 1,6 km/h (1 Bft)
16.08.2026 21:00 24,1 °C 22,0 °C 57 % 69 % 1013,3 hPa 0,0 l/m² 0,0 km/h (0 Bft) NO 45 ° 0 min 0 W/m² 16,0 °C 22,0 °C 1,6 km/h (1 Bft)
16.08.2026 21:01 24,1 °C 21,9 °C 57 % 69 % 1013,3 hPa 0,0 l/m² 1,6 km/h (1 Bft) NO 45 ° 0 min 0 W/m² 15,9 °C 21,9 °C 1,6 km/h (1 Bft)
16.08.2026 21:02 24,1 °C 21,8 °C 57 % 70 % 1013,3 hPa 0,0 l/m² 0,0 km/h (0 Bft) NO 45 ° 0 min 0 W/m² 16,1 °C 21,8 °C 1,6 km/h (1 Bft)
16.08.2026 21:03 24,2 °C 21,8 °C 57 % 70 % 1013,4 hPa 0,0 l/m² 0,0 km/h (0 Bft) NO 45 ° 0 min 0 W/m² 16,1 °C 21,8 °C 1,6 km/h (1 Bft)
16.08.2026 21:04 24,1 °C 21,7 °C 57 % 70 % 1013,5 hPa 0,0 l/m² 0,0 km/h (0 Bft) N 0 ° 0 min 0 W/m² 16,0 °C 21,7 °C 0,0 km/h (0 Bft)
16.08.2026 21:05 24,1 °C 21,6 °C 57 % 70 % 1013,4 hPa 0,0 l/m² 1,6 km/h (1 Bft) NO 45 ° 0 min 0 W/m² 15,9 °C 21,6 °C 3,2 km/h (1 Bft)
16.08.2026 21:06 24,1 °C 21,6 °C 57 % 70 % 1013,4 hPa 0,0 l/m² 1,6 km/h (1 Bft) NO 45 ° 0 min 0 W/m² 15,9 °C 21,6 °C 3,2 km/h (1 Bft)
16.08.2026 21:07 24,1 °C 21,6 °C 57 % 71 % 1013,4 hPa 0,0 l/m² 0,0 km/h (0 Bft) NO 45 ° 0 min 0 W/m² 16,1 °C 21,6 °C 1,6 km/h (1 Bft)
16.08.2026 21:08 24,1 °C 21,6 °C 57 % 71 % 1013,3 hPa 0,0 l/m² 3,2 km/h (1 Bft) NO 45 ° 0 min 0 W/m² 16,1 °C 21,6 °C 4,8 km/h (1 Bft)
16.08.2026 21:09 24,1 °C 21,6 °C 57 % 71 % 1013,3 hPa 0,0 l/m² 3,2 km/h (1 Bft) NO 45 ° 0 min 0 W/m² 16,1 °C 21,6 °C 3,2 km/h (1 Bft)
16.08.2026 21:10 24,2 °C 21,6 °C 57 % 71 % 1013,3 hPa 0,0 l/m² 3,2 km/h (1 Bft) NO 45 ° 0 min 0 W/m² 16,1 °C 21,6 °C 4,8 km/h (1 Bft)
16.08.2026 21:11 24,2 °C 21,7 °C 58 % 71 % 1013,3 hPa 0,0 l/m² 3,2 km/h (1 Bft) NO 45 ° 0 min 0 W/m² 16,2 °C 21,7 °C 4,8 km/h (1 Bft)
16.08.2026 21:12 24,2 °C 21,7 °C 57 % 71 % 1013,3 hPa 0,0 l/m² 4,8 km/h (1 Bft) NO 45 ° 0 min 0 W/m² 16,2 °C 21,7 °C 4,8 km/h (1 Bft)
16.08.2026 21:13 24,2 °C 21,7 °C 58 % 71 % 1013,4 hPa 0,0 l/m² 3,2 km/h (1 Bft) NO 45 ° 0 min 0 W/m² 16,2 °C 21,7 °C 6,4 km/h (2 Bft)
16.08.2026 21:14 24,2 °C 21,8 °C 58 % 70 % 1013,4 hPa 0,0 l/m² 3,2 km/h (1 Bft) NO 45 ° 0 min 0 W/m² 16,1 °C 21,8 °C 4,8 km/h (1 Bft)
16.08.2026 21:15 24,2 °C 21,8 °C 58 % 70 % 1013,4 hPa 0,0 l/m² 3,2 km/h (1 Bft) NO 45 ° 0 min 0 W/m² 16,1 °C 21,8 °C 4,8 km/h (1 Bft)
16.08.2026 21:16 24,2 °C 21,8 °C 57 % 70 % 1013,3 hPa 0,0 l/m² 3,2 km/h (1 Bft) NO 45 ° 0 min 0 W/m² 16,1 °C 21,8 °C 4,8 km/h (1 Bft)
16.08.2026 21:17 24,2 °C 21,8 °C 58 % 70 % 1013,4 hPa 0,0 l/m² 4,8 km/h (1 Bft) N 360 ° 0 min 0 W/m² 16,1 °C 21,8 °C 8,0 km/h (2 Bft)
16.08.2026 21:18 24,2 °C 21,9 °C 58 % 70 % 1013,4 hPa 0,0 l/m² 4,8 km/h (1 Bft) N 360 ° 0 min 0 W/m² 16,2 °C 21,9 °C 6,4 km/h (2 Bft)
16.08.2026 21:19 24,2 °C 21,9 °C 57 % 69 % 1013,4 hPa 0,0 l/m² 3,2 km/h (1 Bft) N 360 ° 0 min 0 W/m² 15,9 °C 21,9 °C 4,8 km/h (1 Bft)
16.08.2026 21:20 24,2 °C 21,9 °C 57 % 69 % 1013,5 hPa 0,0 l/m² 1,6 km/h (1 Bft) N 360 ° 0 min 0 W/m² 15,9 °C 21,9 °C 3,2 km/h (1 Bft)
16.08.2026 21:21 24,2 °C 21,9 °C 57 % 70 % 1013,5 hPa 0,0 l/m² 1,6 km/h (1 Bft) N-NO 22 ° 0 min 0 W/m² 16,2 °C 21,9 °C 3,2 km/h (1 Bft)
16.08.2026 21:22 24,1 °C 21,9 °C 57 % 69 % 1013,5 hPa 0,0 l/m² 1,6 km/h (1 Bft) N-NO 22 ° 0 min 0 W/m² 15,9 °C 21,9 °C 3,2 km/h (1 Bft)
16.08.2026 21:23 24,2 °C 21,8 °C 57 % 70 % 1013,7 hPa 0,0 l/m² 0,0 km/h (0 Bft) N-NO 22 ° 0 min 0 W/m² 16,1 °C 21,8 °C 1,6 km/h (1 Bft)
16.08.2026 21:24 24,2 °C 21,8 °C 57 % 70 % 1013,6 hPa 0,0 l/m² 0,0 km/h (0 Bft) N 0 ° 0 min 0 W/m² 16,1 °C 21,8 °C 0,0 km/h (0 Bft)
16.08.2026 21:25 24,2 °C 21,7 °C 57 % 70 % 1013,6 hPa 0,0 l/m² 0,0 km/h (0 Bft) N-NO 22 ° 0 min 0 W/m² 16,0 °C 21,7 °C 1,6 km/h (1 Bft)
16.08.2026 21:26 24,2 °C 21,6 °C 57 % 70 % 1013,7 hPa 0,0 l/m² 0,0 km/h (0 Bft) N 0 ° 0 min 0 W/m² 15,9 °C 21,6 °C 0,0 km/h (0 Bft)
16.08.2026 21:27 24,2 °C 21,6 °C 57 % 70 % 1013,6 hPa 0,0 l/m² 0,0 km/h (0 Bft) N-NO 22 ° 0 min 0 W/m² 15,9 °C 21,6 °C 3,2 km/h (1 Bft)
16.08.2026 21:28 24,2 °C 21,6 °C 57 % 70 % 1013,7 hPa 0,0 l/m² 3,2 km/h (1 Bft) N 360 ° 0 min 0 W/m² 15,9 °C 21,6 °C 4,8 km/h (1 Bft)
16.08.2026 21:29 24,2 °C 21,5 °C 57 % 71 % 1013,6 hPa 0,0 l/m² 3,2 km/h (1 Bft) N 360 ° 0 min 0 W/m² 16,0 °C 21,5 °C 4,8 km/h (1 Bft)
16.08.2026 21:30 24,2 °C 21,5 °C 57 % 71 % 1013,6 hPa 0,0 l/m² 4,8 km/h (1 Bft) N-NW 337 ° 0 min 0 W/m² 16,0 °C 21,5 °C 6,4 km/h (2 Bft)
16.08.2026 21:31 24,2 °C 21,6 °C 57 % 71 % 1013,6 hPa 0,0 l/m² 4,8 km/h (1 Bft) N-NW 337 ° 0 min 0 W/m² 16,1 °C 21,6 °C 6,4 km/h (2 Bft)
16.08.2026 21:32 24,2 °C 21,6 °C 57 % 71 % 1013,7 hPa 0,0 l/m² 4,8 km/h (1 Bft) N-NW 337 ° 0 min 0 W/m² 16,1 °C 21,6 °C 8,0 km/h (2 Bft)
16.08.2026 21:33 24,2 °C 21,6 °C 57 % 71 % 1013,7 hPa 0,0 l/m² 4,8 km/h (1 Bft) N-NW 337 ° 0 min 0 W/m² 16,1 °C 21,6 °C 8,0 km/h (2 Bft)
16.08.2026 21:34 24,2 °C 21,6 °C 57 % 71 % 1013,7 hPa 0,0 l/m² 6,4 km/h (2 Bft) N-NW 337 ° 0 min 0 W/m² 16,1 °C 21,6 °C 9,7 km/h (2 Bft)
16.08.2026 21:35 24,2 °C 21,6 °C 57 % 70 % 1013,7 hPa 0,0 l/m² 6,4 km/h (2 Bft) NW 315 ° 0 min 0 W/m² 15,9 °C 21,6 °C 8,0 km/h (2 Bft)
16.08.2026 21:36 24,2 °C 21,6 °C 57 % 70 % 1013,7 hPa 0,0 l/m² 4,8 km/h (1 Bft) N-NW 337 ° 0 min 0 W/m² 15,9 °C 21,6 °C 6,4 km/h (2 Bft)
16.08.2026 21:37 24,2 °C 21,7 °C 57 % 70 % 1013,7 hPa 0,0 l/m² 4,8 km/h (1 Bft) N-NW 337 ° 0 min 0 W/m² 16,0 °C 21,7 °C 9,7 km/h (2 Bft)
16.08.2026 21:38 24,2 °C 21,7 °C 57 % 70 % 1013,7 hPa 0,0 l/m² 8,0 km/h (2 Bft) N-NW 337 ° 0 min 0 W/m² 16,0 °C 21,1 °C 9,7 km/h (2 Bft)
16.08.2026 21:39 24,2 °C 21,8 °C 57 % 70 % 1013,7 hPa 0,0 l/m² 4,8 km/h (1 Bft) NW 315 ° 0 min 0 W/m² 16,1 °C 21,8 °C 6,4 km/h (2 Bft)
16.08.2026 21:40 24,2 °C 21,8 °C 57 % 69 % 1013,6 hPa 0,0 l/m² 4,8 km/h (1 Bft) N-NW 337 ° 0 min 0 W/m² 15,9 °C 21,8 °C 8,0 km/h (2 Bft)
16.08.2026 21:41 24,2 °C 21,8 °C 57 % 69 % 1013,8 hPa 0,0 l/m² 4,8 km/h (1 Bft) N-NW 337 ° 0 min 0 W/m² 15,9 °C 21,8 °C 8,0 km/h (2 Bft)
16.08.2026 21:42 24,2 °C 21,8 °C 57 % 69 % 1013,7 hPa 0,0 l/m² 4,8 km/h (1 Bft) N-NW 337 ° 0 min 0 W/m² 15,9 °C 21,8 °C 6,4 km/h (2 Bft)
16.08.2026 21:43 24,2 °C 21,9 °C 57 % 69 % 1013,7 hPa 0,0 l/m² 4,8 km/h (1 Bft) NW 315 ° 0 min 0 W/m² 15,9 °C 21,9 °C 6,4 km/h (2 Bft)
16.08.2026 21:44 24,2 °C 21,9 °C 57 % 69 % 1013,7 hPa 0,0 l/m² 3,2 km/h (1 Bft) NW 315 ° 0 min 0 W/m² 15,9 °C 21,9 °C 6,4 km/h (2 Bft)
16.08.2026 21:45 24,2 °C 21,9 °C 57 % 69 % 1013,7 hPa 0,0 l/m² 3,2 km/h (1 Bft) NW 315 ° 0 min 0 W/m² 15,9 °C 21,9 °C 4,8 km/h (1 Bft)
16.08.2026 21:46 24,2 °C 21,8 °C 57 % 69 % 1013,7 hPa 0,0 l/m² 4,8 km/h (1 Bft) NW 315 ° 0 min 0 W/m² 15,9 °C 21,8 °C 6,4 km/h (2 Bft)
16.08.2026 21:47 24,2 °C 21,9 °C 57 % 69 % 1013,6 hPa 0,0 l/m² 4,8 km/h (1 Bft) NW 315 ° 0 min 0 W/m² 15,9 °C 21,9 °C 8,0 km/h (2 Bft)
16.08.2026 21:48 24,2 °C 21,9 °C 57 % 68 % 1013,7 hPa 0,0 l/m² 3,2 km/h (1 Bft) W-NW 292 ° 0 min 0 W/m² 15,7 °C 21,9 °C 6,4 km/h (2 Bft)
16.08.2026 21:49 24,2 °C 21,9 °C 57 % 68 % 1013,7 hPa 0,0 l/m² 3,2 km/h (1 Bft) W-NW 292 ° 0 min 0 W/m² 15,7 °C 21,9 °C 4,8 km/h (1 Bft)
16.08.2026 21:50 24,2 °C 21,9 °C 57 % 68 % 1013,7 hPa 0,0 l/m² 4,8 km/h (1 Bft) W-NW 292 ° 0 min 0 W/m² 15,7 °C 21,9 °C 6,4 km/h (2 Bft)
16.08.2026 21:51 24,2 °C 21,9 °C 57 % 68 % 1013,6 hPa 0,0 l/m² 3,2 km/h (1 Bft) N-NW 337 ° 0 min 0 W/m² 15,7 °C 21,9 °C 8,0 km/h (2 Bft)
16.08.2026 21:52 24,2 °C 21,9 °C 57 % 68 % 1013,6 hPa 0,0 l/m² 4,8 km/h (1 Bft) N-NW 337 ° 0 min 0 W/m² 15,7 °C 21,9 °C 6,4 km/h (2 Bft)
16.08.2026 21:53 24,2 °C 21,9 °C 57 % 67 % 1013,6 hPa 0,0 l/m² 6,4 km/h (2 Bft) N-NW 337 ° 0 min 0 W/m² 15,5 °C 21,9 °C 8,0 km/h (2 Bft)
16.08.2026 21:54 24,2 °C 21,9 °C 57 % 67 % 1013,5 hPa 0,0 l/m² 3,2 km/h (1 Bft) NW 315 ° 0 min 0 W/m² 15,5 °C 21,9 °C 4,8 km/h (1 Bft)
16.08.2026 21:55 24,2 °C 21,9 °C 57 % 67 % 1013,5 hPa 0,0 l/m² 1,6 km/h (1 Bft) N-NW 337 ° 0 min 0 W/m² 15,5 °C 21,9 °C 3,2 km/h (1 Bft)
16.08.2026 21:56 24,2 °C 21,9 °C 57 % 67 % 1013,5 hPa 0,0 l/m² 4,8 km/h (1 Bft) N-NW 337 ° 0 min 0 W/m² 15,5 °C 21,9 °C 4,8 km/h (1 Bft)
16.08.2026 21:57 24,2 °C 21,9 °C 57 % 67 % 1013,4 hPa 0,0 l/m² 4,8 km/h (1 Bft) N 360 ° 0 min 0 W/m² 15,5 °C 21,9 °C 8,0 km/h (2 Bft)
16.08.2026 21:58 24,2 °C 21,9 °C 57 % 67 % 1013,4 hPa 0,0 l/m² 3,2 km/h (1 Bft) N-NO 22 ° 0 min 0 W/m² 15,5 °C 21,9 °C 3,2 km/h (1 Bft)
16.08.2026 21:59 24,2 °C 21,9 °C 57 % 67 % 1013,4 hPa 0,0 l/m² 4,8 km/h (1 Bft) N-NO 22 ° 0 min 0 W/m² 15,5 °C 21,9 °C 6,4 km/h (2 Bft)
16.08.2026 22:00 24,2 °C 21,8 °C 57 % 67 % 1013,4 hPa 0,0 l/m² 3,2 km/h (1 Bft) N 360 ° 0 min 0 W/m² 15,4 °C 21,8 °C 6,4 km/h (2 Bft)
16.08.2026 22:01 24,2 °C 21,9 °C 57 % 67 % 1013,4 hPa 0,0 l/m² 3,2 km/h (1 Bft) N 360 ° 0 min 0 W/m² 15,5 °C 21,9 °C 4,8 km/h (1 Bft)
16.08.2026 22:02 24,2 °C 21,9 °C 57 % 67 % 1013,5 hPa 0,0 l/m² 3,2 km/h (1 Bft) N-NW 337 ° 0 min 0 W/m² 15,5 °C 21,9 °C 6,4 km/h (2 Bft)
16.08.2026 22:03 24,2 °C 21,9 °C 57 % 67 % 1013,4 hPa 0,0 l/m² 1,6 km/h (1 Bft) NO 45 ° 0 min 0 W/m² 15,5 °C 21,9 °C 4,8 km/h (1 Bft)
16.08.2026 22:04 24,2 °C 21,9 °C 57 % 67 % 1013,5 hPa 0,0 l/m² 1,6 km/h (1 Bft) NO 45 ° 0 min 0 W/m² 15,5 °C 21,9 °C 3,2 km/h (1 Bft)
16.08.2026 22:05 24,2 °C 21,8 °C 57 % 67 % 1013,5 hPa 0,0 l/m² 1,6 km/h (1 Bft) NO 45 ° 0 min 0 W/m² 15,4 °C 21,8 °C 3,2 km/h (1 Bft)
16.08.2026 22:06 24,2 °C 21,8 °C 57 % 67 % 1013,5 hPa 0,0 l/m² 0,0 km/h (0 Bft) NO 45 ° 0 min 0 W/m² 15,4 °C 21,8 °C 4,8 km/h (1 Bft)
16.08.2026 22:07 24,2 °C 21,8 °C 57 % 67 % 1013,5 hPa 0,0 l/m² 3,2 km/h (1 Bft) NO 45 ° 0 min 0 W/m² 15,4 °C 21,8 °C 4,8 km/h (1 Bft)
16.08.2026 22:08 24,1 °C 21,8 °C 57 % 68 % 1013,6 hPa 0,0 l/m² 1,6 km/h (1 Bft) W-NW 292 ° 0 min 0 W/m² 15,6 °C 21,8 °C 4,8 km/h (1 Bft)
16.08.2026 22:09 24,2 °C 21,7 °C 57 % 68 % 1013,5 hPa 0,0 l/m² 1,6 km/h (1 Bft) NW 315 ° 0 min 0 W/m² 15,5 °C 21,7 °C 4,8 km/h (1 Bft)
16.08.2026 22:10 24,2 °C 21,7 °C 57 % 68 % 1013,5 hPa 0,0 l/m² 0,0 km/h (0 Bft) NW 315 ° 0 min 0 W/m² 15,5 °C 21,7 °C 1,6 km/h (1 Bft)
16.08.2026 22:11 24,2 °C 21,6 °C 57 % 68 % 1013,5 hPa 0,0 l/m² 1,6 km/h (1 Bft) NW 315 ° 0 min 0 W/m² 15,4 °C 21,6 °C 1,6 km/h (1 Bft)
16.08.2026 22:12 24,2 °C 21,6 °C 57 % 68 % 1013,6 hPa 0,0 l/m² 0,0 km/h (0 Bft) NW 315 ° 0 min 0 W/m² 15,4 °C 21,6 °C 1,6 km/h (1 Bft)
16.08.2026 22:13 24,2 °C 21,6 °C 57 % 68 % 1013,7 hPa 0,0 l/m² 1,6 km/h (1 Bft) NW 315 ° 0 min 0 W/m² 15,4 °C 21,6 °C 3,2 km/h (1 Bft)
16.08.2026 22:14 24,2 °C 21,6 °C 57 % 69 % 1013,7 hPa 0,0 l/m² 0,0 km/h (0 Bft) NW 315 ° 0 min 0 W/m² 15,7 °C 21,6 °C 1,6 km/h (1 Bft)
16.08.2026 22:15 24,2 °C 21,5 °C 57 % 69 % 1013,7 hPa 0,0 l/m² 3,2 km/h (1 Bft) NW 315 ° 0 min 0 W/m² 15,6 °C 21,5 °C 4,8 km/h (1 Bft)
16.08.2026 22:16 24,2 °C 21,4 °C 57 % 69 % 1013,8 hPa 0,0 l/m² 1,6 km/h (1 Bft) N-NW 337 ° 0 min 0 W/m² 15,5 °C 21,4 °C 4,8 km/h (1 Bft)
16.08.2026 22:17 24,2 °C 21,4 °C 57 % 69 % 1013,7 hPa 0,0 l/m² 1,6 km/h (1 Bft) N-NW 337 ° 0 min 0 W/m² 15,5 °C 21,4 °C 1,6 km/h (1 Bft)
16.08.2026 22:18 24,2 °C 21,4 °C 57 % 69 % 1013,7 hPa 0,0 l/m² 3,2 km/h (1 Bft) NW 315 ° 0 min 0 W/m² 15,5 °C 21,4 °C 6,4 km/h (2 Bft)
16.08.2026 22:19 24,2 °C 21,4 °C 57 % 69 % 1013,8 hPa 0,0 l/m² 0,0 km/h (0 Bft) NW 315 ° 0 min 0 W/m² 15,5 °C 21,4 °C 1,6 km/h (1 Bft)
16.08.2026 22:20 24,2 °C 21,4 °C 57 % 69 % 1013,8 hPa 0,0 l/m² 0,0 km/h (0 Bft) NW 315 ° 0 min 0 W/m² 15,5 °C 21,4 °C 1,6 km/h (1 Bft)
16.08.2026 22:21 24,2 °C 21,4 °C 57 % 70 % 1013,8 hPa 0,0 l/m² 1,6 km/h (1 Bft) NW 315 ° 0 min 0 W/m² 15,7 °C 21,4 °C 1,6 km/h (1 Bft)
16.08.2026 22:22 24,2 °C 21,4 °C 56 % 71 % 1013,7 hPa 0,0 l/m² 1,6 km/h (1 Bft) NW 315 ° 0 min 0 W/m² 15,9 °C 21,4 °C 3,2 km/h (1 Bft)
16.08.2026 22:23 24,2 °C 21,3 °C 57 % 71 % 1013,7 hPa 0,0 l/m² 3,2 km/h (1 Bft) W 270 ° 0 min 0 W/m² 15,8 °C 21,3 °C 4,8 km/h (1 Bft)
16.08.2026 22:24 24,2 °C 21,3 °C 56 % 71 % 1013,8 hPa 0,0 l/m² 1,6 km/h (1 Bft) W 270 ° 0 min 0 W/m² 15,8 °C 21,3 °C 3,2 km/h (1 Bft)
16.08.2026 22:25 24,2 °C 21,2 °C 56 % 71 % 1013,8 hPa 0,0 l/m² 1,6 km/h (1 Bft) W 270 ° 0 min 0 W/m² 15,7 °C 21,2 °C 3,2 km/h (1 Bft)
16.08.2026 22:26 24,2 °C 21,2 °C 56 % 71 % 1013,7 hPa 0,0 l/m² 1,6 km/h (1 Bft) W 270 ° 0 min 0 W/m² 15,7 °C 21,2 °C 3,2 km/h (1 Bft)
16.08.2026 22:27 24,2 °C 21,1 °C 56 % 72 % 1013,7 hPa 0,0 l/m² 0,0 km/h (0 Bft) W 270 ° 0 min 0 W/m² 15,8 °C 21,1 °C 1,6 km/h (1 Bft)
16.08.2026 22:28 24,2 °C 21,1 °C 56 % 72 % 1013,7 hPa 0,0 l/m² 0,0 km/h (0 Bft) N 0 ° 0 min 0 W/m² 15,8 °C 21,1 °C 0,0 km/h (0 Bft)
16.08.2026 22:29 24,2 °C 21,0 °C 56 % 73 % 1013,7 hPa 0,0 l/m² 0,0 km/h (0 Bft) W 270 ° 0 min 0 W/m² 16,0 °C 21,0 °C 1,6 km/h (1 Bft)
16.08.2026 22:30 24,2 °C 21,0 °C 56 % 73 % 1013,6 hPa 0,0 l/m² 0,0 km/h (0 Bft) N 0 ° 0 min 0 W/m² 16,0 °C 21,0 °C 0,0 km/h (0 Bft)
16.08.2026 22:31 24,2 °C 20,9 °C 57 % 73 % 1013,6 hPa 0,0 l/m² 0,0 km/h (0 Bft) N 0 ° 0 min 0 W/m² 15,9 °C 20,9 °C 0,0 km/h (0 Bft)
16.08.2026 22:32 24,2 °C 20,9 °C 56 % 73 % 1013,6 hPa 0,0 l/m² 0,0 km/h (0 Bft) N 0 ° 0 min 0 W/m² 15,9 °C 20,9 °C 0,0 km/h (0 Bft)
16.08.2026 22:33 24,2 °C 20,9 °C 56 % 73 % 1013,7 hPa 0,0 l/m² 0,0 km/h (0 Bft) N 0 ° 0 min 0 W/m² 15,9 °C 20,9 °C 0,0 km/h (0 Bft)
16.08.2026 22:34 24,2 °C 20,8 °C 56 % 73 % 1013,7 hPa 0,0 l/m² 0,0 km/h (0 Bft) N 0 ° 0 min 0 W/m² 15,8 °C 20,8 °C 0,0 km/h (0 Bft)
16.08.2026 22:35 24,2 °C 20,8 °C 56 % 73 % 1013,7 hPa 0,0 l/m² 0,0 km/h (0 Bft) W 270 ° 0 min 0 W/m² 15,8 °C 20,8 °C 1,6 km/h (1 Bft)
16.08.2026 22:36 24,2 °C 20,8 °C 57 % 73 % 1013,7 hPa 0,0 l/m² 0,0 km/h (0 Bft) W 270 ° 0 min 0 W/m² 15,8 °C 20,8 °C 1,6 km/h (1 Bft)
16.08.2026 22:37 24,2 °C 20,8 °C 56 % 74 % 1013,7 hPa 0,0 l/m² 0,0 km/h (0 Bft) N 0 ° 0 min 0 W/m² 16,0 °C 20,8 °C 0,0 km/h (0 Bft)
16.08.2026 22:38 24,2 °C 20,8 °C 57 % 74 % 1013,6 hPa 0,0 l/m² 0,0 km/h (0 Bft) W 270 ° 0 min 0 W/m² 16,0 °C 20,8 °C 1,6 km/h (1 Bft)
16.08.2026 22:39 24,2 °C 20,8 °C 56 % 74 % 1013,6 hPa 0,0 l/m² 1,6 km/h (1 Bft) W 270 ° 0 min 0 W/m² 16,0 °C 20,8 °C 1,6 km/h (1 Bft)
16.08.2026 22:40 24,2 °C 20,7 °C 56 % 74 % 1013,5 hPa 0,0 l/m² 1,6 km/h (1 Bft) W 270 ° 0 min 0 W/m² 15,9 °C 20,7 °C 4,8 km/h (1 Bft)
16.08.2026 22:41 24,2 °C 20,7 °C 57 % 74 % 1013,5 hPa 0,0 l/m² 1,6 km/h (1 Bft) W 270 ° 0 min 0 W/m² 15,9 °C 20,7 °C 4,8 km/h (1 Bft)
16.08.2026 22:42 24,2 °C 20,7 °C 57 % 74 % 1013,5 hPa 0,0 l/m² 1,6 km/h (1 Bft) W 270 ° 0 min 0 W/m² 15,9 °C 20,7 °C 1,6 km/h (1 Bft)
16.08.2026 22:43 24,1 °C 20,8 °C 57 % 74 % 1013,5 hPa 0,0 l/m² 0,0 km/h (0 Bft) N 0 ° 0 min 0 W/m² 16,0 °C 20,8 °C 0,0 km/h (0 Bft)
16.08.2026 22:44 24,2 °C 20,8 °C 57 % 74 % 1013,6 hPa 0,0 l/m² 0,0 km/h (0 Bft) W 270 ° 0 min 0 W/m² 16,0 °C 20,8 °C 1,6 km/h (1 Bft)
16.08.2026 22:45 24,1 °C 20,7 °C 57 % 74 % 1013,6 hPa 0,0 l/m² 1,6 km/h (1 Bft) W 270 ° 0 min 0 W/m² 15,9 °C 20,7 °C 3,2 km/h (1 Bft)
16.08.2026 22:46 24,1 °C 20,8 °C 57 % 73 % 1013,6 hPa 0,0 l/m² 1,6 km/h (1 Bft) W 270 ° 0 min 0 W/m² 15,8 °C 20,8 °C 3,2 km/h (1 Bft)
16.08.2026 22:47 24,2 °C 20,8 °C 57 % 72 % 1013,6 hPa 0,0 l/m² 3,2 km/h (1 Bft) W 270 ° 0 min 0 W/m² 15,6 °C 20,8 °C 8,0 km/h (2 Bft)
16.08.2026 22:48 24,1 °C 20,9 °C 57 % 72 % 1013,6 hPa 0,0 l/m² 6,4 km/h (2 Bft) N 360 ° 0 min 0 W/m² 15,7 °C 20,9 °C 8,0 km/h (2 Bft)
16.08.2026 22:49 24,2 °C 21,0 °C 57 % 71 % 1013,5 hPa 0,0 l/m² 3,2 km/h (1 Bft) N-NW 337 ° 0 min 0 W/m² 15,5 °C 21,0 °C 4,8 km/h (1 Bft)
16.08.2026 22:50 24,1 °C 21,2 °C 57 % 70 % 1013,6 hPa 0,0 l/m² 4,8 km/h (1 Bft) W-NW 292 ° 0 min 0 W/m² 15,5 °C 21,2 °C 6,4 km/h (2 Bft)
16.08.2026 22:51 24,1 °C 21,3 °C 57 % 70 % 1013,6 hPa 0,0 l/m² 3,2 km/h (1 Bft) NW 315 ° 0 min 0 W/m² 15,6 °C 21,3 °C 6,4 km/h (2 Bft)
16.08.2026 22:52 24,1 °C 21,3 °C 57 % 69 % 1013,6 hPa 0,0 l/m² 3,2 km/h (1 Bft) NW 315 ° 0 min 0 W/m² 15,4 °C 21,3 °C 4,8 km/h (1 Bft)
16.08.2026 22:53 24,1 °C 21,4 °C 57 % 69 % 1013,6 hPa 0,0 l/m² 4,8 km/h (1 Bft) NW 315 ° 0 min 0 W/m² 15,5 °C 21,4 °C 6,4 km/h (2 Bft)
16.08.2026 22:54 24,1 °C 21,6 °C 57 % 69 % 1013,6 hPa 0,0 l/m² 4,8 km/h (1 Bft) NW 315 ° 0 min 0 W/m² 15,7 °C 21,6 °C 6,4 km/h (2 Bft)
16.08.2026 22:55 24,1 °C 21,6 °C 57 % 68 % 1013,6 hPa 0,0 l/m² 4,8 km/h (1 Bft) NW 315 ° 0 min 0 W/m² 15,4 °C 21,6 °C 6,4 km/h (2 Bft)
16.08.2026 22:56 24,2 °C 21,6 °C 57 % 68 % 1013,6 hPa 0,0 l/m² 4,8 km/h (1 Bft) NW 315 ° 0 min 0 W/m² 15,4 °C 21,6 °C 8,0 km/h (2 Bft)
16.08.2026 22:57 24,1 °C 21,7 °C 57 % 68 % 1013,6 hPa 0,0 l/m² 3,2 km/h (1 Bft) NW 315 ° 0 min 0 W/m² 15,5 °C 21,7 °C 6,4 km/h (2 Bft)
16.08.2026 22:58 24,2 °C 21,7 °C 57 % 68 % 1013,6 hPa 0,0 l/m² 3,2 km/h (1 Bft) NW 315 ° 0 min 0 W/m² 15,5 °C 21,7 °C 4,8 km/h (1 Bft)
16.08.2026 22:59 24,1 °C 21,8 °C 57 % 68 % 1013,6 hPa 0,0 l/m² 3,2 km/h (1 Bft) NW 315 ° 0 min 0 W/m² 15,6 °C 21,8 °C 6,4 km/h (2 Bft)
16.08.2026 23:00 24,1 °C 21,8 °C 57 % 68 % 1013,6 hPa 0,0 l/m² 3,2 km/h (1 Bft) NW 315 ° 0 min 0 W/m² 15,6 °C 21,8 °C 6,4 km/h (2 Bft)
16.08.2026 23:01 24,1 °C 21,8 °C 57 % 68 % 1013,6 hPa 0,0 l/m² 4,8 km/h (1 Bft) NW 315 ° 0 min 0 W/m² 15,6 °C 21,8 °C 8,0 km/h (2 Bft)
16.08.2026 23:02 24,1 °C 21,8 °C 57 % 68 % 1013,6 hPa 0,0 l/m² 4,8 km/h (1 Bft) W-NW 292 ° 0 min 0 W/m² 15,6 °C 21,8 °C 6,4 km/h (2 Bft)
16.08.2026 23:03 24,1 °C 21,8 °C 57 % 68 % 1013,6 hPa 0,0 l/m² 6,4 km/h (2 Bft) N-NW 337 ° 0 min 0 W/m² 15,6 °C 21,8 °C 11,3 km/h (2 Bft)
16.08.2026 23:04 24,1 °C 21,8 °C 57 % 68 % 1013,6 hPa 0,0 l/m² 6,4 km/h (2 Bft) N 360 ° 0 min 0 W/m² 15,6 °C 21,8 °C 9,7 km/h (2 Bft)
16.08.2026 23:05 24,1 °C 21,8 °C 57 % 68 % 1013,6 hPa 0,0 l/m² 4,8 km/h (1 Bft) N-NW 337 ° 0 min 0 W/m² 15,6 °C 21,8 °C 8,0 km/h (2 Bft)
16.08.2026 23:06 24,1 °C 21,8 °C 57 % 68 % 1013,5 hPa 0,0 l/m² 6,4 km/h (2 Bft) N-NW 337 ° 0 min 0 W/m² 15,6 °C 21,8 °C 9,7 km/h (2 Bft)
16.08.2026 23:07 24,1 °C 21,8 °C 57 % 68 % 1013,5 hPa 0,0 l/m² 4,8 km/h (1 Bft) N 360 ° 0 min 0 W/m² 15,6 °C 21,8 °C 8,0 km/h (2 Bft)
16.08.2026 23:08 24,1 °C 21,8 °C 57 % 67 % 1013,6 hPa 0,0 l/m² 4,8 km/h (1 Bft) N 360 ° 0 min 0 W/m² 15,4 °C 21,8 °C 8,0 km/h (2 Bft)
16.08.2026 23:09 24,1 °C 21,8 °C 57 % 68 % 1013,6 hPa 0,0 l/m² 4,8 km/h (1 Bft) N 360 ° 0 min 0 W/m² 15,6 °C 21,8 °C 6,4 km/h (2 Bft)
16.08.2026 23:10 24,1 °C 21,8 °C 57 % 68 % 1013,6 hPa 0,0 l/m² 4,8 km/h (1 Bft) N-NW 337 ° 0 min 0 W/m² 15,6 °C 21,8 °C 6,4 km/h (2 Bft)
16.08.2026 23:11 24,1 °C 21,8 °C 57 % 68 % 1013,6 hPa 0,0 l/m² 4,8 km/h (1 Bft) N-NW 337 ° 0 min 0 W/m² 15,6 °C 21,8 °C 8,0 km/h (2 Bft)
16.08.2026 23:12 24,1 °C 21,8 °C 57 % 68 % 1013,6 hPa 0,0 l/m² 8,0 km/h (2 Bft) N 360 ° 0 min 0 W/m² 15,6 °C 21,2 °C 9,7 km/h (2 Bft)
16.08.2026 23:13 24,1 °C 21,8 °C 57 % 68 % 1013,6 hPa 0,0 l/m² 6,4 km/h (2 Bft) N 360 ° 0 min 0 W/m² 15,6 °C 21,8 °C 9,7 km/h (2 Bft)
16.08.2026 23:14 24,1 °C 21,8 °C 57 % 68 % 1013,5 hPa 0,0 l/m² 4,8 km/h (1 Bft) N-NO 22 ° 0 min 0 W/m² 15,6 °C 21,8 °C 6,4 km/h (2 Bft)
16.08.2026 23:15 24,1 °C 21,8 °C 57 % 68 % 1013,5 hPa 0,0 l/m² 4,8 km/h (1 Bft) NO 45 ° 0 min 0 W/m² 15,6 °C 21,8 °C 6,4 km/h (2 Bft)
16.08.2026 23:16 24,1 °C 21,8 °C 57 % 68 % 1013,4 hPa 0,0 l/m² 6,4 km/h (2 Bft) N 360 ° 0 min 0 W/m² 15,6 °C 21,8 °C 14,5 km/h (3 Bft)
16.08.2026 23:23 24,1 °C 21,6 °C 57 % 68 % 1013,3 hPa 0,0 l/m² 4,0 km/h (1 Bft) N-NO 28 ° 0 min 0 W/m² 15,4 °C 21,6 °C 4,8 km/h (1 Bft)
16.08.2026 23:25 24,1 °C 21,6 °C 57 % 68 % 1013,3 hPa 0,0 l/m² 4,1 km/h (1 Bft) N 5 ° 0 min 0 W/m² 15,4 °C 21,6 °C 6,4 km/h (2 Bft)
16.08.2026 23:26 24,1 °C 21,6 °C 57 % 68 % 1013,3 hPa 0,0 l/m² 5,0 km/h (1 Bft) N-NO 28 ° 0 min 0 W/m² 15,4 °C 21,6 °C 9,7 km/h (2 Bft)
16.08.2026 23:28 24,1 °C 21,5 °C 57 % 68 % 1013,3 hPa 0,0 l/m² 4,5 km/h (1 Bft) N-NO 30 ° 0 min 0 W/m² 15,3 °C 21,5 °C 11,3 km/h (2 Bft)
16.08.2026 23:29 24,1 °C 21,5 °C 57 % 69 % 1013,3 hPa 0,0 l/m² 3,6 km/h (1 Bft) N-NO 28 ° 0 min 0 W/m² 15,6 °C 21,5 °C 6,4 km/h (2 Bft)
16.08.2026 23:31 24,1 °C 21,4 °C 57 % 69 % 1013,4 hPa 0,0 l/m² 3,2 km/h (1 Bft) N-NO 17 ° 0 min 0 W/m² 15,5 °C 21,4 °C 6,4 km/h (2 Bft)
16.08.2026 23:33 24,1 °C 21,4 °C 57 % 69 % 1013,4 hPa 0,0 l/m² 4,4 km/h (1 Bft) N-NO 20 ° 0 min 0 W/m² 15,5 °C 21,4 °C 6,4 km/h (2 Bft)
16.08.2026 23:34 24,1 °C 21,4 °C 57 % 69 % 1013,4 hPa 0,0 l/m² 4,1 km/h (1 Bft) NO 36 ° 0 min 0 W/m² 15,5 °C 21,4 °C 6,4 km/h (2 Bft)
16.08.2026 23:35 24,1 °C 21,4 °C 57 % 69 % 1013,5 hPa 0,0 l/m² 3,0 km/h (1 Bft) N-NO 28 ° 0 min 0 W/m² 15,5 °C 21,4 °C 4,8 km/h (1 Bft)
16.08.2026 23:36 24,1 °C 21,4 °C 57 % 69 % 1013,5 hPa 0,0 l/m² 4,2 km/h (1 Bft) N 360 ° 0 min 0 W/m² 15,5 °C 21,4 °C 6,4 km/h (2 Bft)
16.08.2026 23:37 24,1 °C 21,4 °C 57 % 69 % 1013,6 hPa 0,0 l/m² 4,5 km/h (1 Bft) N 355 ° 0 min 0 W/m² 15,5 °C 21,4 °C 6,4 km/h (2 Bft)
16.08.2026 23:38 24,1 °C 21,4 °C 57 % 69 % 1013,4 hPa 0,0 l/m² 4,1 km/h (1 Bft) N 5 ° 0 min 0 W/m² 15,5 °C 21,4 °C 6,4 km/h (2 Bft)
16.08.2026 23:39 24,1 °C 21,4 °C 57 % 69 % 1013,4 hPa 0,0 l/m² 5,2 km/h (1 Bft) N 11 ° 0 min 0 W/m² 15,5 °C 21,4 °C 8,0 km/h (2 Bft)
16.08.2026 23:41 24,1 °C 21,4 °C 57 % 69 % 1013,2 hPa 0,0 l/m² 4,4 km/h (1 Bft) NO 53 ° 0 min 0 W/m² 15,5 °C 21,4 °C 8,0 km/h (2 Bft)
16.08.2026 23:43 24,1 °C 21,4 °C 57 % 69 % 1013,3 hPa 0,0 l/m² 4,8 km/h (1 Bft) O-NO 59 ° 0 min 0 W/m² 15,5 °C 21,4 °C 8,0 km/h (2 Bft)
16.08.2026 23:44 24,1 °C 21,4 °C 57 % 69 % 1013,3 hPa 0,0 l/m² 5,5 km/h (2 Bft) O-NO 57 ° 0 min 0 W/m² 15,5 °C 21,4 °C 8,0 km/h (2 Bft)
16.08.2026 23:45 24,1 °C 21,4 °C 57 % 69 % 1013,2 hPa 0,0 l/m² 4,2 km/h (1 Bft) NO 35 ° 0 min 0 W/m² 15,5 °C 21,4 °C 8,0 km/h (2 Bft)
16.08.2026 23:46 24,1 °C 21,4 °C 57 % 69 % 1013,1 hPa 0,0 l/m² 7,4 km/h (2 Bft) NO 54 ° 0 min 0 W/m² 15,5 °C 21,0 °C 9,7 km/h (2 Bft)
16.08.2026 23:47 24,1 °C 21,4 °C 57 % 69 % 1013,2 hPa 0,0 l/m² 5,2 km/h (1 Bft) NO 51 ° 0 min 0 W/m² 15,5 °C 21,4 °C 6,4 km/h (2 Bft)
16.08.2026 23:48 24,1 °C 21,4 °C 57 % 69 % 1013,1 hPa 0,0 l/m² 2,5 km/h (1 Bft) NO 51 ° 0 min 0 W/m² 15,5 °C 21,4 °C 4,8 km/h (1 Bft)
16.08.2026 23:49 24,1 °C 21,4 °C 57 % 69 % 1013,1 hPa 0,0 l/m² 3,0 km/h (1 Bft) O-NO 78 ° 0 min 0 W/m² 15,5 °C 21,4 °C 4,8 km/h (1 Bft)
16.08.2026 23:51 24,1 °C 21,4 °C 57 % 69 % 1013,3 hPa 0,0 l/m² 3,3 km/h (1 Bft) NO 38 ° 0 min 0 W/m² 15,5 °C 21,4 °C 4,8 km/h (1 Bft)
16.08.2026 23:53 24,1 °C 21,4 °C 57 % 69 % 1013,2 hPa 0,0 l/m² 3,8 km/h (1 Bft) N-NO 19 ° 0 min 0 W/m² 15,5 °C 21,4 °C 8,0 km/h (2 Bft)
16.08.2026 23:54 24,1 °C 21,4 °C 57 % 69 % 1013,3 hPa 0,0 l/m² 3,6 km/h (1 Bft) N 360 ° 0 min 0 W/m² 15,5 °C 21,4 °C 4,8 km/h (1 Bft)
16.08.2026 23:55 24,1 °C 21,3 °C 57 % 69 % 1013,2 hPa 0,0 l/m² 5,2 km/h (1 Bft) N-NW 347 ° 0 min 0 W/m² 15,4 °C 21,3 °C 8,0 km/h (2 Bft)
16.08.2026 23:56 24,1 °C 21,4 °C 57 % 69 % 1013,3 hPa 0,0 l/m² 3,2 km/h (1 Bft) O-NO 59 ° 0 min 0 W/m² 15,5 °C 21,4 °C 4,8 km/h (1 Bft)
16.08.2026 23:57 24,1 °C 21,3 °C 57 % 69 % 1013,2 hPa 0,0 l/m² 4,8 km/h (1 Bft) NO 49 ° 0 min 0 W/m² 15,4 °C 21,3 °C 6,4 km/h (2 Bft)
16.08.2026 23:58 24,1 °C 21,3 °C 57 % 70 % 1013,1 hPa 0,0 l/m² 3,6 km/h (1 Bft) NO 49 ° 0 min 0 W/m² 15,6 °C 21,3 °C 6,4 km/h (2 Bft)
16.08.2026 23:59 24,1 °C 21,3 °C 57 % 70 % 1013,1 hPa 0,0 l/m² 1,4 km/h (1 Bft) NO 49 ° 0 min 0 W/m² 15,6 °C 21,3 °C 3,2 km/h (1 Bft)
_ Min-Zeit 08:07 08:21 03:00 15:52 20:38 - 22:44 - - - - 02:34 06:55 22:43
Minimum _ 23,4 °C 18,3 °C 53 % 54 % 1013,0 hPa - 0,0 km/h (0 Bft) - - - - 15,0 °C 16,3 °C 0,0 km/h (0 Bft)
_ Max-Zeit 16:24 15:51 20:21 06:26 11:59 23:59 09:28 - - 19:34 12:29 14:13 15:50 09:29
Maximum _ 24,3 °C 28,0 °C 59 % 87 % 1015,9 hPa 0,0 l/m² 16,1 km/h
N-NW (3 Bft)
- - 1 min 907 W/m² 18,6 °C 27,8 °C 24,1 km/h
N-NW (4 Bft)
Durchschnitt _ 23,9 °C 22,5 °C 56 % 70 % 1014,4 hPa #0,0 l/m² 5,2 km/h (1 Bft) NW - #11:21 h 208 W/m² 16,6 °C 22,3 °C 8,7 km/h (2 Bft)
© 2009 Mathias Hoßbach